     2.11           OBSERVATION DATA    G (GPS)             RINEX VERSION / TYPE
teqc 2007Jun25 20080612 09:25:28UTC                         PGM / RUN BY / DATE
MSXP|IAx86-PII|bcc32 5.0|MSWin95->XP|486/DX+                COMMENT
2.10 OBSERVATION DATA G (GPS)                               COMMENT
JPS2RIN 1.40 RUN BY 12-JUN-08 10:53                         COMMENT
build Feb 6 2004 (c) Javad Navigation Systems               COMMENT
Use -p (profile) switch to override ANTENNA TYPE and DELTA  COMMENT
and other fields                                            COMMENT
jav0427b.jps                                                COMMENT
SE TPS 00000000                                             COMMENT
jav0427b_277K                                               MARKER NAME
OBSERVER AGENCY                                             OBSERVER / AGENCY
8QG3JM7277K TPS MAXOR 2.6.0 Apr,18,2007                     REC # / TYPE / VERS
jav0427b -Unknown-                                          ANT # / TYPE
   895923.1754  -268182.1458  6288109.2951                  APPROX POSITION XYZ
        0.0000        0.0000        0.0000                  ANTENNA: DELTA H/E/N
     1     1                                                WAVELENGTH FACT L1/2
     7    C1    P1    P2    L1    L2    D1    D2            # / TYPES OF OBSERV
    30.0000                                                 INTERVAL
Forced Modulo Decimation to 30 seconds                      COMMENT
teqc windowed: start @ 2008 Apr 27 09:20:00.000             COMMENT
  2008     4    27     9    20    0.0000000     GPS         TIME OF FIRST OBS
                                                            END OF HEADER
 08  4 27  9 20  0.0000000  0 11G 1G 4G 5G 9G11G12G14G17G20G31G32
  21956142.779                                   115380309.711 8
      -654.632
  24131071.807    24131072.0994   24131075.0724  126809645.073 6  98812726.60344
      2970.431        2314.626
  23193964.316    23193963.6494   23193967.0864  121885106.220 6  94975425.02343
      2002.598        1560.449
  23881073.604    23881073.0634   23881079.4024  125495888.089 6  97789023.69842
     -4292.511       -3344.758
  22771224.465    22771224.1484   22771226.3704  119663594.076 8  93244376.61345
     -3583.556       -2792.377
  23130249.644    23130249.4814   23130251.7484  121550283.009 7  94714526.97045
      1293.185        1007.677
  22672724.697    22672724.3014   22672726.6494  119145970.742 7  92841037.83644
     -2647.226       -2062.766
  21636687.542    21636687.5094   21636689.3024  113701561.170 8  88598637.94246
     -1572.339       -1225.198
  21663221.700    21663220.9734   21663224.1634  113840999.779 8  88707291.06746
      1118.149         871.283
  24818895.454    24818895.4444   24818898.2954  130424178.253 6 101629249.86744
      2705.386        2108.091
  22526832.853    22526832.1664   22526835.6034  118379304.293 8  92243633.62645
     -2869.173       -2235.723
 08  4 27  9 20 30.0000000  0 11G 1G 4G 5G 9G11G12G14G17G20G31G32
  21959926.152    21959926.2914   21959929.8634  115400192.067 5  89922245.94943
      -671.082        -522.921
  24114122.854    24114123.0954   24114125.7134  126720575.956 7  98743322.12544
      2967.313        2312.183
  23182562.949    23182562.3194   23182565.4284  121825192.784 6  94928739.25643
      1991.437        1551.771
  23905600.506    23905600.0554   23905603.4004  125624777.624 7  97889457.07044
     -4300.378       -3350.971
  22791704.725    22791704.3604   22791706.5524  119771219.482 5  93328240.55943
     -3591.736       -2798.781
  23122903.943    23122903.8784   23122905.7634  121511678.152 7  94684445.27545
      1280.174         997.528
  22687875.132    22687875.0224   22687877.6844  119225589.163 6  92903078.16943
     -2660.909       -2073.469
  21645709.141    21645709.0804   21645710.7014  113748968.856 8  88635578.97346
     -1588.407       -1237.730
  21656878.524    21656877.7584   21656880.5754  113807664.547 7  88681315.52945
      1103.940         860.188
  24803458.890                                   130343051.888 5
      2702.194
  22543240.644    22543239.7154   22543243.4204  118465525.812 5  92310819.03642
     -2878.920       -2243.324
 08  4 27  9 21  0.0000000  0 11G 1G 4G 5G 9G11G12G14G17G20G31G32
  21963807.859    21963807.4004   21963810.8214  115420589.684 8  89938140.15745
      -689.027        -536.906
  24097196.377    24097196.2164   24097199.1394  126631625.019 7  98674009.73744
      2962.563        2308.493
  23171230.079    23171229.7524   23171233.0694  121765639.279 7  94882334.00844
      1978.597        1541.760
  23930175.952    23930175.7014   23930179.0984  125753923.438 6  97990090.15744
     -4309.615       -3358.144
  22812235.398    22812234.9384   22812237.5604  119879107.851 7  93412309.22344
     -3601.108       -2806.043
  23115635.759    23115635.8644   23115637.9214  121473488.277 7  94654686.93945
      1265.577         986.163
  22703108.610    22703108.0764   22703110.7644  119305639.159 7  92965454.78444
     -2676.027       -2085.216
  21654826.377    21654826.4374   21654828.0514  113796881.167 8  88672913.27746
     -1605.977       -1251.412
  21650620.654    21650619.9754   21650622.5454  113774778.967 8  88655690.41245
      1088.171         847.923
  24788047.011    24788046.9894   24788049.9734  130262057.778 7 101502928.20044
      2697.222        2101.734
  22559708.762    22559708.4604   22559712.0374  118552069.525 7  92378255.66245
     -2890.680       -2252.470
 08  4 27  9 21 30.0000000  0 11G 1G 4G 5G 9G11G12G14G17G20G31G32
  21967799.528    21967798.9684   21967802.4144  115441566.155 8  89954485.47045
      -709.284        -552.693
  24080303.837    24080304.0294   24080306.9764  126542856.212 7  98604839.25744
      2955.484        2302.967
  23159978.066    23159977.6914   23159981.2274  121706509.809 7  94836259.16144
      1963.481        1529.974
  23954811.036    23954811.2034   23954814.4314  125883383.059 6  98090967.75444
     -4320.928       -3366.951
  22832827.250    22832826.9974   22832829.4054  119987319.303 7  93496629.72744
     -3612.829       -2815.182
  23108460.267    23108460.2654   23108461.9964  121435776.573 7  94625301.21445
      1248.644         972.968
  22718435.120    22718434.6694   22718437.2964  119386180.575 7  93028214.34444
     -2693.281       -2098.657
  21664051.347    21664051.4844   21664053.0044  113845358.699 8  88710687.98746
     -1625.759       -1266.829
  21644460.351    21644459.8104   21644462.3554  113742406.828 7  88630465.35745
      1070.098         833.842
  24772669.767    24772669.9034   24772672.9594  130181251.860 6 101439962.63244
      2689.944        2096.061
  22576250.960    22576250.2654   22576253.6994  118638996.389 7  92445990.86045
     -2904.356       -2263.139
 08  4 27  9 22  0.0000000  0 11G 1G 4G 5G 9G11G12G14G17G20G31G32
  21971903.941    21971903.3424   21971906.8154  115463134.457 7  89971291.89745
      -729.956        -568.796
  24063449.912    24063449.5454   24063452.2744  126454285.782 7  98535823.36444
      2947.880        2297.051
  23148810.275    23148809.2234   23148812.6604  121647820.941 7  94790527.64644
      1947.771        1517.743
  23979508.453    23979508.2834   23979511.3854  126013167.362 7  98192098.36044
     -4332.657       -3376.104
  22853482.947    22853482.6264   22853485.1624  120095865.530 7  93581211.13344
     -3624.942       -2824.640
  23101377.562    23101377.4274   23101379.3824  121398558.947 7  94596300.51145
      1231.160         959.345
  22733857.793    22733857.0364   22733859.6934  119467225.318 7  93091366.10144
     -2710.988       -2112.457
  21673386.477    21673386.4194   21673388.0604  113894414.563 7  88748913.33346
     -1645.971       -1282.574
  21638400.935    21638400.2974   21638402.9254  113710563.570 8  88605652.41545
      1051.457         819.316
  24757332.365    24757332.4124   24757334.3864  130100650.195 6 101377156.04744
      2682.130        2089.975
  22592867.376    22592866.7304   22592870.3044  118726317.891 7  92514033.66945
     -2918.392       -2274.076
 08  4 27  9 22 30.0000000  0 12G 1G 4G 5G 9G11G12G14G17G20G30G31G32
  21976124.434    21976124.0204   21976127.5414  115485314.971 8  89988575.42146
      -750.345        -584.685
  24046637.275    24046637.1754   24046640.3284  126365936.387 7  98466979.69244
      2940.420        2291.237
  23137730.093    23137729.4734   23137732.7604  121589595.343 7  94745157.10144
      1932.294        1505.673
  24004270.790    24004270.3344   24004273.8464  126143293.007 7  98293494.95044
     -4343.991       -3384.925
  22874205.482    22874205.1644   22874207.5004  120204764.346 7  93666067.57344
     -3636.632       -2833.750
  23094393.434    23094393.3834   23094395.5274  121361857.378 7  94567701.89445
      1213.960         945.944
  22749378.791    22749378.5464   22749381.1014  119548791.520 7  93154924.19945
     -2728.381       -2126.011
  21682835.212    21682835.2074   21682836.9114  113944068.247 7  88787604.50846
     -1665.895       -1298.099
  21632446.289    21632445.4274   21632448.3004  113679271.145 8  88581268.69845
      1033.071         804.992
  24602910.627    24602910.7144   24602913.9894  129289174.121 7 100744824.87544
      2900.733        2260.314
  24742036.873    24742037.1334   24742040.0364  130020275.637 6 101314526.49344
      2674.540        2084.057
  22609562.883    22609562.1294   22609565.6354  118814052.024 7  92582397.93745
     -2932.136       -2284.784
 08  4 27  9 23  0.0000000  0 12G 1G 4G 5G 9G11G12G14G17G20G30G31G32
  21980474.852    21980474.3814   21980477.8574  115508175.698 7  90006389.01646
      -773.557        -602.767
  24029880.235    24029880.2894   24029883.3354  126277878.662 7  98398363.28244
      2930.159        2283.236
  23126751.579    23126750.9794   23126754.3214  121531903.821 6  94700202.68644
      1913.925        1491.372
  24029109.912    24029109.6204   24029113.1474  126273824.640 6  98395207.90144
     -4357.980       -3395.827
  22895007.450    22895007.3434   22895009.8554  120314081.013 7  93751249.54544
     -3651.039       -2844.964
  23087521.105    23087521.1484   23087522.9454  121325742.251 7  94539560.28746
      1193.807         930.239
  22765012.344    22765011.8464   22765014.3844  119630945.034 7  93218939.93244
     -2748.443       -2141.641
  21692410.426    21692410.5834   21692412.2224  113994386.823 7  88826813.77046
     -1688.598       -1315.786
  21626609.535    21626608.8594   21626611.6694  113648599.314 8  88557368.56046
      1011.834         788.442
  24586384.298    24586384.3304   24586387.8304  129202327.362 7 100677152.04344
      2889.123        2251.268
  24726799.474    24726799.8334   24726802.1204  129940199.202 7 101252129.27944
      2664.025        2075.866
  22626348.978    22626348.5544   22626352.2044  118902265.226 7  92651135.53745
     -2948.614       -2297.622
 08  4 27  9 23 30.0000000  0 12G 1G 4G 5G 9G11G12G14G17G20G30G31G32
  21685163.818    21685163.2414   21685166.7664  113956306.127 7  88797140.00245
      -796.672        -620.787
  23713388.213    23713388.3044   23713391.1404  124614701.090 7  97102380.77944
      2919.869        2275.223
  22816084.353    22816083.8494   22816087.4394  119899336.137 7  93428072.08644
      1895.533        1477.036
  23754235.768    23754235.4874   23754238.7444  124829352.217 6  97269644.96044
     -4371.809       -3406.609
  22616099.030    22616098.6894   22616101.2634  118848405.714 7  92609164.85244
     -3665.300       -2856.088
  22780969.024    22780969.1644   22780971.5634  119714803.130 7  93284283.06445
      1173.771         914.619
  22480966.546    22480966.1394   22480968.8214  118138275.530 7  92055820.77644
     -2768.368       -2157.175
  21402321.708    21402321.7874   21402323.4334  112469959.592 7  87638948.29446
     -1711.119       -1333.337
  21321100.227    21321099.4884   21321102.3744  112043137.699 8  87306359.50245
       990.611         771.907
  24270130.148    24270130.2674   24270133.7124  127540400.733 7  99382144.24944
      2877.520        2242.222
  24411827.275    24411827.5594   24411829.2574  128285010.418 6  99962371.82444
      2653.454        2067.620
  22343435.793    22343435.2284   22343439.1194  117415547.331 7  91492654.05845
     -2964.958       -2310.354
 08  4 27  9 24  0.0000000  0 12G 1G 4G 5G 9G11G12G14G17G20G30G31G32
  21689778.564    21689778.2244   21689781.6934  113980557.703 7  88816037.34245
      -820.198        -639.112
  23696749.583    23696749.8334   23696752.5524  124527265.418 6  97034249.11644
      2909.039        2266.789
  22805317.057    22805316.2264   22805319.4244  119842751.800 7  93383980.46144
      1876.646        1462.317
  23779233.431    23779233.3694   23779236.9604  124960716.517 6  97372006.73444
     -4385.910       -3417.595
  22637064.940    22637064.6344   22637067.2254  118958582.012 7  92695016.42044
     -3679.919       -2867.467
  22774327.149    22774327.2674   22774329.3464  119679897.481 7  93257083.91646
      1153.182         898.580
  22496828.616    22496827.9564   22496830.5134  118221628.731 7  92120771.28144
     -2788.641       -2172.962
  21412155.632    21412155.6114   21412157.2304  112521635.871 8  87679215.46746
     -1734.078       -1351.230
  21315506.373    21315505.8034   21315508.7384  112013742.958 8  87283454.52346
       968.916         754.998
  24253737.313    24253737.5124   24253740.9404  127454255.897 6  99315018.43244
      2865.380        2232.768
  24396710.195    24396710.0474   24396712.1474  128205569.026 6  99900469.51543
      2642.479        2059.066
  22360409.918    22360409.0254   22360412.5924  117504743.766 7  91562157.77345
     -2981.602       -2323.330
 08  4 27  9 24 30.0000000  0 12G 1G 4G 5G 9G11G12G14G17G20G30G31G32
  21694528.867    21694528.4074   21694531.8184  114005519.795 8  88835488.28845
      -844.162        -657.789
  23680174.023    23680174.1224   23680177.0744  124440159.852 7  96966374.67644
      2897.713        2257.960
  22794658.003    22794657.4904   22794660.7294  119786740.329 7  93340335.19644
      1857.218        1447.182
  23804312.648    23804312.4724   23804315.8344  125092507.568 6  97474701.04144
     -4400.382       -3428.868
  22658115.315    22658114.5554   22658117.3204  119069200.238 7  92781212.24844
     -3694.881       -2879.126
  22767803.226    22767803.0794   22767805.3104  119645614.697 7  93230370.11045
      1132.062         882.125
  22512806.399    22512805.9524   22512808.7164  118305593.785 7  92186198.49844
     -2809.317       -2189.076
  21422121.101    21422121.2144   21422122.9474  112574005.329 8  87720022.81646
     -1757.467       -1369.453
  21310037.909    21310037.0274   21310040.0864  111985004.785 7  87261061.14745
       946.697         737.685
  24237414.814    24237414.9324   24237418.4064  127368481.736 6  99248181.42644
      2852.652        2222.847
  24381656.822    24381657.4074   24381659.6624  128126465.113 6  99838830.17844
      2630.853        2050.021
  22377479.016    22377478.4584   22377482.0414  117594444.467 7  91632054.49645
     -2998.654       -2336.607
 08  4 27  9 25  0.0000000  0 12G 1G 4G 5G 9G11G12G14G17G20G30G31G32
  21699418.067    21699417.6814   21699421.2304  114031213.525 8  88855509.38845
      -868.815        -676.997
  23663665.640    23663665.6724   23663668.7024  124353408.088 7  96898775.91844
      2885.645        2248.555
  22784112.723    22784112.2944   22784115.7834  119731325.433 7  93297154.78544
      1837.041        1431.450
  23829475.924    23829475.9514   23829479.3524  125224742.949 7  97577741.59144
     -4415.393       -3440.564
  22679252.794    22679252.4024   22679254.9164  119180279.037 7  92867767.08044
     -3710.437       -2891.252
  22761402.034    22761402.1724   22761404.5664  119611977.779 7  93204159.55745
      1110.311         865.177
  22528904.857    22528904.1914   22528906.5834  118390190.054 7  92252117.61644
     -2830.545       -2205.624
  21432222.688    21432222.5614   21432224.1824  112627087.746 8  87761385.71346
     -1781.418       -1388.117
  21304698.344    21304697.6234   21304700.5544  111956945.523 8  87239196.79146
       923.813         719.854
  24221168.093    24221168.0044   24221171.5454  127283102.460 7  99181652.08744
      2839.221        2212.380
  24366671.941    24366672.2894   24366674.5764  128047722.262 6  99777472.20844
      2618.573        2040.453
  22394647.888    22394647.3044   22394651.0514  117684668.377 7  91702358.80445
     -3016.300       -2350.355
 08  4 27  9 25 30.0000000  0 12G 1G 4G 5G 9G11G12G14G17G20G30G31G32
  21704448.032    21704447.5834   21704451.1994  114057646.415 7  88876106.47946
      -893.333        -696.098
  23647226.587    23647226.5484   23647229.5204  124267020.394 6  96831460.85744
      2873.591        2239.163
  22773683.080    22773682.5854   22773686.3384  119676517.493 7  93254447.33444
      1816.870        1415.743
  23854725.070    23854724.8154   23854728.3414  125357427.024 6  97681131.76944
     -4430.138       -3452.054
  22700479.140    22700478.7824   22700481.1254  119291824.393 7  92954685.65144
     -3725.787       -2903.197
  22755126.457    22755126.4684   22755128.1694  119578996.540 7  93178459.92646
      1088.517         848.194
  22545124.195    22545123.5774   22545126.0314  118475422.969 7  92318532.86544
     -2851.577       -2222.010
  21442460.548    21442460.6744   21442462.3714  112680889.861 8  87803309.43446
     -1805.307       -1406.734
  21299489.834    21299489.1724   21299491.9894  111929575.042 7  87217869.16445
       900.975         702.060
  24204998.199    24204998.2884   24205001.4854  127198128.740 6  99115438.78744
      2825.768        2201.900
  24351759.408    24351759.3334   24351761.3864  127969350.632 7  99716403.33044
      2606.221        2030.817
  22411918.030    22411917.2494   22411920.6644  117775421.390 7  91773075.31545
     -3033.791       -2363.985
 08  4 27  9 26  0.0000000  0 12G 1G 4G 5G 9G11G12G14G17G20G30G31G32
  21709619.345    21709618.7254   21709622.0484  114084819.898 8  88897280.66345
      -918.199        -715.482
  23630858.181    23630857.6314   23630860.6974  124181000.991 7  96764432.77344
      2861.076        2229.411
  22763370.072    22763369.4134   22763372.8124  119622320.871 7  93212216.21844
      1796.278        1399.692
  23880059.285    23880058.7844   23880062.4624  125490558.163 7  97784870.31744
     -4445.192       -3463.785
  22721793.989    22721793.5004   22721795.9204  119403834.863 7  93041966.53644
     -3741.478       -2915.437
  22748975.314    22748975.3624   22748977.6674  119546674.694 7  93153274.11246
      1066.317         830.898
  22561464.405    22561464.1024   22561466.3524  118561292.081 7  92385443.78244
     -2872.994       -2238.701
  21452836.058    21452835.9574   21452837.6924  112735412.505 8  87845794.64646
     -1829.487       -1425.572
  21294412.916    21294412.3044   21294415.2364  111902895.945 8  87197080.26445
       877.688         683.914
  24188906.218    24188906.2344   24188909.8534  127113565.642 7  99049545.51244
      2811.805        2191.019
  24336916.394    24336917.0874   24336919.1614  127891355.508 6  99655628.09844
      2593.434        2020.857
  22429287.959    22429287.5094   22429291.3074  117866703.407 7  91844204.08645
     -3051.613       -2377.886
 08  4 27  9 26 30.0000000  0 12G 1G 4G 5G 9G11G12G14G17G20G30G31G32
  21714933.252    21714932.9624   21714936.3574  114112746.529 7  88919041.67245
      -943.743        -735.388
  23614561.190    23614561.7284   23614564.6934  124095365.187 6  96697703.60244
      2847.827        2219.082
  22753176.047    22753175.3784   22753178.7844  119568750.997 7  93170473.49444
      1774.870        1383.016
  23905479.991    23905479.6844   23905483.3324  125624145.763 6  97888964.55044
     -4460.801       -3475.953
  22743199.561    22743199.2354   22743201.5194  119516321.372 7  93129618.37744
     -3757.782       -2928.142
  22742953.380    22742953.2454   22742954.8374  119515026.795 7  93128613.45046
      1043.362         813.008
  22577928.012    22577927.4544   22577929.9764  118647808.636 7  92452859.30045
     -2894.968       -2255.820
  21463350.514    21463350.5964   21463352.2844  112790667.390 8  87888850.40946
     -1854.316       -1444.924
  21289470.559    21289469.8214   21289472.6984  111876923.013 7  87176841.59245
       853.677         665.198
  24172895.474    24172895.6284   24172898.9604  127029428.985 7  98983984.50244
      2797.117        2179.571
  24322149.856    24322149.5664   24322151.0654  127813751.349 7  99595157.30544
      2579.919        2010.332
  22446761.301    22446760.6044   22446764.4804  117958525.463 7  91915753.64945
     -3070.052       -2392.248
 08  4 27  9 27  0.0000000  0 12G 1G 4G 5G 9G11G12G14G17G20G30G31G32
  21720396.255    21720395.6624   21720399.2284  114141453.548 8  88941410.75745
      -969.754        -755.642
  23598344.309    23598344.3074   23598347.4374  124010143.089 6  96631296.79144
      2833.938        2208.268
  22743107.211    22743106.4934   22743109.6884  119515837.954 7  93129242.59344
      1752.932        1365.923
  23930992.127    23930992.0814   23930995.5394  125758214.056 6  97993433.33944
     -4476.784       -3488.395
  22764700.230    22764699.8834   22764702.4784  119629308.855 7  93217660.55644
     -3774.465       -2941.145
  22737064.648    22737064.6424   22737066.7864  119484082.115 7  93104500.75446
      1019.888         794.714
  22594519.592    22594519.1054   22594521.6394  118734997.636 7  92520798.74445
     -2917.348       -2273.256
  21474009.584    21474009.4784   21474011.4194  112846681.318 8  87932497.64646
     -1879.650       -1464.662
  21284667.924    21284667.1234   21284670.2184  111851685.308 8  87157175.85046
       829.143         646.088
  24156971.651    24156971.7024   24156975.2384  126945748.871 6  98918779.24744
      2781.786        2167.622
  24307462.079    24307462.2444   24307463.8894  127736568.882 7  99535015.08944
      2565.843        1999.359
  22464342.347    22464341.7674   22464345.0334  118050913.367 7  91987744.34545
     -3088.881       -2406.911
 08  4 27  9 27 30.0000000  0 12G 1G 4G 5G 9G11G12G14G17G20G30G31G32
  21726006.579    21726005.9514   21726009.4724  114170935.372 8  88964383.57646
      -995.558        -775.763
  23582204.996    23582205.4534   23582208.1984  123925331.801 6  96565210.10444
      2820.265        2197.609
  22733162.353    22733161.7264   22733165.1104  119463578.926 7  93088521.31545
      1731.143        1348.943
  23956594.583    23956594.2904   23956597.7154  125892754.631 6  98098270.15744
     -4492.437       -3500.606
  22786295.071    22786294.6654   22786297.1264  119742790.064 7  93306087.56544
     -3790.788       -2953.856
  22731309.024    22731308.9354   22731310.7484  119453837.304 7  93080933.40146
       996.544         776.530
  22611237.455    22611237.0704   22611239.7464  118822851.673 7  92589256.43645
     -2939.434       -2290.470
  21484811.572    21484811.7924   21484813.6354  112903447.505 7  87976731.04846
     -1904.662       -1484.151
  21280004.510    21280003.9214   21280006.6994  111827178.985 8  87138080.01446
       804.738         627.069
  24141134.517    24141134.5004   24141137.9534  126862523.639 7  98853928.45844
      2766.672        2155.849
  24292854.547    24292854.8064   24292856.7974  127659805.767 7  99475199.74144
      2551.844        1988.459
  22482029.071    22482028.3864   22482032.1474  118143859.295 7  92060169.76145
     -3107.397       -2421.351
 08  4 27  9 28  0.0000000  0 12G 1G 4G 5G 9G11G12G14G17G20G30G31G32
  21731760.502    21731760.0464   21731763.7774  114201173.879 8  88987946.05046
     -1020.345        -795.073
  23566141.224    23566141.7494   23566144.5074  123840916.089 6  96499431.65044
      2807.447        2187.618
  22723339.158    22723338.7094   22723342.0184  119411958.660 7  93048297.78044
      1710.241        1332.652
  23982282.412    23982282.3134   23982285.9064  126027745.751 6  98203458.03944
     -4506.949       -3511.911
  22807979.618    22807979.4984   22807981.7894  119856744.121 7  93394882.91844
     -3806.102       -2965.789
  22725684.119    22725684.1354   22725685.8044  119424276.238 8  93057898.84046
       974.190         759.105
  22628078.233    22628077.8554   22628080.4774  118911350.274 7  92658216.36545
     -2960.449       -2306.844
  21495753.537    21495753.5524   21495755.3834  112960947.003 8  88021535.82146
     -1928.634       -1502.832
  21275477.288    21275476.4944   21275479.3994  111803387.790 8  87119541.42146
       781.332         608.825
  24125381.039    24125380.9644   24125384.4614  126779737.903 7  98789420.10144
      2752.417        2144.738
  24278324.033    24278323.8574   24278325.7954  127583446.411 6  99415698.79444
      2538.732        1978.214
  22499818.210    22499817.7554   22499821.7724  118237343.605 7  92133014.65145
     -3124.874       -2434.967
 08  4 27  9 28 30.0000000  0 12G 1G 4G 5G 9G11G12G14G17G20G30G31G32
  21737655.763    21737655.0564   21737658.4164  114232151.244 8  89012084.22146
     -1045.184        -814.422
  23550149.829    23550149.9394   23550153.2474  123756881.078 6  96433949.85844
      2794.474        2177.512
  22713635.137    22713634.2504   22713637.5574  119360962.165 7  93008560.25944
      1689.183        1316.253
  24008052.369    24008051.9734   24008055.3604  126163166.705 7  98308980.85244
     -4521.443       -3523.180
  22829750.787    22829750.3394   22829752.7594  119971151.285 7  93484031.33544
     -3821.373       -2977.694
  22720185.443    22720185.4834   22720187.1534  119395383.087 7  93035384.73745
       951.658         741.551
  22645038.067    22645037.5794   22645040.2494  119000474.276 7  92727663.63745
     -2981.486       -2323.237
  21506831.502    21506831.3794   21506833.3054  113019161.300 7  88066897.61046
     -1952.643       -1521.541
  21271082.987    21271082.3354   21271084.9884  111780295.908 8  87101547.75646
       757.769         590.468
  24109707.858    24109708.2234   24109711.6514  126697377.533 7  98725243.18744
      2737.935        2133.451
  24263867.300    24263867.3514   24263869.5144  127507476.819 6  99356501.88544
      2525.517        1967.940
  22517706.779    22517706.2544   22517709.9324  118331346.627 7  92206263.62445
     -3142.381       -2448.600
 08  4 27  9 29  0.0000000  0 12G 1G 4G 5G 9G11G12G14G17G20G30G31G32
  21743691.378    21743691.0504   21743694.3624  114263870.420 8  89036800.52446
     -1069.532        -833.405
  23534232.272    23534232.0004   23534235.2544  123673232.399 6  96368769.10644
      2781.964        2167.762
  22704050.158    22704049.5984   22704053.0384  119310595.090 7  92969313.22144
      1668.529        1300.150
  24033903.696    24033903.3884   24033906.5444  126299017.132 7  98414838.33844
     -4535.268       -3533.965
  22851608.150    22851607.6554   22851610.0544  120086012.365 7  93573533.43044
     -3836.119       -2989.183
  22714815.264    22714815.4704   22714817.3904  119367163.225 8  93013395.26546
       929.598         724.361
  22662117.077    22662116.4854   22662119.0404  119090224.456 7  92797598.83045
     -3001.936       -2339.167
  21518045.581    21518045.5824   21518047.4894  113078092.342 7  88112817.90646
     -1976.166       -1539.867
  21266822.590    21266821.8974   21266824.5644  111757907.390 8  87084102.12645
       734.675         572.476
  24094117.683    24094117.6784   24094121.3494  126615448.570 7  98661402.40644
      2723.881        2122.505
  24249485.878    24249486.4204   24249487.3994  127431902.070 7  99297612.54244
      2512.679        1957.933
  22535694.064    22535693.5534   22535697.1284  118425870.125 7  92279918.32745
     -3159.232       -2461.736
 08  4 27  9 29 30.0000000  0 12G 1G 4G 5G 9G11G12G14G17G20G30G31G32
  21749863.690    21749863.3024   21749866.8444  114296306.566 8  89062075.48646
     -1093.015        -851.708
  23518383.491    23518383.7374   23518386.6354  123589948.165 6  96303872.32544
      2770.202        2158.595
  22694581.737    22694580.7074   22694584.1264  119260835.647 7  92930539.67144
      1648.617        1284.632
  24059831.534    24059831.0704   24059834.3804  126435269.100 7  98521008.69544
     -4548.280       -3544.105
  22873546.811    22873546.2844   22873549.0054  120201300.775 7  93663368.46944
     -3849.920       -2999.934
  22709569.494    22709569.2644   22709570.6414  119339593.670 7  92991912.54046
       908.253         707.728
  22679309.829    22679309.4754   22679311.9284  119180574.430 7  92868001.41145
     -3021.538       -2354.447
  21529391.272    21529391.3074   21529393.2524  113137714.719 8  88159276.90246
     -1998.810       -1557.515
  21262691.760    21262691.0524   21262693.7264  111736199.555 7  87067186.94246
       712.383         555.098
  24078604.753    24078605.2194   24078608.6914  126533930.047 6  98597881.53344
      2710.532        2112.105
  24235174.904    24235175.2484   24235177.2454  127356700.844 6  99239014.30444
      2500.576        1948.505
  22553775.175    22553774.6054   22553778.2444  118520887.623 7  92353958.00345
     -3175.321       -2474.274
 08  4 27  9 30  0.0000000  0 12G 1G 4G 5G 9G11G12G14G17G20G30G31G32
  21756169.221    21756168.7734   21756172.1894  114329442.162 8  89087895.47546
     -1116.394        -869.914
  23502601.424    23502602.0454   23502604.8084  123507013.692 6  96239248.10244
      2758.398        2149.398
  22685225.290    22685224.6124   22685228.1024  119211669.048 7  92892228.04244
      1628.743        1269.145
  24085832.181    24085831.8284   24085835.1464  126571902.492 6  98627476.26144
     -4560.979       -3554.017
  22895562.819    22895562.4774   22895565.1624  120316997.002 7  93753521.29444
     -3863.533       -3010.541
  22704443.121    22704443.2284   22704445.6564  119312659.011 7  92970924.53646
       886.986         691.156
  22696613.370    22696613.0624   22696615.6264  119271504.811 7  92938856.24245
     -3040.913       -2369.549
  21540865.072    21540865.1204   21540866.9914  113198009.958 7  88206260.22846
     -2021.247       -1574.997
  21258687.356    21258686.6494   21258689.4774  111715156.615 8  87050789.83746
       690.095         537.734
  24063167.702    24063168.0054   24063171.4064  126452807.473 7  98534669.22744
      2697.195        2101.713
  24220933.795    24220933.7884   24220935.1534  127281858.516 7  99180695.60444
      2488.537        1939.130
  22571946.765    22571946.1514   22571949.7764  118616379.582 7  92428367.28245
     -3191.188       -2486.654
 08  4 27  9 30 30.0000000  0 12G 1G 4G 5G 9G11G12G14G17G20G30G31G32
  21762608.412    21762607.8804   21762611.1674  114363279.865 8  89114262.54346
     -1139.495        -887.917
  23486887.835    23486887.5594   23486890.6734  123424434.662 7  96174900.81244
      2746.764        2140.333
  22675983.100    22675982.2804   22675985.9434  119163101.020 7  92854382.85644
      1609.054        1253.804
  24111905.265    24111905.0164   24111907.9564  126708916.831 7  98734240.67744
     -4573.316       -3563.615
  22917656.974    22917656.7744   22917659.0874  120433101.870 7  93843992.56744
     -3876.844       -3020.926
  22699439.740    22699439.7544   22699441.4554  119286364.189 7  92950435.09746
       865.967         674.781
  22714027.403    22714026.9754   22714029.5954  119363016.047 7  93010163.71745
     -3059.923       -2384.356
  21552467.323    21552467.3234   21552469.1094  113258980.084 8  88253769.42546
     -2043.437       -1592.289
  21254810.382    21254809.7974   21254812.6514  111694783.207 8  87034914.41946
       668.067         520.576
  24047807.089    24047807.2734   24047810.8914  126372087.224 7  98471770.41044
      2684.058        2091.472
  24206760.428    24206760.4244   24206762.7424  127207381.141 6  99122661.34044
      2476.628        1929.837
  22590208.951    22590208.3374   22590211.8844  118712347.574 7  92503147.63745
     -3206.695       -2498.723
 08  4 27  9 31  0.0000000  0 12G 1G 4G 5G 9G11G12G14G17G20G30G31G32
  21769177.766    21769177.2954   21769180.7234  114397802.318 8  89141163.05446
     -1162.015        -905.467
  23471238.199    23471238.3364   23471241.3844  123342197.099 6  96110819.61744
      2735.727        2131.741
  22666851.802    22666851.3874   22666854.5454  119115117.134 7  92816992.75944
      1589.834        1238.833
  24138046.804    24138046.4894   24138049.7204  126846292.064 6  98841286.30944
     -4584.979       -3572.715
  22939824.764    22939824.8424   22939827.2954  120549596.277 7  93934767.42744
     -3889.423       -3030.716
  22694554.877    22694554.8664   22694556.9124  119260694.259 7  92930432.59246
       845.416         658.767
  22731548.288    22731547.9834   22731550.6144  119455089.456 7  93081909.22145
     -3078.324       -2398.698
  21564194.608    21564194.6324   21564196.3554  113320607.103 7  88301790.44546
     -2064.994       -1609.084
  21251058.022    21251057.3554   21251060.1724  111675063.992 7  87019548.77246
       646.563         503.819
  24032520.786    24032520.7834   24032524.2034  126291755.758 7  98409174.53544
      2671.370        2081.581
  24192655.306    24192655.4244   24192657.3304  127133254.739 7  99064900.53644
      2465.173        1920.917
  22608557.786    22608557.2774   22608560.7394  118808772.593 7  92578283.99145
     -3221.583       -2510.317
 08  4 27  9 31 30.0000000  0 12G 1G 4G 5G 9G11G12G14G17G20G30G31G32
  21775877.030    21775876.4644   21775879.6464  114433006.382 8  89168594.87846
     -1184.689        -923.138
  23455653.663    23455653.8714   23455656.8654  123260300.135 6  96047003.83144
      2724.328        2122.857
  22657832.036    22657831.2724   22657834.7314  119067716.864 7  92780057.44044
      1570.365        1223.663
  24164255.639    24164255.6154   24164258.8384  126984021.777 6  98948608.15344
     -4596.763       -3581.894
  22962066.225    22962065.9844   22962068.4184  120666474.486 7  94025841.32344
     -3902.188       -3040.660
  22689788.249    22689788.2414   22689790.2624  119235647.705 7  92910915.84445
       824.576         642.527
  22749175.069    22749174.8414   22749177.4314  119547719.682 7  93154088.62945
     -3096.848       -2413.133
  21576046.101    21576046.0094   21576047.7384  113382886.518 8  88350319.79146
     -2086.711       -1626.000
  21247429.613    21247428.8944   21247431.8254  111655996.814 8  87004691.14946
       624.789         486.853
  24017307.927    24017307.7454   24017311.3004  126211812.494 6  98346881.18144
      2658.378        2071.467
  24178615.646    24178615.4804   24178618.0714  127059478.725 6  99007412.79544
      2453.476        1911.808
  22626992.702    22626992.2744   22626995.9904  118905649.597 7  92653772.57545
     -3236.656       -2522.073
 08  4 27  9 32  0.0000000  0 12G 1G 4G 5G 9G11G12G14G17G20G30G31G32
  21782703.043    21782702.8194   21782706.1664  114468879.685 8  89196548.14646
     -1206.706        -940.287
  23440132.611    23440132.5834   23440135.2404  123178734.931 7  95983446.54844
      2713.493        2114.414
  22648921.223    22648920.7874   22648923.9294  119020891.166 7  92743569.86444
      1551.478        1208.939
  24190529.528    24190529.2984   24190532.5534  127122090.790 6  99056194.37844
     -4607.682       -3590.386
  22984377.994    22984377.7744   22984380.1084  120783722.705 7  94117203.53544
     -3914.194       -3050.014
  22685139.154    22685139.1034   22685140.9694  119211214.698 7  92891877.17546
       804.445         626.840
  22766905.271    22766905.2574   22766907.7754  119640892.861 7  93226691.04045
     -3114.556       -2426.926
  21588018.937    21588019.0554   21588021.0614  113445805.620 8  88399347.59646
     -2107.706       -1642.370
  21243923.707    21243922.8654   21243925.8654  111637572.529 7  86990334.56646
       603.634         470.366
  24002167.077    24002167.3554   24002170.9044  126132249.367 7  98284883.98444
      2645.970        2061.793
  24164641.982    24164642.0784   24164643.9404  126986044.336 7  98950191.27444
      2442.337        1903.111
  22645512.164    22645511.2014   22645514.3574  119002964.806 7  92729602.47045
     -3250.882       -2533.152
 08  4 27  9 32 30.0000000  0 12G 1G 4G 5G 9G11G12G14G17G20G30G31G32
  21789656.471    21789655.9004   21789659.3524  114505419.244 8  89225020.67946
     -1228.717        -957.436
  23424674.330    23424674.1024   23424677.0864  123097501.162 7  95920147.52644
      2702.531        2105.875
  22640119.937    22640119.2064   22640122.9144  118974639.743 7  92707529.81844
      1532.451        1194.119
  24216866.869    24216866.3784   24216869.7104  127260493.130 7  99164040.35744
     -4618.588       -3598.906
  23006759.011    23006758.8514   23006761.2304  120901335.656 7  94208849.94644
     -3926.150       -3059.338
  22680606.034    22680606.1574   22680607.8544  119187394.128 7  92873315.73646
       784.102         610.990
  22784737.955    22784737.6874   22784740.5794  119734604.195 7  93299712.84145
     -3132.312       -2440.765
  21600113.079    21600113.0904   21600115.0754  113509360.509 8  88448870.87146
     -2128.757       -1658.771
  21240539.318    21240538.6064   21240541.6214  111619788.749 8  86976477.07246
       582.429         453.842
  23987099.430    23987099.4184   23987102.8434  126053066.914 7  98223183.44044
      2633.351        2051.960
  24150732.319    24150732.2004   24150735.1964  126912951.201 6  98893235.61144
      2431.027        1894.308
  22664112.658    22664112.1434   22664115.5494  119100713.848 7  92805770.45845
     -3265.154       -2544.267
 08  4 27  9 33  0.0000000  0 12G 1G 4G 5G 9G11G12G14G17G20G30G31G32
  21796734.216    21796733.6894   21796737.0864  114542612.922 8  89254002.77746
     -1250.775        -974.630
  23409277.554    23409277.2444   23409280.5194  123016590.228 6  95857100.06544
      2691.577        2097.330
  22631426.254    22631425.3354   22631429.2294  118928953.741 7  92671930.40044
      1513.314        1179.200
  24243264.399    24243263.9854   24243267.6184  127399214.229 7  99272134.70444
     -4629.369       -3607.304
  23029207.108    23029206.5184   23029208.9304  121019299.845 7  94300770.09544
     -3938.071       -3068.627
  22676187.836    22676187.8364   22676189.8184  119164176.335 8  92855223.97646
       763.766         595.143
  22802670.262    22802670.2384   22802672.7814  119828839.910 7  93373143.29345
     -3150.011       -2454.552
  21612325.859    21612325.6984   21612327.8644  113573538.625 8  88498879.75746
     -2149.703       -1675.091
  21237275.245    21237274.6104   21237277.5934  111602636.005 8  86963111.28545
       561.145         437.256
  23972102.229    23972102.4154   23972105.5584  125974256.841 6  98161773.08244
      2620.666        2042.078
  24136886.971    24136886.9414   24136888.4824  126840191.480 7  98836539.83144
      2419.673        1885.463
  22682793.331    22682792.9344   22682796.5714  119198883.710 7  92882266.54045
     -3279.443       -2555.421
 08  4 27  9 33 30.0000000  0 12G 1G 4G 5G 9G11G12G14G17G20G30G31G32
  21803934.480    21803933.9194   21803937.2974  114580450.525 8  89283486.63446
     -1271.870        -991.065
  23393940.585    23393940.6794   23393943.4414  122935994.676 7  95794298.37444
      2681.332        2089.346
  22622838.583    22622837.8974   22622841.3994  118883825.658 7  92636765.67844
      1495.074        1164.986
  24269720.309    24269720.0174   24269723.3894  127538240.843 6  99380467.11544
     -4639.110       -3614.880
  23051719.162    23051718.8184   23051721.0094  121137603.086 7  94392954.55544
     -3948.935       -3077.094
  22671883.054    22671883.1114   22671884.6304  119141553.278 7  92837595.65846
       744.305         579.979
  22820700.466    22820700.0314   22820702.7134  119923587.698 7  93446972.77445
     -3166.631       -2467.504
  21624654.880    21624654.9374   21624656.9834  113638328.435 7  88549365.27446
     -2169.713       -1690.678
  21234129.743    21234129.0964   21234132.1374  111586105.699 7  86950230.46046
       540.748         421.363
  23957174.295    23957174.7184   23957178.2094  125895812.069 6  98100647.34644
      2608.791        2032.821
  24123102.841    24123103.0824   24123105.3154  126767757.554 7  98780097.86044
      2409.098        1877.213
  22701552.892    22701551.9514   22701555.4924  119297462.050 7  92959080.80945
     -3292.599       -2565.661
 08  4 27  9 34  0.0000000  0 12G 1G 4G 5G 9G11G12G14G17G20G30G31G32
  21811253.892    21811253.5354   21811256.9064  114618915.021 8  89313458.85546
     -1292.654       -1007.266
  23378660.711    23378661.0754   23378663.9484  122855700.906 7  95731731.82444
      2671.367        2081.583
  22614354.551    22614354.1114   22614357.1514  118839241.764 7  92602025.02344
      1476.979        1150.887
  24296230.799    24296230.3124   24296233.5194  127677553.555 7  99489022.46344
     -4648.496       -3622.202
  23074292.632    23074292.1444   23074294.3274  121256226.682 7  94485388.54444
     -3959.458       -3085.292
  22667688.257    22667688.1874   22667690.1194  119119510.388 8  92820419.42646
       725.046         564.966
  22838824.237    22838823.8204   22838826.6654  120018829.466 7  93521187.17845
     -3182.945       -2480.219
  21637097.074    21637097.1204   21637099.2554  113703712.907 7  88600314.21046
     -2189.400       -1706.029
  21231099.822    21231099.0394   21231102.0494  111570182.673 8  86937822.86946
       520.604         405.661
  23942313.988    23942314.0604   23942317.5264  125817719.478 7  98039796.06244
      2597.173        2023.769
  24109378.391    24109378.7534   24109380.9434  126695636.171 6  98723899.44744
      2398.823        1869.219
  22720386.029    22720385.2824   22720388.7424  119396430.728 7  93036199.28945
     -3305.459       -2575.684
 08  4 27  9 34 30.0000000  0 12G 1G 4G 5G 9G11G12G14G17G20G30G31G32
  21818683.718    21818682.9364   21818686.3884  114657957.392 8  89343881.58746
     -1311.527       -1021.963
  23363430.233    23363430.3344   23363433.1164  122775662.302 7  95669364.10444
      2663.202        2075.219
  22605964.898    22605964.3074   22605967.8854  118795155.278 7  92567671.95344
      1460.731        1138.229
  24322785.448    24322785.0224   24322788.2944  127817099.558 7  99597759.59644
     -4655.886       -3627.960
  23096917.045    23096916.6264   23096918.8484  121375119.159 7  94578032.02044
     -3968.007       -3091.954
  22663594.973    22663594.9324   22663596.5784  119097999.885 8  92803658.04046
       707.615         551.389
  22857032.233    22857032.1744   22857034.7174  120114513.600 7  93595746.26145
     -3197.309       -2491.410
  21649642.953    21649642.9844   21649644.8714  113769641.549 7  88651687.22946
     -2207.199       -1719.893
  21228176.303    21228175.5874   21228178.4554  111554819.433 8  86925851.54046
       502.233         391.349
  23927511.927    23927511.8544   23927514.8954  125739933.047 7  97979183.32644
      2587.220        2016.022
  24095704.706    24095704.7704   24095707.2504  126623780.591 7  98667908.16544
      2390.170        1862.479
  22739283.537    22739282.9864   22739286.3974  119495738.667 7  93113582.10345
     -3316.427       -2584.223
 08  4 27  9 35  0.0000000  0 12G 1G 4G 5G 9G11G12G14G17G20G30G31G32
  21826229.679    21826229.1174   21826232.4864  114697612.832 8  89374781.91146
     -1333.155       -1038.821
  23348255.257    23348255.3264   23348258.2944  122695917.990 7  95607225.69144
      2652.137        2066.592
  22597678.020    22597677.0584   22597680.4824  118751605.005 7  92533736.70944
      1441.636        1123.345
  24349390.812    24349390.3854   24349393.7394  127956912.147 7  99706704.46744
     -4665.930       -3635.794
  23119599.157    23119598.7994   23119601.2844  121494314.558 7  94670911.51544
     -3979.320       -3100.774
  22659610.354    22659610.2424   22659611.8914  119077059.880 8  92787341.19746
       687.398         535.629
  22875331.289    22875330.8234   22875333.5864  120210674.257 7  93670676.60945
     -3214.363       -2504.694
  21662298.912    21662298.9314   21662300.8844  113836149.312 7  88703511.49046
     -2227.645       -1735.828
  21225366.267    21225365.6554   21225368.5674  111540053.953 8  86914346.06646
       481.134         374.905
  23912775.137    23912775.1754   23912778.7104  125662492.189 7  97918839.79444
      2574.460        2006.069
  24082089.129    24082089.0264   24082091.7794  126552230.215 6  98612154.63844
      2378.814        1853.619
  22758251.745    22758251.2524   22758255.2494  119595420.329 7  93191256.09245
     -3330.001       -2594.811
 08  4 27  9 35 30.0000000  0 12G 1G 4G 5G 9G11G12G14G17G20G30G31G32
  21833898.736    21833898.2384   21833901.7094  114737914.406 7  89406185.67346
     -1353.453       -1054.637
  23333143.555    23333143.4484   23333146.3694  122616503.969 7  95545344.66344
      2642.299        2058.933
  22589499.222    22589498.4754   22589502.1304  118708626.834 7  92500247.21644
      1423.719        1109.390
  24376052.756    24376052.2714   24376055.3884  128097021.803 7  99815880.80044
     -4674.495       -3642.465
  23142344.680    23142344.6294   23142347.0164  121613844.227 7  94764051.48844
     -3989.147       -3108.442
  22655740.110    22655740.1224   22655742.2564  119056725.616 7  92771496.34546
       668.398         520.826
  22893726.432    22893726.1684   22893728.9504  120307342.490 7  93746002.45145
     -3229.993       -2516.878
  21675071.104    21675071.1224   21675073.1804  113903268.174 7  88755811.91346
     -2246.786       -1750.741
  21222676.861    21222676.1654   21222679.0854  111525920.522 8  86903333.01246
       461.265         359.428
  23898111.567    23898111.7424   23898115.0114  125585433.732 6  97858794.25444
      2562.904        1997.067
  24068538.557    24068538.3954   24068540.8244  126481021.314 7  98556667.26644
      2368.599        1845.654
  22777297.834    22777297.3274   22777301.2074  119695507.331 7  93269245.94845
     -3342.264       -2604.357
 08  4 27  9 36  0.0000000  0 11G 1G 4G 5G11G12G14G17G20G30G31G32
  21841682.961    21841682.4954   21841685.9614  114778820.994 8  89438060.84546
     -1373.427       -1070.205
  23318086.759    23318086.7974   23318090.1034  122537382.172 6  95483691.33744
      2632.743        2051.495
  22581422.513    22581421.8794   22581425.3404  118666182.625 7  92467173.81744
      1406.096        1095.658
  23165146.012    23165145.7034   23165148.0364  121733664.899 7  94857418.24144
     -3998.635       -3115.813
  22651978.632    22651978.5774   22651980.7434  119036957.931 8  92756092.98346
       649.693         506.251
  22912210.410    22912210.0474   22912212.8994  120404475.685 7  93821690.64844
     -3245.247       -2528.771
  21687951.840    21687951.8294   21687953.8464  113970956.265 7  88808555.85346
     -2265.524       -1765.342
  21220100.182    21220099.4874   21220102.3434  111512380.102 8  86892782.05046
       441.680         344.167
  23883513.188    23883513.2204   23883516.5894  125508719.882 6  97799017.23544
      2551.554        1988.227
  24055045.109    24055044.9914   24055048.3754  126410116.323 6  98501416.88244
      2358.621        1837.890
  22796413.009    22796412.3094   22796416.2194  119795956.875 7  93347518.30945
     -3354.148       -2613.618
 08  4 27  9 36 30.0000000  0 11G 1G 4G 5G11G12G14G17G20G30G31G32
  21849579.310    21849578.7524   21849582.2574  114820315.599 8  89470394.22746
     -1392.886       -1085.368
  23303083.245    23303083.6094   23303086.4594  122458538.769 7  95422254.93344
      2623.493        2044.283
  22573444.683    22573443.8254   22573447.3224  118624258.203 7  92434505.44144
      1388.833        1082.203
  23187999.142    23187998.5344   23188001.0754  121853757.903 7  94950997.19844
     -4007.557       -3122.773
  22648322.121    22648322.0094   22648323.8144  119017741.904 7  92741119.47746
       631.342         491.953
  22930778.953    22930778.6044   22930781.4694  120502054.970 7  93897726.47944
     -3259.988       -2540.247
  21700937.526    21700937.5354   21700939.4494  114039195.708 7  88861729.31646
     -2283.751       -1779.537
  21217633.491    21217632.7694   21217635.6434  111499417.057 8  86882680.97246
       422.502         329.221
  23868978.364    23868978.4584   23868981.6204  125432337.267 7  97739498.38044
      2540.529        1979.629
  24041607.906    24041608.0644   24041609.3334  126339500.671 6  98446391.74844
      2349.004        1830.386
  22815593.357    22815592.7854   22815596.6284  119896750.610 7  93426058.87745
     -3365.435       -2622.421
 08  4 27  9 37  0.0000000  0 11G 1G 4G 5G11G12G14G17G20G30G31G32
  21857585.839    21857585.4354   21857588.8824  114862390.916 8  89503180.19346
     -1412.316       -1100.510
  23288132.426    23288132.3764   23288135.1324  122379969.632 7  95361032.23844
      2614.238        2037.075
  22565564.329    22565563.8114   22565567.3944  118582849.075 7  92402238.53844
      1371.553        1068.757
  23210901.814    23210901.4374   23210903.9084  121974114.201 7  95044781.38944
     -4016.385       -3129.638
  22644768.814    22644768.8554   22644771.1694  118999072.352 7  92726571.78746
       613.024         477.687
  22949431.025    22949430.7944   22949433.3444  120600071.118 7  93974102.66144
     -3274.602       -2551.642
  21714026.328    21714026.4994   21714028.3294  114107978.841 7  88915326.62346
     -2301.956       -1793.732
  21215275.391    21215274.7774   21215277.6644  111487026.125 8  86873025.70346
       403.364         314.312
  23854505.198    23854505.4734   23854508.4894  125356282.081 6  97680234.62244
      2529.535        1971.064
  24028223.687    24028223.8654   24028227.1384  126269170.666 6  98391589.15444
      2339.422        1822.932
  22834837.401    22834836.9824   22834840.9214  119997879.836 7  93504860.90245
     -3376.652       -2631.154
 08  4 27  9 37 30.0000000  0 11G 1G 4G 5G11G12G14G17G20G30G31G32
  21865701.765    21865701.2104   21865704.7914  114905040.038 7  89536413.32446
     -1431.432       -1115.406
  23273232.734    23273232.8184   23273235.5094  122301671.148 6  95300020.44944
      2605.232        2030.053
  22557782.186    22557781.3734   22557784.9134  118541951.573 7  92370370.33244
      1354.448        1055.418
  23233853.261    23233852.9334   23233855.5114  122094725.221 7  95138763.91644
     -4024.824       -3136.228
  22641319.314    22641319.4704   22641321.5434  118980944.927 7  92712446.53046
       594.945         463.590
  22968164.410    22968163.9794   22968166.6634  120698515.858 7  94050812.85944
     -3288.862       -2562.756
  21727217.332    21727217.3094   21727219.2384  114177297.634 7  88969341.33446
     -2319.778       -1807.627
  21213025.481    21213024.7434   21213027.5984  111475201.994 7  86863812.10846
       384.446         299.567
  23840094.268    23840094.2644   23840097.3714  125280551.522 7  97621223.82844
      2518.704        1962.626
  24014895.209    24014895.3634   24014896.6544  126199122.783 7  98337006.26744
      2329.919        1815.536
  22854143.868    22854143.3264   22854147.3064  120099336.288 7  93583917.86745
     -3387.547       -2639.647
 08  4 27  9 38  0.0000000  0 11G 1G 4G 5G11G12G14G17G20G30G31G32
  21873927.303    21873926.4614   21873930.1604  114948264.462 8  89570094.74646
     -1450.350       -1130.147
  23258385.459    23258385.3314   23258388.0074  122223648.194 7  95239223.35344
      2596.163        2022.985
  22550097.635    22550096.8474   22550100.5224  118501570.488 7  92338904.57344
      1337.453        1042.173
  23256853.111    23256853.1184   23256855.4954  122215590.964 7  95232944.96244
     -4033.046       -3142.630
  22637974.234    22637974.1444   22637975.9974  118963363.220 7  92698746.52646
       577.018         449.622
  22986979.277    22986979.0994   22986981.6534  120797389.090 7  94127856.91744
     -3302.802       -2573.608
  21740510.433    21740510.3384   21740512.2794  114247153.041 7  89023774.15946
     -2337.388       -1821.344
  21210884.062    21210883.2384   21210886.0804  111463948.523 8  86855043.18746
       365.659         284.929
  23825745.872    23825745.9404   23825749.4134  125205150.954 6  97562470.17444
      2507.885        1954.198
  24001619.291    24001619.6784   24001622.2694  126129362.765 6  98282647.75344
      2320.565        1808.231
  22873512.745    22873512.1214   22873516.3864  120201120.360 7  93663230.13545
     -3398.201       -2647.947
 08  4 27  9 38 30.0000000  0 11G 1G 4G 5G11G12G14G17G20G30G31G32
  21882259.794    21882259.2654   21882262.8934  114992053.214 8  89604215.86546
     -1468.939       -1144.628
  23243589.128    23243588.9834   23243591.8084  122145893.016 7  95178634.90644
      2587.395        2016.155
  22542510.189    22542509.4134   22542512.7714  118461697.770 7  92307834.96145
      1320.675        1029.098
  23279899.642    23279899.0564   23279901.6194  122336698.841 7  95327314.65944
     -4040.864       -3148.717
  22634730.429    22634730.4814   22634732.4134  118946318.544 7  92685464.98746
       559.253         435.779
  23005873.345    23005872.9194   23005875.7734  120896678.201 7  94205225.01544
     -3316.494       -2584.280
  21753903.193    21753903.2294   21753905.1954  114317533.216 7  89078615.79146
     -2354.652       -1834.791
  21208849.319    21208848.5454   21208851.4924  111453256.663 8  86846711.88346
       347.094         270.461
  23811458.994    23811458.9974   23811462.0684  125130073.133 6  97503968.07344
      2497.256        1945.906
  23988399.231    23988399.0584   23988400.9854  126059882.427 7  98228507.14044
      2311.349        1801.047
  22892942.149    22892941.3424   22892945.2064  120303219.655 7  93742787.93145
     -3408.509       -2655.988
 08  4 27  9 39  0.0000000  0 11G 1G 4G 5G11G12G14G17G20G30G31G32
  21890698.986    21890698.4554   21890702.1954  115036401.892 8  89638773.27846
     -1487.830       -1159.343
  23228843.314    23228843.3624   23228846.3544  122068404.525 7  95118254.28044
      2578.275        2009.042
  22535018.918    22535018.2014   22535022.1144  118422331.907 7  92277160.32345
      1303.467        1015.691
  23302990.730    23302990.2944   23302992.8494  122458042.200 7  95421867.62744
     -4048.937       -3155.021
  22631588.676    22631588.6974   22631590.6954  118929808.524 7  92672600.04146
       541.201         421.712
  23024845.632    23024845.0904   23024847.6354  120996377.106 7  94282912.48744
     -3330.312       -2595.037
  21767395.079    21767394.9854   21767397.0804  114388433.009 7  89133862.30746
     -2372.189       -1848.462
  21206921.144    21206920.2794   21206923.2184  111443123.579 8  86838815.97246
       328.205         255.743
  23797233.290    23797233.2584   23797236.6344  125055317.057 6  97445716.61044
      2486.221        1937.312
  23975229.373    23975229.6884   23975231.8894  125990681.267 6  98174584.15444
      2301.833        1793.639
  22912429.731    22912429.0254   22912433.2234  120405628.720 7  93822587.23045
     -3419.001       -2664.163
 08  4 27  9 39 30.0000000  0 11G 1G 4G 5G11G12G14G17G20G30G31G32
  21899245.358    21899244.9144   21899248.4954  115081313.216 8  89673769.05646
     -1506.508       -1173.901
  23214149.975    23214149.8054   23214152.7684  121991188.948 7  95058086.29544
      2569.137        2001.931
  22527625.323    22527624.7784   22527628.2554  118383478.592 7  92246885.01445
      1286.447        1002.423
  23326126.720    23326126.4414   23326128.6894  122579624.116 7  95516607.10844
     -4056.729       -3161.093
  22628549.790    22628549.7574   22628551.6864  118913838.263 8  92660155.68646
       523.238         407.719
  23043895.840    23043895.3884   23043898.0674  121096486.878 7  94360920.07544
     -3343.916       -2605.647
  21780986.076    21780986.0734   21780988.1674  114459854.443 7  89189515.32746
     -2389.475       -1861.931
  21205100.069    21205099.2774   21205102.3534  111433554.036 8  86831359.20746
       309.484         241.156
  23783069.892    23783070.0534   23783073.5674  124980889.512 6  97387721.13644
      2475.306        1928.808
  23962115.111    23962115.3144   23962118.1224  125921765.651 6  98120883.82344
      2292.315        1786.207
  22931976.405    22931975.8124   22931979.8844  120508348.993 7  93902629.09345
     -3429.273       -2672.156
 08  4 27  9 40  0.0000000  0 11G 1G 4G 5G11G12G14G17G20G30G31G32
  21907900.606    21907900.1034   21907903.8424  115126797.127 8  89709211.08646
     -1525.649       -1188.817
  23199510.539    23199510.2824   23199513.3954  121914259.216 7  94998141.06244
      2559.551        1994.447
  22520332.120    22520331.3694   22520334.8094  118345150.665 7  92217019.11045
      1268.827         988.690
  23349309.208    23349309.0604   23349311.5054  122701450.706 7  95611536.92644
     -4064.959       -3167.503
  22625615.417    22625615.5294   22625617.5214  118898419.576 7  92648141.13346
       504.742         393.303
  23063025.810    23063025.3304   23063027.9564  121197015.873 7  94439254.35244
     -3357.874       -2616.519
  21794678.087    21794678.1154   21794680.3094  114531806.954 7  89245582.22046
     -2407.226       -1875.761
  21203388.328    21203387.6494   21203390.6624  111424559.555 8  86824350.54746
       290.238         226.158
  23768972.429    23768972.2224   23768975.4504  124906804.303 6  97329992.40644
      2463.815        1919.859
  23949058.682    23949058.4004   23949059.6634  125853148.074 7  98067415.66144
      2282.237        1778.358
  22951583.563    22951583.2254   22951587.3504  120611388.642 7  93982919.70145
     -3439.914       -2680.454
 08  4 27  9 40 30.0000000  0 11G 1G 4G 5G11G12G14G17G20G30G31G32
  21916662.574    21916662.1424   21916665.5994  115172841.264 8  89745089.64146
     -1543.981       -1203.101
  23184923.857    23184923.8274   23184926.7344  121837606.494 7  94938411.67944
      2550.610        1987.485
  22513136.298    22513135.5784   22513139.3724  118307339.111 7  92187555.60745
      1251.886         975.497
  23372536.303    23372536.0414   23372538.5454  122823508.727 7  95706646.97244
     -4072.322       -3173.252
  22622784.717    22622784.6804   22622786.5954  118883542.499 7  92636548.60146
       486.996         379.479
  23082233.066    23082232.4774   23082234.9904  121297949.946 7  94517904.26844
     -3371.031       -2626.772
  21808468.848    21808468.7174   21808470.9084  114604277.404 7  89302052.68646
     -2424.156       -1888.953
  21201784.262    21201783.4954   21201786.5554  111416130.144 8  86817782.20346
       271.695         211.710
  23754938.137    23754938.1584   23754941.1384  124833053.006 7  97272523.83744
      2452.923        1911.371
  23936054.559    23936054.7374   23936058.0484  125784820.405 6  98014173.57144
      2272.869        1771.058
  22971250.182    22971249.5374   22971253.4694  120714734.521 7  94063448.94845
     -3449.809       -2688.165
 08  4 27  9 41  0.0000000  0 11G 1G 4G 5G11G12G14G17G20G30G31G32
  21925530.810    21925530.3864   21925533.9814  115219444.306 8  89781403.70446
     -1562.823       -1217.782
  23170390.515    23170390.5784   23170393.4634  121761233.050 6  94878899.91944
      2541.024        1980.016
  22506039.591    22506039.0984   22506042.8164  118270045.450 7  92158495.58445
      1234.314         961.801
  23395806.614    23395806.5494   23395808.7604  122945795.950 7  95801935.77944
     -4080.094       -3179.283
  22620057.190    22620057.1014   22620058.7714  118869207.965 7  92625378.82646
       468.701         365.222
  23101516.501    23101516.4144   23101518.8514  121399286.563 7  94596867.85644
     -3384.646       -2637.389
  21822357.701    21822357.7054   21822359.7164  114677263.428 7  89358924.91646
     -2441.518       -1902.477
  21200287.928    21200287.1594   21200290.0054  111408266.263 8  86811654.53046
       252.610         196.833
  23740967.724    23740967.6184   23740971.0024  124759638.570 7  97215317.81244
      2441.382        1902.369
  23923108.884    23923109.2044   23923109.6514  125716784.450 7  97961158.56644
      2262.879        1763.283
  22990974.077    22990973.3134   22990977.0974  120818384.183 7  94144214.96145
     -3460.140       -2696.213
 08  4 27  9 41 30.0000000  0 11G 1G 4G 5G11G12G14G17G20G30G31G32
  21934506.128    21934505.3924   21934508.9354  115266608.653 8  89818155.13046
     -1581.398       -1232.261
  23155910.827    23155911.3164   23155914.3884  121685144.466 7  94819610.11944
      2531.629        1972.708
  22499042.396    22499041.8374   22499045.5854  118233275.098 7  92129843.28244
      1217.051         948.354
  23419120.750    23419120.7704   23419123.2194  123068312.491 7  95897403.16544
     -4087.588       -3185.149
  22617433.064    22617433.0204   22617435.1644  118855420.642 7  92614635.45946
       450.575         351.098
  23120877.172    23120876.7924   23120879.3824  121501026.579 7  94676145.81044
     -3397.932       -2647.735
  21836345.065    21836345.0394   21836347.0404  114750766.844 7  89416200.23146
     -2458.622       -1915.809
  21198899.753    21198899.0314   21198901.9684  111400971.856 8  86805970.60346
       233.759         182.151
  23727062.347    23727062.4394   23727065.9024  124686566.559 6  97158378.55844
      2430.114        1893.603
  23910218.765    23910218.6794   23910221.1614  125649046.040 7  97908375.36144
      2253.074        1755.650
  23010756.005    23010755.2224   23010759.1504  120922338.625 7  94225218.44645
     -3470.070       -2703.944
 08  4 27  9 42  0.0000000  0 11G 1G 4G 5G11G12G14G17G20G30G31G32
  21943585.286    21943584.9544   21943588.5674  115314321.764 8  89855334.15846
     -1599.603       -1246.441
  23141484.642    23141484.6204   23141487.5344  121609331.734 7  94760535.27944
      2522.474        1965.566
  22492143.219    22492142.5514   22492146.4064  118197018.610 7  92101591.42945
      1199.963         935.034
  23442476.054    23442475.7144   23442478.3554  123191044.481 7  95993038.52644
     -4094.639       -3190.626
  22614911.394    22614911.4144   22614913.6054  118842170.155 7  92604310.40046
       432.686         337.158
  23140311.544    23140311.0054   23140313.7714  121603155.552 7  94755726.80044
     -3410.843       -2657.796
  21850428.273    21850428.1994   21850430.1294  114824774.467 7  89473868.50146
     -2475.309       -1928.794
  21197617.873    21197617.2574   21197620.1854  111394236.339 8  86800722.14046
       215.150         167.649
  23713220.704    23713221.0724   23713224.1694  124613828.771 7  97101699.80244
      2418.888        1884.845
  23897382.107    23897382.6314   23897384.0614  125581596.830 6  97855817.67144
      2243.406        1748.099
  23030593.062    23030592.7074   23030596.4424  121026583.911 7  94306448.49645
     -3479.746       -2711.490
 08  4 27  9 42 30.0000000  0 11G 1G 4G 5G11G12G14G17G20G30G31G32
  21952766.397    21952765.9134   21952769.6154  115362568.485 8  89892929.01546
     -1616.776       -1259.825
  23127108.231    23127108.1214   23127111.0334  121533782.772 7  94701665.96744
      2514.218        1959.128
  22485339.447    22485338.6864   22485342.5234  118161263.903 7  92073730.57645
      1183.730         922.387
  23465868.653    23465868.6514   23465871.2014  123313975.572 7  96088829.04544
     -4100.653       -3195.313
  22612490.047    22612490.0424   22612491.8294  118829443.219 7  92594393.29546
       415.808         324.006
  23159816.672    23159816.3574   23159819.1884  121705656.901 7  94835597.90744
     -3422.587       -2666.949
  21864604.294    21864604.1624   21864606.3164  114899270.132 7  89531916.92046
     -2491.007       -1941.048
  21196440.078    21196439.3814   21196442.2224  111388046.508 8  86795898.87846
       197.518         153.911
  23699440.455    23699440.9104   23699443.9994  124541413.529 7  97045272.34744
      2408.731        1876.936
  23884600.777    23884601.0624   23884603.4234  125514424.035 7  97803475.17145
      2234.770        1741.392
  23050482.552    23050482.0674   23050485.9644  121131103.798 7  94387892.51445
     -3488.249       -2718.116
 08  4 27  9 43  0.0000000  0 11G 1G 4G 5G11G12G14G17G20G30G31G32
  21962050.355    21962049.8644   21962053.4144  115411355.698 8  89930945.03046
     -1635.394       -1274.337
  23112783.917    23112783.6404   23112786.7834  121458508.227 7  94643010.49244
      2504.400        1951.482
  22478632.999    22478632.1244   22478635.9984  118126020.936 7  92046268.55145
      1166.056         908.615
  23489300.596    23489300.3774   23489303.1204  123437110.992 7  96184778.69644
     -4108.040       -3201.075
  22610169.506    22610169.3694   22610171.3104  118817249.189 7  92584891.46446
       397.413         309.669
  23179394.082    23179393.5984   23179396.5424  121808536.141 7  94915763.57744
     -3435.728       -2677.194
  21878874.341    21878874.3394   21878876.5264  114974260.192 7  89590350.61946
     -2508.014       -1954.286
  21195368.055    21195366.9534   21195369.9434  111382410.991 8  86791507.55346
       178.441         139.043
  23685723.750    23685724.0934   23685727.4814  124469331.977 7  96989104.99344
      2396.968        1867.755
  23871873.107    23871873.2394   23871873.6274  125447539.014 7  97751356.99044
      2224.574        1733.445
  23070425.088    23070424.9044   23070429.0164  121235904.192 7  94469555.12345
     -3498.181       -2725.851
 08  4 27  9 43 30.0000000  0 11G 1G 4G 5G11G12G14G17G20G30G31G32
  21971439.297    21971438.8084   21971442.3264  115460695.217 8  89969391.39646
     -1653.259       -1288.253
  23098514.614    23098514.7384   23098517.5074  121383523.315 7  94584580.72244
      2495.152        1944.277
  22472026.694    22472026.0254   22472029.6904  118091304.377 7  92019216.63745
      1148.983         895.310
  23512773.380    23512773.3014   23512775.8424  123560460.936 7  96280895.53244
     -4114.646       -3206.208
  22607952.817    22607952.7724   22607955.0914  118805602.074 8  92575815.78246
       379.700         295.866
  23199045.230    23199044.8694   23199047.8554  121911803.290 7  94996231.48644
     -3448.149       -2686.872
  21893240.602    21893240.7484   21893243.1344  115049756.088 7  89649178.51146
     -2524.384       -1967.059
  21194403.308    21194402.7434   21194405.6464  111377343.556 8  86787558.90346
       160.034         124.702
  23672073.510    23672073.5114   23672076.8704  124397599.630 6  96933209.75544
      2385.818        1859.079
  23859202.281    23859202.2974   23859205.7244  125380957.101 7  97699474.95045
      2214.896        1725.894
  23090423.243    23090422.8044   23090427.1774  121340995.797 7  94551444.66545
     -3507.261       -2732.930
 08  4 27  9 44  0.0000000  0 11G 1G 4G 5G11G12G14G17G20G30G31G32
  21980930.721    21980930.2244   21980933.9324  115510573.461 8  90008257.62746
     -1671.904       -1302.786
  23084298.846    23084298.5544   23084301.5404  121308817.674 7  94526368.54744
      2485.247        1936.551
  22465518.284    22465517.8154   22465521.4604  118057103.817 7  91992566.84345
      1131.096         881.377
  23536284.116    23536283.8494   23536286.4864  123684010.587 7  96377168.00344
     -4121.924       -3211.895
  22605838.233    22605838.3114   22605840.5084  118794490.347 7  92567157.28846
       361.154         281.421
  23218767.196    23218766.7424   23218769.6164  122015443.276 7  95076989.98544
     -3461.185       -2697.025
  21907700.602    21907700.5404   21907702.9004  115125743.039 7  89708389.09646
     -2541.373       -1980.292
  21193545.086    21193544.2764   21193547.2874  111372832.404 8  86784043.70046
       140.775         109.697
  23658487.735    23658487.8934   23658491.2064  124326206.774 6  96877578.98144
      2373.809        1849.723
  23846588.715    23846588.8574   23846589.4704  125314668.277 7  97647821.35944
      2204.433        1717.746
  23110474.359    23110473.7094   23110478.0384  121446363.656 7  94633549.46145
     -3517.153       -2740.635
 08  4 27  9 44 30.0000000  0 11G 1G 4G 5G11G12G14G17G20G30G31G32
  21990527.238    21990526.5214   21990530.1564  115561002.102 8  90047552.66146
     -1689.848       -1316.763
  23070138.731    23070138.7094   23070141.5494  121234407.006 6  94468386.21044
      2475.709        1929.121
  22459111.410    22459110.6694   22459114.5194  118023434.290 7  91966330.84745
      1113.758         867.859
  23559834.825    23559834.5634   23559837.2954  123807770.149 7  96473604.01944
     -4128.470       -3216.986
  22603828.517    22603828.3904   22603830.5874  118783928.188 7  92558927.02446
       343.222         267.442
  23238562.150    23238561.7424   23238564.4604  122119466.580 7  95158047.10644
     -3473.498       -2706.614
  21922255.968    21922255.8984   21922258.3414  115202232.519 7  89767991.34346
     -2557.723       -1993.033
  21192794.997    21192794.4354   21192797.3504  111368891.707 8  86780973.01146
       122.152          95.181
  23644969.865    23644970.1924   23644973.3394  124255169.453 7  96822225.26244
      2362.190        1840.653
  23834033.080    23834033.1204   23834035.3834  125248688.001 7  97596408.23745
      2194.453        1709.955
  23130580.065    23130579.5214   23130583.4894  121552018.688 7  94715877.98945
     -3526.311       -2747.782
 08  4 27  9 45  0.0000000  0 11G 1G 4G 5G11G12G14G17G20G30G31G32
  22000223.538    22000223.0854   22000226.7114  115611958.035 8  90087258.58246
     -1707.770       -1330.729
  23056030.983    23056030.9974   23056033.9894  121160271.685 7  94410618.44544
      2466.094        1921.630
  22452801.419    22452800.6684   22452804.5494  117990275.408 7  91940492.73745
      1096.336         854.293
  23583420.675    23583420.7094   23583423.0694  123931715.404 7  96570184.72544
     -4135.021       -3222.099
  22601919.088    22601919.1094   22601921.1464  118773894.748 8  92551108.74946
       325.173         253.381
  23258425.614    23258424.8624   23258427.7934  122223848.516 7  95239383.61344
     -3485.771       -2716.191
  21936902.312    21936902.5214   21936904.7974  115279200.564 7  89827966.48846
     -2573.997       -2005.713
  21192149.675    21192148.9314   21192151.8574  111365499.634 8  86778329.82146
       103.459          80.619
  23631515.660    23631515.8394   23631519.2534  124184468.301 6  96767133.46744
      2350.591        1831.636
  23821531.651    23821531.4674   23821533.0734  125182996.382 7  97545219.90544
      2184.438        1702.158
  23150736.182    23150735.3484   23150738.6644  121657936.660 7  94798411.47645
     -3535.415       -2754.874
 08  4 27  9 45 30.0000000  0 11G 1G 4G 5G11G12G14G17G20G30G31G32
  22010022.067    22010021.4324   22010024.9984  115663448.494 8  90127381.03746
     -1725.227       -1344.338
  23041977.925    23041978.1934   23041980.8314  121086422.200 6  94353073.40544
      2456.854        1914.434
  22446590.952    22446590.1304   22446593.8564  117957637.359 7  91915060.45045
      1079.237         840.958
  23607043.290    23607043.2174   23607045.5554  124055851.820 7  96666914.37344
     -4141.024       -3226.773
  22600112.163    22600112.3054   22600114.3544  118764399.089 7  92543709.51946
       307.581         239.673
  23278357.396    23278357.4984   23278360.3534  122328594.460 7  95321003.81844
     -3497.531       -2725.348
  21951641.465    21951641.3914   21951643.6774  115356653.590 7  89888319.52946
     -2589.782       -2018.017
  21191610.282    21191609.5354   21191612.3914  111362665.145 8  86776121.15646
        85.223          66.409
  23618128.135    23618128.1174   23618131.3714  124114114.327 6  96712312.16144
      2339.301        1822.840
  23809088.343    23809088.3604   23809090.4944  125117604.768 7  97494265.51945
      2174.690        1694.539
  23170942.794    23170942.0434   23170945.9184  121764123.572 7  94881154.51345
     -3543.978       -2761.545
 08  4 27  9 46  0.0000000  0 11G 1G 4G 5G11G12G14G17G20G30G31G32
  22019920.755    22019920.3114   22019923.7814  115715466.846 8  90167914.80546
     -1742.777       -1358.003
  23027978.702    23027978.6754   23027981.8464  121012855.632 7  94295748.81144
      2447.446        1907.100
  22440478.187    22440477.6274   22440481.5304  117925516.884 7  91890031.48645
      1062.008         827.532
  23630700.709    23630700.6644   23630703.0324  124180171.896 7  96763787.11544
     -4147.093       -3231.494
  22598406.902    22598406.9664   22598408.8694  118755437.134 7  92536726.13746
       289.781         225.802
  23298358.553    23298358.0204   23298360.5754  122433696.624 7  95402901.58644
     -3509.370       -2734.573
  21966471.167    21966471.1544   21966473.2774  115434583.982 7  89949044.52046
     -2605.632       -2030.363
  21191176.103    21191175.4904   21191178.2824  111360383.956 7  86774343.64846
        66.740          51.997
  23604805.802    23604805.7484   23604809.4904  124044105.303 6  96657759.65844
      2327.798        1813.865
  23796701.203    23796701.3214   23796702.6344  125052509.982 7  97443542.38444
      2164.788        1686.853
  23191199.137    23191198.5484   23191202.0224  121870572.084 7  94964101.47645
     -3552.658       -2768.307
 08  4 27  9 46 30.0000000  0 11G 1G 4G 5G11G12G14G17G20G30G31G32
  22029920.211    22029919.6684   22029923.2334  115768014.332 8  90208860.87146
     -1760.709       -1371.982
  23014034.439    23014034.2254   23014037.1184  120939576.839 7  94238648.46344
      2437.487        1899.338
  22434465.208    22434464.4084   22434468.6344  117893918.395 7  91865409.28545
      1044.209         813.671
  23654392.967    23654392.7494   23654395.1194  124304675.324 7  96860802.75244
     -4153.483       -3236.488
  22596803.583    22596803.6384   22596805.7144  118747012.225 8  92530161.24346
       271.548         211.599
  23318426.636    23318426.0264   23318428.6434  122539155.240 7  95485077.08344
     -3521.515       -2744.035
  21981391.800    21981391.8784   21981393.9464  115512992.818 8  90010142.35046
     -2621.917       -2043.052
  21190847.997    21190847.2024   21190850.0174  111358658.970 8  86772999.55446
        47.873          37.303
  23591549.711    23591550.0594   23591553.5424  123974446.498 6  96603480.06344
      2315.779        1804.512
  23784370.957    23784371.1684   23784373.3764  124987717.311 7  97393054.84145
      2154.388        1678.743
  23211505.244    23211504.9714   23211508.6384  121977282.026 7  95047252.07645
     -3561.674       -2775.323
 08  4 27  9 47  0.0000000  0 11G 1G 4G 5G11G12G14G17G20G30G31G32
  22040021.263    22040020.7974   22040024.4094  115821096.056 7  90250223.24846
     -1777.937       -1385.401
  23000145.733    23000146.0304   23000149.1734  120866594.619 7  94181779.18144
      2428.098        1892.033
  22428553.322    22428552.6754   22428556.2024  117862849.844 7  91841200.03945
      1027.097         800.334
  23678120.989    23678120.5254   23678123.3274  124429365.925 7  96957964.21344
     -4159.101       -3240.857
  22595304.083    22595304.2154   22595306.1424  118739131.619 7  92524020.46346
       253.958         197.893
  23338562.836    23338562.4624   23338565.3894  122644973.898 7  95567533.24444
     -3532.841       -2752.861
  21996404.396    21996404.4364   21996406.5204  115591884.435 7  90071616.37746
     -2637.386       -2055.103
  21190626.796    21190625.9914   21190628.8944  111357496.847 8  86772093.98646
        29.694          23.140
  23578362.537    23578362.4684   23578366.3084  123905146.920 6  96549480.37844
      2304.300        1795.563
  23772100.499    23772100.6694   23772102.4624  124923234.823 7  97342808.69044
      2144.594        1671.125
  23231862.265    23231861.6444   23231865.4274  122084257.665 7  95130609.71745
     -3569.907       -2781.738
 08  4 27  9 47 30.0000000  0 11G 1G 4G 5G11G12G14G17G20G30G31G32
  22050223.645    22050223.2734   22050226.8174  115874710.668 7  90292000.86746
     -1795.886       -1399.394
  22986314.907    22986315.0514   22986318.1534  120793910.919 7  94125142.49044
      2417.911        1884.083
  22422741.944    22422741.2784   22422745.2064  117832312.995 7  91817405.09945
      1009.158         786.351
  23701884.009    23701883.5844   23701886.0464  124554241.257 7  97055269.64044
     -4165.448       -3245.809
  22593908.186    22593908.2334   22593910.0914  118731796.352 7  92518304.69846
       235.525         183.523
  23358767.264    23358767.1964   23358769.8824  122751149.572 7  95650267.60644
     -3544.972       -2762.314
  22011508.483    22011508.5134   22011510.5904  115671256.774 7  90133464.97746
     -2653.611       -2067.751
  21190513.003    21190512.2044   21190515.1314  111356898.366 8  86771627.55146
        10.623           8.271
  23565243.810    23565244.1904   23565247.7724  123836209.602 6  96495763.02744
      2291.951        1785.942
  23759889.807    23759889.9424   23759891.4664  124859065.250 7  97292806.41345
      2133.864        1662.740
  23252268.854    23252268.5454   23252272.2014  122191496.411 7  95214172.25345
     -3578.898       -2788.750
 08  4 27  9 48  0.0000000  0 11G 1G 4G 5G11G12G14G17G20G30G31G32
  22060528.659    22060527.8424   22060531.6084  115928862.371 8  90334197.00046
     -1814.141       -1413.612
  22972542.040    22972541.9624   22972545.1694  120721533.857 6  94068744.79244
      2407.297        1875.811
  22417033.917    22417033.3034   22417037.0444  117802315.077 7  91794030.10645
       990.776         772.035
  23725682.658    23725682.3904   23725684.7524  124679303.933 6  97152721.04844
     -4172.007       -3250.908
  22592617.227    22592617.1544   22592619.2824  118725012.498 8  92513018.57646
       216.803         168.943
  23379040.815    23379040.1224   23379042.8494  122857684.927 7  95733282.16544
     -3557.301       -2771.919
  22026704.371    22026704.5274   22026706.7544  115751113.126 7  90195690.70346
     -2670.093       -2080.594
  21190507.480    21190506.6964   21190509.6364  111356869.992 8  86771605.55246
        -8.703          -6.783
  23552196.122    23552196.3584   23552200.1614  123767642.693 6  96442334.31944
      2279.207        1776.004
  23747739.333    23747739.5024   23747741.5154  124795216.992 7  97243054.63745
      2122.738        1654.072
  23272726.061    23272725.6194   23272729.9714  122299002.160 7  95297943.04344
     -3588.074       -2795.907
 08  4 27  9 48 30.0000000  0 11G 1G 4G 5G11G12G14G17G20G30G31G32
  22070936.763    22070936.1164   22070939.7964  115983558.186 8  90376817.12846
     -1832.018       -1427.545
  22958829.685    22958829.6694   22958832.5934  120649473.766 7  94012594.02844
      2396.894        1867.714
  22411429.591    22411429.2984   22411432.5644  117772866.255 7  91771083.03645
       972.674         757.923
  23749517.957    23749517.5734   23749520.0874  124804559.904 7  97250323.06444
     -4178.227       -3255.768
  22591433.335    22591433.1384   22591434.9264  118718789.467 8  92508169.43046
       198.279         154.504
  23399383.170    23399382.5414   23399385.4404  122964585.572 7  95816581.29244
     -3569.229       -2781.217
  22041993.793    22041994.0214   22041996.2534  115831460.033 7  90258298.70446
     -2686.207       -2093.150
  21190611.899    21190611.2614   21190614.1944  111357420.161 8  86772034.35546
       -27.795         -21.659
  23539221.133    23539220.9484   23539224.4994  123699456.744 6  96389202.36544
      2266.667        1766.236
  23735652.309    23735652.5944   23735654.4374  124731700.530 7  97193561.48444
      2111.841        1645.573
  23293235.588    23293234.9804   23293239.4214  122406780.462 7  95381926.18345
     -3596.956       -2802.816
 08  4 27  9 49  0.0000000  0 11G 1G 4G 5G11G12G14G17G20G30G31G32
  22081447.987    22081447.4054   22081451.1244  116038795.206 8  90419858.96246
     -1850.439       -1441.901
  22945177.443    22945177.7294   22945180.6034  120577731.760 7  93956691.11544
      2385.893        1859.136
  22405930.629    22405929.9434   22405933.3704  117743966.522 7  91748563.75345
       953.958         743.338
  23773389.356    23773389.1674   23773391.7424  124930004.977 7  97348072.39844
     -4184.803       -3260.888
  22590355.760    22590355.8274   22590357.5944  118713126.529 8  92503756.74546
       179.233         139.664
  23419794.310    23419793.8844   23419796.6974  123071847.677 7  95900162.14844
     -3581.557       -2790.820
  22057376.062    22057376.0054   22057378.4674  115912293.729 7  90321286.00346
     -2702.741       -2106.030
  21190826.633    21190825.9414   21190828.8504  111358547.627 8  86772912.84646
       -47.411         -36.941
  23526318.613    23526318.4994   23526321.9874  123631653.448 7  96336368.58644
      2253.478        1755.954
  23723628.922    23723629.2504   23723630.7814  124668516.369 7  97144327.25445
      2100.352        1636.623
  23313796.276    23313795.6744   23313800.2674  122514827.850 7  95466119.13345
     -3606.189       -2810.024
 08  4 27  9 49 30.0000000  0 11G 1G 4G 5G11G12G14G17G20G30G31G32
  22092063.036    22092062.5294   22092066.2724  116094578.499 7  90463326.47046
     -1868.396       -1455.895
  22931587.696    22931587.8164   22931590.5094  120506316.540 7  93901042.83444
      2375.098        1850.715
  22400537.130    22400536.4014   22400540.1094  117715624.172 7  91726478.82445
       935.530         728.977
  23797297.704    23797297.4244   23797300.0004  125055643.183 6  97445972.20644
     -4191.038       -3265.746
  22589385.990    22589385.9614   22589387.7244  118708031.214 7  92499786.36046
       160.448         125.027
  23440275.117    23440274.5314   23440277.5084  123179474.410 7  95984027.07144
     -3593.509       -2800.133
  22072851.694    22072851.7334   22072854.2234  115993618.848 7  90384656.22446
     -2718.901       -2118.626
  21191152.414    21191151.6784   21191154.5314  111360259.779 8  86774247.04646
       -66.681         -51.954
  23513490.503    23513490.8954   23513494.2564  123564242.140 7  96283840.31744
      2240.588        1745.919
  23711670.378    23711670.3524   23711672.0014  124605673.237 7  97095358.58545
      2089.158        1627.919
  23334408.622    23334408.2014   23334412.5704  122623147.843 7  95550524.38744
     -3615.102       -2816.970
 08  4 27  9 50  0.0000000  0 11G 1G 4G 5G11G12G14G17G20G30G31G32
  22102782.412    22102782.0314   22102785.9464  116150910.230 7  90507221.28646
     -1887.025       -1470.410
  22918061.046    22918061.3054   22918064.1754  120435234.197 7  93845654.05644
      2363.675        1841.824
  22395250.690    22395250.0824   22395253.7134  117687844.553 7  91704832.39645
       916.435         714.100
  23821242.859    23821242.5254   23821244.7624  125181475.675 6  97544023.48844
     -4197.782       -3270.994
  22588524.957    22588525.0654   22588527.0454  118703507.619 7  92496261.47546
       141.107         109.954
  23460825.361    23460825.1294   23460828.0744  123287467.071 7  96068177.18844
     -3606.003       -2809.878
  22088421.314    22088421.1514   22088423.5984  116075436.830 7  90448410.46846
     -2735.636       -2131.665
  21191590.155    21191589.3804   21191592.4084  111362560.468 8  86776039.80246
       -86.667         -67.527
  23500738.552    23500738.7934   23500742.0754  123497229.285 7  96231622.60044
      2226.961        1735.285
  23699777.898    23699777.6614   23699779.1174  124543177.500 7  97046660.62644
      2077.184        1618.576
  23355073.223    23355072.6944   23355077.2194  122731742.142 7  95635143.40144
     -3624.529       -2824.305
 08  4 27  9 50 30.0000000  0 11G 1G 4G 5G11G12G14G17G20G30G31G32
  22113607.164    22113606.4584   22113610.2074  116207792.117 7  90551544.76646
     -1905.210       -1484.571
  22904598.745    22904598.7784   22904602.0704  120364489.870 7  93790528.61444
      2352.456        1833.085
  22390072.391    22390071.6934   22390075.2974  117660632.372 7  91683628.12645
       897.539         699.378
  23845224.897    23845224.7834   23845227.3624  125307502.958 6  97642226.54943
     -4204.117       -3275.934
  22587773.899    22587773.8014   22587775.7504  118699559.775 8  92493185.24146
       121.947          95.025
  23481445.671    23481445.1294   23481448.0774  123395825.920 7  96152612.65044
     -3618.049       -2819.256
  22104084.696    22104084.6204   22104086.9684  116157749.234 7  90512550.01146
     -2751.969       -2144.387
  21192140.557    21192139.8924   21192142.9234  111365453.427 8  86778294.05546
      -106.339         -82.866
  23488062.886    23488063.0904   23488066.7824  123430620.606 6  96179719.83944
      2213.503        1724.813
  23687952.006    23687952.1274   23687954.3694  124481034.111 7  96998236.94845
      2065.585        1609.559
  23375790.720    23375790.3344   23375794.6014  122840610.663 7  95719975.61245
     -3633.517       -2831.303
 08  4 27  9 51  0.0000000  0 11G 1G 4G 5G11G12G14G17G20G30G31G32
  22124535.814    22124535.2154   22124538.9964  116265223.172 8  90596296.18846
     -1923.446       -1498.790
  22891201.628    22891201.5984   22891204.6204  120294086.321 7  93735668.73744
      2341.145        1824.269
  22385002.449    22385001.7194   22385005.3594  117633989.516 7  91662867.46945
       878.664         684.680
  23869243.870    23869243.4974   23869246.1554  125433722.371 6  97740579.13643
     -4210.413       -3280.839
  22587132.411    22587132.3324   22587134.3314  118696188.644 8  92490558.37946
       102.828          80.125
  23502134.542    23502134.2074   23502137.4464  123504548.624 7  96237331.64044
     -3630.059       -2828.615
  22119841.746    22119841.8604   22119844.2754  116240553.803 7  90577073.05146
     -2768.252       -2157.078
  21192803.870    21192803.1644   21192806.2694  111368939.447 8  86781010.49046
      -125.982         -98.183
  23475465.787    23475465.6614   23475468.8694  123364418.701 7  96128133.93244
      2200.019        1714.301
  23676195.085    23676195.2284   23676196.3594  124419246.055 7  96950089.94345
      2053.719        1600.310
  23396560.300    23396559.6654   23396563.9644  122949752.820 7  95805021.31145
     -3642.454       -2838.266
 08  4 27  9 51 30.0000000  0 11G 1G 4G 5G11G12G14G17G20G30G31G32
  22135567.951    22135567.5154   22135571.2774  116323197.876 8  90641471.24146
     -1941.759       -1513.062
  22877868.643    22877868.7004   22877871.7544  120224021.658 7  93681072.91944
      2329.512        1815.208
  22380040.379    22380039.8374   22380043.2074  117607913.626 7  91642548.57545
       859.476         669.718
  23893297.942    23893297.6104   23893300.6084  125560128.072 6  97839077.09643
     -4216.827       -3285.848
  22586599.797    22586599.8934   22586602.0984  118693391.047 7  92488378.41046
        83.465          65.038
  23522892.090    23522891.5284   23522894.6324  123613628.323 7  96322328.84244
     -3642.112       -2838.007
  22135691.774    22135691.6924   22135693.8814  116323844.359 7  90641974.75946
     -2784.636       -2169.847
  21193579.409    21193578.6614   21193581.7714  111373014.873 8  86784186.25046
      -145.885        -113.679
  23462944.978    23462945.0984   23462947.9914  123298622.503 7  96076864.20644
      2186.183        1703.518
  23664504.360    23664504.1804   23664506.9184  124357812.898 7  96902220.00945
      2041.636        1590.884
  23417380.159    23417379.9014   23417384.0944  123059161.456 7  95890274.58345
     -3651.611       -2845.381
 08  4 27  9 52  0.0000000  0 11G 1G 4G 5G11G12G14G17G20G30G31G32
  22146706.430    22146705.8504   22146709.3434  116381728.856 7  90687079.76246
     -1960.067       -1527.326
  22864603.634    22864603.5674   22864606.5694  120154312.256 7  93626753.92244
      2317.938        1806.184
  22375188.940    22375188.3354   22375191.9294  117582420.092 7  91622683.41745
       840.253         654.736
  23917389.591    23917389.2724   23917392.0344  125686731.150 6  97937728.83443
     -4223.118       -3290.735
  22586179.459    22586179.5154   22586181.5444  118691181.723 7  92486656.85946
        64.059          49.915
  23543718.948    23543718.4704   23543721.7964  123723076.326 7  96407613.05244
     -3654.142       -2847.386
  22151636.205    22151636.0354   22151638.2934  116407632.967 7  90707264.56046
     -2800.994       -2182.592
  21194469.671    21194468.9834   21194472.1004  111377693.572 8  86787831.95546
      -165.796        -129.194
  23450504.788    23450505.1124   23450508.0024  123233248.749 7  96025923.65644
      2172.289        1692.690
  23652884.043    23652884.0404   23652885.8964  124296750.696 7  96854639.46345
      2029.426        1581.368
  23438252.823    23438252.5884   23438256.6044  123168849.654 7  95975746.16345
     -3660.672       -2852.488
 08  4 27  9 52 30.0000000  0 11G 1G 4G 5G11G12G14G17G20G30G31G32
  22157949.298    22157948.6914   22157952.2704  116440810.934 8  90733117.71946
     -1978.533       -1541.714
  22851405.921    22851405.5584   22851408.6304  120084956.752 7  93572710.66345
      2305.924        1796.824
  22370448.389    22370447.7134   22370451.2504  117557507.316 7  91603270.86645
       820.772         639.560
  23941517.895    23941517.6234   23941520.2544  125813525.921 6  98036530.01343
     -4229.660       -3295.841
  22585870.603    22585870.6314   22585872.7444  118689557.688 8  92485391.34746
        44.398          34.598
  23564615.159    23564614.6714   23564617.8844  123832886.073 7  96493179.07544
     -3666.285       -2856.847
  22167674.408    22167674.2684   22167676.4734  116491913.693 7  90772937.78046
     -2817.528       -2195.474
  21195474.273    21195473.5414   21195476.6634  111382972.976 8  86791945.86046
      -185.949        -144.895
  23438144.991    23438145.0794   23438147.7634  123168296.344 7  95975311.42444
      2158.085        1681.638
  23641334.418    23641334.7054   23641336.6834  124236056.788 7  96807345.65545
      2016.999        1571.675
  23459177.920    23459177.0894   23459181.1844  123278810.000 7  96061429.66445
     -3669.779       -2859.559
 08  4 27  9 53  0.0000000  0 12G 1G 4G 5G11G12G14G17G20G23G30G31G32
  22169297.512    22169296.9294   22169300.7654  116500447.333 8  90779587.69845
     -1997.500       -1556.497
  22838276.422    22838276.4464   22838279.5084  120015962.039 7  93518948.53145
      2293.412        1787.073
  22365819.244    22365818.6194   22365822.1314  117533181.163 7  91584315.40445
       800.686         623.904
  23965683.098    23965682.5824   23965685.4084  125940513.224 6  98135481.08643
     -4236.477       -3301.145
  22585674.296    22585674.0494   22585675.8084  118688524.075 7  92484585.89846
        24.198          18.855
  23585580.122    23585580.1434   23585583.0474  123943059.226 7  96579028.19344
     -3678.841       -2866.632
  22183806.771    22183806.5504   22183808.7454  116576689.283 7  90838996.64945
     -2834.471       -2208.679
  21196594.093    21196593.3424   21196596.4914  111388857.447 8  86796531.12846
      -206.609        -160.994
  24793578.287    24793577.8074   24793579.6794  130291139.811 6 101525585.07443
      3192.255        2487.466
  23425866.037    23425865.9964   23425869.2684  123103772.684 7  95925033.33044
      2143.249        1670.061
  23629856.252    23629856.5364   23629857.8804  124175738.612 7  96760344.53545
      2003.917        1561.495
  23480154.833    23480153.9224   23480158.2534  123389044.839 7  96147326.90645
     -3679.439       -2867.083
 08  4 27  9 53 30.0000000  0 12G 1G 4G 5G11G12G14G17G20G23G30G31G32
  22180752.878    22180752.3254   22180755.9874  116560645.873 7  90826495.64745
     -2015.769       -1570.729
  22825218.246    22825218.1404   22825221.1304  119947340.032 7  93465476.86845
      2281.367        1777.696
  22361304.226    22361303.3104   22361306.8734  117509452.970 7  91565825.95245
       781.143         608.681
  23989885.917    23989885.8854   23989888.3844  126067700.813 6  98234588.19143
     -4242.703       -3305.999
  22585591.314    22585591.3764   22585593.7544  118688091.264 7  92484248.60646
         4.594           3.580
  23606616.202    23606615.7804   23606618.7414  124053603.047 7  96665166.16444
     -3690.756       -2875.904
  22200034.334    22200034.3964   22200036.4894  116661967.294 7  90905447.09946
     -2850.765       -2221.381
  21197830.978    21197830.1974   21197833.4514  111395356.958 8  86801595.56846
      -226.742        -176.675
  24775363.589    24775363.0194   24775365.0624  130195422.047 6 101450999.86943
      3188.806        2484.785
  23413671.318    23413671.4944   23413674.6074  123039690.424 7  95875099.26144
      2128.888        1658.856
  23618452.209    23618452.1934   23618453.9474  124115808.257 7  96713645.55845
      1991.378        1551.712
  23501185.391    23501184.8634   23501189.3564  123499561.814 7  96233443.99345
     -3688.408       -2874.083
 08  4 27  9 54  0.0000000  0 12G 1G 4G 5G11G12G14G17G20G23G30G31G32
  22192314.323    22192313.7984   22192317.7054  116621402.233 7  90873838.27545
     -2034.737       -1585.515
  22812230.701    22812230.6144   22812233.4614  119879089.901 7  93412294.94645
      2268.530        1767.687
  22356902.396    22356901.6224   22356904.8774  117486320.895 7  91547800.93745
       760.859         592.880
  24014125.976    24014125.7834   24014128.2604  126195083.329 6  98333847.30843
     -4249.564       -3311.347
  22585623.243    22585623.0824   22585625.0054  118688256.544 7  92484377.33146
       -15.759         -12.280
  23627721.557    23627721.1124   23627724.1014  124164511.665 6  96751588.40844
     -3703.241       -2885.645
  22216356.633    22216356.7174   22216358.9534  116747742.182 7  90972284.72545
     -2867.695       -2234.567
  21199184.171    21199183.5604   21199186.8634  111402469.100 7  86807137.40546
      -247.560        -192.903
  24757170.600    24757170.0814   24757171.7164  130099817.180 6 101376502.65943
      3184.686        2481.571
  23401560.879    23401560.9844   23401564.0024  122976048.735 7  95825508.42144
      2113.759        1647.081
  23607121.401    23607121.3924   23607123.0064  124056265.025 7  96667248.27645
      1978.046        1541.337
  23522268.813    23522268.2974   23522272.2854  123610355.621 7  96319776.87545
     -3697.983       -2881.552
 08  4 27  9 54 30.0000000  0 12G 1G 4G 5G11G12G14G17G20G23G30G31G32
  22203984.022    22203983.5794   22203987.3634  116682727.239 7  90921624.03045
     -2053.547       -1600.164
  22799316.446    22799316.4414   22799319.3984  119811226.303 7  93359414.22445
      2255.741        1757.713
  22352616.289    22352615.6294   22352619.2134  117463799.028 7  91530251.42745
       740.628         577.119
  24038404.959    24038404.9224   24038407.7464  126322670.163 6  98433265.59543
     -4256.183       -3316.496
  22585771.249    22585771.2004   22585772.9664  118689033.485 8  92484982.72546
       -36.017         -28.062
  23648897.929    23648897.7104   23648900.4834  124275794.511 6  96838302.27444
     -3715.543       -2895.229
  22232775.491    22232775.5484   22232777.7494  116834024.270 7  91039517.53945
     -2884.414       -2247.595
  21200656.601    21200656.0524   21200659.2914  111410206.728 8  86813166.79846
      -268.253        -209.024
  24739002.146    24739001.5544   24739003.3614  130004339.658 6 101302104.67543
      3180.523        2478.331
  23389537.178    23389537.2154   23389540.1294  122912862.760 7  95776272.64244
      2098.628        1635.297
  23595867.046    23595867.1904   23595868.6234  123997123.665 7  96621164.19445
      1964.744        1530.969
  23543406.585    23543406.2954   23543409.8514  123721436.080 7  96406333.04844
     -3707.325       -2888.817
 08  4 27  9 55  0.0000000  0 12G 1G 4G 5G11G12G14G17G20G23G30G31G32
  22215761.390    22215760.7484   22215764.4384  116744616.985 7  90969849.87645
     -2072.233       -1614.731
  22786476.044    22786476.0554   22786479.1964  119743749.356 7  93306834.81945
      2242.887        1747.704
  22348446.367    22348445.8094   22348449.4284  117441886.505 7  91513176.71945
       720.411         561.359
  24062721.777    24062721.8964   24062724.9364  126450456.755 6  98532839.52243
     -4262.714       -3321.602
  22586034.979    22586035.0834   22586036.8404  118690420.137 7  92486063.21446
       -56.220         -43.807
  23670145.101    23670144.4544   23670147.3574  124387446.776 7  96925304.02644
     -3727.691       -2904.697
  22249289.975    22249290.2294   22249292.4024  116920809.245 7  91107142.25745
     -2901.031       -2260.546
  21202247.767    21202247.0344   21202250.3674  111418567.182 7  86819681.35446
      -288.939        -225.137
  24720857.442    24720856.7384   24720858.5794  129908989.477 6 101227805.87543
      3176.330        2475.062
  23377599.687    23377599.7194   23377602.9264  122850132.759 7  95727392.11144
      2083.538        1623.549
  23584689.021    23584689.3754   23584691.5154  123938384.130 7  96575393.06545
      1951.368        1520.537
  23564598.186    23564597.7374   23564601.9214  123832799.019 7  96493109.38444
     -3716.609       -2896.059
 08  4 27  9 55 30.0000000  0 12G 1G 4G 5G11G12G14G17G20G23G30G31G32
  22227645.220    22227644.7074   22227648.5454  116807067.706 7  91018512.80045
     -2090.768       -1629.165
  22773709.212    22773709.0454   22773712.3024  119676659.050 7  93254556.67845
      2230.176        1737.791
  22344392.614    22344392.0434   22344395.2904  117420582.801 7  91496576.42345
       700.228         545.631
  24087075.768    24087075.8684   24087078.4944  126578438.633 6  98632565.66543
     -4269.070       -3326.544
  22586414.717    22586414.4994   22586416.3394  118692414.872 7  92487617.50346
       -76.360         -59.501
  23691460.877    23691460.5084   23691463.2744  124499463.570 7  97012589.85744
     -3739.657       -2914.022
  22265899.747    22265899.6034   22265901.8774  117008092.554 7  91175155.24045
     -2917.474       -2273.357
  21203957.004    21203956.2674   21203959.6014  111427549.320 8  86826680.44046
      -309.478        -241.152
  24702737.315    24702737.0384   24702738.6434  129813767.402 6 101153606.90743
      3172.142        2471.796
  23365749.262    23365749.3814   23365752.4274  122787859.525 7  95678867.51844
      2068.398        1611.737
  23573587.886    23573587.9714   23573589.4004  123880046.948 7  96529935.60945
      1938.124        1510.237
  23585842.774    23585842.0774   23585846.3424  123944439.687 7  96580102.13644
     -3725.659       -2903.103
 08  4 27  9 56  0.0000000  0 12G 1G 4G 5G11G12G14G17G20G23G30G31G32
  22239634.705    22239634.1544   22239637.8394  116870072.200 7  91067607.16645
     -2109.383       -1643.674
  22761015.228    22761015.2614   22761018.3824  119609952.264 7  93202577.36445
      2217.117        1727.613
  22340453.532    22340452.7234   22340456.5414  117399883.748 7  91480447.29845
       679.822         529.729
  24111465.826    24111465.4894   24111468.1664  126706607.687 6  98732437.68643
     -4275.441       -3331.513
  22586908.998    22586909.0524   22586911.0294  118695013.167 8  92489642.13446
       -96.667         -75.324
  23712844.812    23712844.3314   23712847.3464  124611836.354 7  97100153.04944
     -3751.647       -2923.362
  22282602.366    22282602.4404   22282604.7474  117095866.876 7  91243550.86946
     -2934.027       -2286.256
  21205783.503    21205782.6674   21205785.9744  111437147.733 8  86834159.81146
      -330.235        -257.332
  24684641.192    24684640.4034   24684642.1094  129718670.399 6 101079505.40343
      3167.781        2468.393
  23353985.694    23353985.7104   23353988.9244  122726040.072 7  95630696.50844
      2053.059        1599.789
  23562562.996    23562563.1074   23562564.6834  123822108.590 7  96484788.87245
      1924.605        1499.705
  23607138.953    23607138.1654   23607142.2494  124056350.422 7  96667305.23944
     -3734.836       -2910.267
 08  4 27  9 56 30.0000000  0 12G 1G 4G 5G11G12G14G17G20G23G30G31G32
  22251728.784    22251728.2114   22251732.0484  116933628.062 7  91117131.28545
     -2127.775       -1658.008
  22748394.689    22748394.6244   22748397.6594  119543629.899 7  93150897.60745
      2204.196        1717.551
  22336629.965    22336629.2314   22336632.7634  117379789.570 7  91464789.49745
       659.614         513.982
  24135890.850    24135890.2664   24135893.2774  126834959.908 6  98832452.44943
     -4281.503       -3336.234
  22587518.171    22587518.2134   22587519.8674  118698213.802 8  92492136.09346
      -116.838         -91.045
  23734295.579    23734295.0834   23734298.0294  124724561.067 7  97187990.51144
     -3763.427       -2932.543
  22299397.842    22299397.9854   22299400.2964  117184128.632 7  91312326.31345
     -2950.218       -2298.870
  21207726.778    21207726.1224   21207729.4124  111447360.685 8  86842117.98346
      -350.769        -273.329
  24666568.572    24666567.9174   24666569.4994  129623699.564 6 101005502.20443
      3163.465        2465.035
  23342308.561    23342308.6264   23342311.6984  122664676.243 7  95582880.55644
      2037.714        1587.832
  23551613.586    23551613.5534   23551615.2724  123764570.354 7  96439953.94845
      1911.153        1489.217
  23628485.391    23628485.0844   23628488.6604  124168527.682 7  96754716.11144
     -3743.729       -2917.194
 08  4 27  9 57  0.0000000  0 12G 1G 4G 5G11G12G14G17G20G23G30G31G32
  22263927.241    22263926.4944   22263930.3294  116997730.454 8  91167081.23545
     -2145.764       -1672.028
  22735846.843    22735846.9894   22735849.9484  119477691.560 7  93099517.09745
      2191.569        1707.708
  22332920.405    22332919.7724   22332923.7864  117360298.809 7  91449601.91045
       639.685         498.456
  24160348.901    24160348.4004   24160351.1984  126963489.840 6  98932605.66743
     -4287.153       -3340.644
  22588241.172    22588241.2314   22588243.3724  118702014.683 7  92495097.82546
      -136.620        -106.458
  23755812.173    23755811.8134   23755814.3584  124837632.240 7  97276097.91944
     -3774.694       -2941.329
  22316285.612    22316285.3614   22316287.7334  117272872.175 7  91381477.12045
     -2966.070       -2311.228
  21209786.900    21209786.0874   21209789.3594  111458185.519 8  86850552.79446
      -371.040        -289.143
  24648519.698    24648519.7704   24648521.2584  129528854.444 6 100931596.96243
      3159.446        2461.906
  23330717.903    23330717.7304   23330721.0164  122603767.182 7  95535418.91644
      2022.786        1576.192
  23540739.761    23540739.7214   23540741.9704  123707431.790 7  96395430.46845
      1898.011        1478.970
  23649882.098    23649881.2304   23649885.2204  124280966.388 7  96842330.71844
     -3752.229       -2923.826
 08  4 27  9 57 30.0000000  0 12G 1G 4G 5G11G12G14G17G20G23G30G31G32
  22276229.519    22276229.0534   22276232.7674  117062380.329 7  91217457.72545
     -2164.248       -1686.425
  22723373.147    22723373.1124   22723376.1794  119412142.135 7  93048439.64445
      2178.351        1697.417
  22329327.519    22329326.7824   22329330.4014  117341415.524 7  91434887.68545
       619.132         482.437
  24184841.412    24184840.7994   24184843.6874  127092197.995 6  99032897.68343
     -4293.367       -3345.467
  22589079.185    22589079.2414   22589081.1704  118706418.790 8  92498529.55846
      -157.022        -122.353
  23777395.207    23777394.6084   23777397.2684  124951049.779 6  97364475.16544
     -3786.469       -2950.500
  22333264.881    22333264.7204   22333266.7984  117362098.763 7  91451004.36645
     -2982.388       -2323.937
  21211963.735    21211963.0654   21211966.2704  111469626.213 8  86859467.77046
      -391.782        -305.294
  24630496.702    24630496.2234   24630497.6844  129434140.536 6 100857793.95643
      3154.776        2458.279
  23319214.871    23319214.9024   23319218.1694  122543318.706 7  95488316.25944
      2007.106        1563.974
  23529943.550    23529943.9124   23529946.1304  123650697.808 7  96351222.23345
      1884.219        1468.224
  23671328.149    23671327.3484   23671331.4374  124393666.840 7  96930149.27444
     -3761.202       -2930.808
 08  4 27  9 58  0.0000000  0 12G 1G 4G 5G11G12G14G17G20G23G30G31G32
  22288637.512    22288636.8924   22288640.5274  117127583.728 7  91268265.58445
     -2182.496       -1700.650
  22710975.434    22710975.4454   22710978.2404  119346991.325 7  92997672.79245
      2165.200        1687.168
  22325851.282    22325850.4384   22325853.9774  117323148.584 7  91420653.74545
       598.783         466.582
  24209369.140    24209368.1484   24209371.1424  127221089.388 6  99133332.49843
     -4299.239       -3350.059
  22590033.806    22590033.7544   22590035.7904  118711434.319 7  92502437.77146
      -177.196        -138.075
  23799044.272    23799044.2204   23799046.5804  125064818.495 7  97453126.08044
     -3797.950       -2959.441
  22350336.792    22350336.8474   22350338.8414  117451813.061 7  91520911.62945
     -2998.405       -2336.421
  21214259.332    21214258.6094   21214261.8344  111481689.227 7  86868867.46946
      -412.319        -321.298
  24612500.109    24612499.2504   24612501.0584  129339567.437 6 100784100.66943
      3150.246        2454.723
  23307801.821    23307801.6264   23307805.0484  122483340.593 7  95441580.07345
      1991.553        1551.852
  23519226.549    23519226.7174   23519228.4074  123594377.744 7  96307336.52645
      1870.556        1457.571
  23692824.633    23692823.9344   23692827.9864  124506634.063 7  97018175.64344
     -3769.802       -2937.510
 08  4 27  9 58 30.0000000  0 12G 1G 4G 5G11G12G14G17G20G23G30G31G32
  22301148.921    22301148.3954   22301151.9884  117193332.254 7  91319498.24545
     -2200.571       -1714.729
  22698652.675    22698652.4904   22698655.3054  119282234.467 7  92947212.89845
      2152.085        1676.950
  22322491.772    22322490.9614   22322494.5874  117305492.477 7  91406895.77745
       578.458         450.747
  24233928.622    24233928.0724   24233931.4534  127350154.512 6  99233902.69243
     -4304.904       -3354.465
  22591103.176    22591103.0204   22591105.2334  118717054.687 7  92506817.26646
      -197.322        -153.759
  23820758.951    23820758.5444   23820761.3944  125178928.570 7  97542043.00244
     -3809.216       -2968.223
  22367500.072    22367500.0224   22367502.0954  117542006.356 7  91591192.09445
     -3014.298       -2348.805
  21216672.202    21216671.4004   21216674.6134  111494368.243 8  86878747.13846
      -432.804        -337.250
  24594529.058    24594528.9134   24594530.3314  129245131.053 6 100710513.89644
      3145.685        2451.186
  23296476.658    23296476.5944   23296480.0144  122423828.805 7  95395207.34045
      1976.051        1539.784
  23508587.492    23508587.6614   23508589.2874  123538467.243 7  96263769.91745
      1856.947        1446.977
  23714370.997    23714370.0614   23714374.1854  124619859.040 7  97106402.83844
     -3778.262       -2944.084
 08  4 27  9 59  0.0000000  0 12G 1G 4G 5G11G12G14G17G20G23G30G31G32
  22313765.236    22313764.6304   22313768.1204  117259630.819 8  91371159.57045
     -2218.930       -1729.047
  22686406.581    22686406.5394   22686409.3074  119217880.319 7  92897066.80945
      2138.581        1666.431
  22319249.382    22319248.5124   22319252.1524  117288455.120 7  91393619.92845
       557.789         434.640
  24258523.213    24258522.7394   24258525.2054  127479397.416 6  99334611.42043
     -4310.874       -3359.123
  22592288.955    22592288.9774   22592291.2014  118723287.076 7  92511673.66046
      -217.753        -169.678
  23842539.032    23842538.4744   23842541.3934  125293384.025 6  97631229.09044
     -3820.730       -2977.199
  22384755.188    22384755.2254   22384757.3004  117632682.887 7  91661849.10645
     -3030.374       -2361.324
  21219203.132    21219202.4714   21219205.8904  111507669.981 8  86889112.23846
      -453.625        -353.495
  24576586.561    24576585.9554   24576587.3884  129150840.279 6 100637040.59643
      3140.749        2447.338
  23285242.083    23285242.4264   23285245.5904  122364792.231 7  95349204.83944
      1960.134        1527.378
  23498027.045    23498027.1754   23498029.1374  123482975.601 7  96220529.75245
      1842.881        1436.007
  23735966.954    23735966.3624   23735970.6464  124733345.906 7  97194833.95444
     -3787.055       -2950.935
 08  4 27  9 59 30.0000000  0 12G 1G 4G 5G11G12G14G17G20G23G30G31G32
  22026693.216    22026692.9564   22026696.4394  115751059.403 7  90195649.41445
     -2237.105       -1743.210
  22374444.304    22374444.4184   22374447.4764  117578508.967 7  91619634.57045
      2125.094        1655.915
  22016333.037    22016332.2774   22016335.5514  115696616.929 7  90153226.53845
       537.134         418.542
  23983358.869    23983358.7134   23983361.2264  126033399.580 6  98207859.83643
     -4316.614       -3363.589
  22293799.669    22293799.1274   22293801.3764  117154711.771 8  91289407.13446
      -238.131        -185.557
  23564592.247    23564592.1024   23564594.7304  123832765.324 6  96493084.57644
     -3831.998       -2985.967
  22102310.036    22102309.9294   22102312.0364  116148422.957 7  90505282.91245
     -3046.334       -2373.770
  20922060.453    20922059.8344   20922063.1094  109946174.817 7  85672362.76246
      -474.306        -369.586
  24258877.996    24258877.6964   24258879.3274  127481274.295 6  99336080.15343
      3135.871        2443.533
  22974306.251    22974306.1434   22974309.1724  120730811.356 7  94075972.95445
      1944.208        1514.972
  23187754.794    23187754.8494   23187757.2214  121852482.245 7  94950015.35945
      1828.977        1425.191
  23457820.635    23457820.2504   23457823.8124  123271676.272 7  96055870.50144
     -3795.694       -2957.692
 08  4 27 10  0  0.0000000  0 12G 1G 4G 5G11G12G14G17G20G23G30G31G32
  22039516.911    22039516.4714   22039519.6794  115818446.635 7  90248158.98445
     -2255.133       -1757.243
  22362351.612    22362351.7034   22362354.7124  117514961.254 7  91570116.86245
      2111.612        1645.411
  22013325.576    22013324.8874   22013328.7394  115680814.956 7  90140913.32445
       516.525         402.487
  24008018.620    24008017.7124   24008020.5534  126162984.588 6  98308835.13343
     -4322.144       -3367.903
  22295217.278    22295217.1664   22295219.1944  117162163.404 7  91295213.65546
      -258.445        -201.382
  23586501.505    23586500.9284   23586503.7664  123947896.936 6  96582797.48144
     -3843.191       -2994.695
  22119746.448    22119746.4944   22119748.6064  116240052.948 7  90576682.84045
     -3062.114       -2386.061
  20924827.584    20924826.8444   20924830.3394  109960716.601 8  85683694.04546
      -494.923        -385.662
  24240991.155    24240990.7774   24240992.2124  127387276.661 6  99262835.29643
      3130.837        2439.610
  22963253.138    22963253.1904   22963256.2354  120672727.807 7  94030713.12845
      1928.282        1502.563
  23177354.904    23177354.9524   23177356.3154  121797828.372 7  94907427.96645
      1814.910        1414.225
  23479513.731    23479513.1404   23479516.9004  123385675.082 7  96144700.83844
     -3804.019       -2964.153
 08  4 27 10  0 30.0000000  0 12G 1G 4G 5G11G12G14G17G20G23G30G31G32
  22052442.138    22052441.5724   22052444.9604  115886368.715 7  90301085.26945
     -2273.089       -1771.241
  22350334.940    22350335.0274   22350338.0364  117451813.493 7  91520910.78945
      2098.116        1634.898
  22010435.606    22010434.6374   22010438.0874  115665625.878 7  90129077.75745
       495.975         386.474
  24032708.087    24032707.5184   24032710.1484  126292730.162 6  98409935.53243
     -4327.590       -3372.144
  22296749.702    22296749.7404   22296751.9974  117170218.328 7  91301490.26046
      -278.688        -217.161
  23608472.643    23608471.9634   23608474.7284  124063355.777 6  96672765.42844
     -3854.190       -3003.262
  22137271.761    22137271.9294   22137274.1654  116332149.470 7  90648446.27745
     -3077.760       -2398.262
  20927711.421    20927710.7124   20927714.2144  109975871.423 7  85695503.06246
      -515.475        -401.675
  24223131.392    24223130.9154   24223132.4824  127293422.537 6  99189702.26543
      3125.911        2435.767
  22952290.492    22952290.5464   22952293.6324  120615117.339 7  93985821.82145
      1912.322        1490.121
  23167033.357    23167033.3624   23167035.6964  121743589.902 7  94865164.18845
      1800.854        1403.256
  23501253.417    23501252.6964   23501257.0664  123499919.153 7  96233722.20044
     -3812.328       -2970.648
 08  4 27 10  1  0.0000000  0 12G 1G 4G 5G11G12G14G17G20G23G30G31G32
  22065468.022    22065467.5064   22065470.8274  115954820.979 7  90354424.73845
     -2290.790       -1785.037
  22338394.313    22338394.4704   22338397.3934  117389064.702 7  91472015.63445
      2084.706        1624.443
  22007660.628    22007660.0904   22007663.9364  115651047.513 7  90117717.99245
       475.469         370.489
  24057427.155    24057427.3304   24057429.5034  126422630.800 6  98511156.78743
     -4332.806       -3376.217
  22298396.906    22298396.8754   22298399.0764  117178873.803 7  91308234.80846
      -298.812        -232.844
  23630504.929    23630504.2504   23630506.8864  124179135.935 6  96762983.79344
     -3864.910       -3011.621
  22154885.157    22154885.1724   22154887.2474  116424707.482 7  90720569.55045
     -3093.158       -2410.254
  20930711.653    20930710.6914   20930714.2394  109991636.071 7  85707787.14446
      -535.957        -417.658
  24205298.638    24205298.3374   24205299.6624  127199711.231 7  99116680.50843
      3121.077        2432.000
  22941417.582    22941417.6624   22941420.4624  120557979.895 7  93941299.14845
      1896.442        1477.744
  23156791.046    23156791.3884   23156793.0954  121689766.419 7  94823223.92845
      1786.909        1392.391
  23523039.114    23523038.6034   23523042.3124  123614403.396 7  96322930.80344
     -3820.376       -2976.927
 08  4 27 10  1 30.0000000  0 12G 1G 4G 5G11G12G14G17G20G23G30G31G32
  22078596.275    22078595.7244   22078599.3964  116023811.163 7  90408183.35645
     -2308.561       -1798.878
  22326531.703    22326531.7854   22326534.9044  117326726.604 7  91423440.52745
      2071.105        1613.845
  22005005.035    22005004.5294   22005007.9164  115637090.930 7  90106842.71645
       454.907         354.474
  24082177.466    24082177.2224   24082179.3434  126552693.483 6  98612504.28043
     -4338.049       -3380.295
  22300160.430    22300160.4284   22300162.6414  117188139.509 8  91315454.77346
      -318.943        -248.522
  23652599.122    23652598.7484   23652601.4784  124295243.735 6  96853457.37243
     -3875.679       -3020.009
  22172587.520    22172587.5194   22172589.5304  116517733.489 7  90793057.30645
     -3108.609       -2422.292
  20933829.257    20933828.5184   20933831.8914  110008020.604 8  85720554.43746
      -556.373        -433.532
  24187495.256    24187494.8374   24187496.8354  127106154.879 6  99043779.51243
      3116.023        2428.074
  22930637.024    22930636.9774   22930639.8814  120501327.752 7  93897154.69145
      1880.373        1465.229
  23146630.038    23146630.1674   23146631.6294  121636369.254 7  94781615.84045
      1772.830        1381.427
  23544871.792    23544871.4634   23544874.9034  123729134.797 7  96412331.91644
     -3828.427       -2983.184
 08  4 27 10  2  0.0000000  0 12G 1G 4G 5G11G12G14G17G20G23G30G31G32
  22091826.726    22091826.2884   22091829.7174  116093337.787 7  90462359.92945
     -2326.667       -1812.988
  22314747.646    22314747.7414   22314750.9534  117264801.667 7  91375187.33645
      2057.077        1602.916
  22002467.812    22002467.0604   22002470.7394  115623757.555 7  90096453.07045
       433.918         338.114
  24106958.032    24106957.8644   24106960.3104  126682915.987 6  98713976.32443
     -4343.479       -3384.533
  22302040.028    22302039.9024   22302042.0064  117198016.372 7  91323151.00946
      -339.597        -264.621
  23674755.925    23674755.4664   23674758.3004  124411676.960 6  96944184.51543
     -3886.620       -3028.535
  22190378.334    22190378.4594   22190380.4394  116611226.287 7  90865908.98745
     -3124.316       -2434.537
  20937065.010    20937064.3554   20937067.6224  110025024.185 7  85733803.86646
      -577.266        -449.806
  24169721.961    24169721.6574   24169723.0924  127012756.139 6  98971001.29043
      3110.474        2423.742
  22919949.118    22919949.3974   22919952.3774  120445163.538 7  93853390.35445
      1863.847        1452.350
  23136550.800    23136550.8094   23136552.5144  121583400.905 7  94740341.87845
      1758.269        1370.075
  23566751.411    23566750.8194   23566754.3044  123844111.491 7  96501924.13244
     -3836.767       -2989.684
 08  4 27 10  2 30.0000000  0 12G 1G 4G 5G11G12G14G17G20G23G30G31G32
  22105158.761    22105158.3924   22105161.9774  116163398.209 8  90516952.40645
     -2344.141       -1826.602
  22303042.804    22303042.7804   22303045.6324  117203291.352 7  91327257.22845
      2043.473        1592.318
  22000049.340    22000048.6994   22000052.4134  115611047.678 7  90086549.21845
       413.307         322.058
  24131768.269    24131767.9304   24131770.5394  126813295.050 6  98815570.36743
     -4348.499       -3388.436
  22304035.730    22304035.5364   22304037.8394  117208503.968 8  91331323.15546
      -359.696        -280.286
  23696973.443    23696973.0004   23696975.9804  124528432.164 6  97035162.53743
     -3897.093       -3036.697
  22208257.694    22208257.5264   22208259.6384  116705182.135 7  90939121.35045
     -3139.482       -2446.350
  20940418.675    20940417.8774   20940421.1484  110042647.291 8  85747536.17146
      -597.663        -465.702
  24151979.124    24151978.8474   24151980.4044  126919516.986 6  98898347.41144
      3105.344        2419.744
  22909354.652    22909354.6634   22909357.8744  120389488.549 7  93810007.24145
      1847.716        1439.770
  23126553.082    23126553.0864   23126554.6284  121530862.858 7  94699403.12445
      1744.121        1359.049
  23588676.294    23588675.9114   23588679.8004  123959330.512 7  96591705.22444
     -3844.582       -2995.777
 08  4 27 10  3  0.0000000  0 12G 1G 4G 5G11G12G14G17G20G23G30G31G32
  22118591.920    22118591.4584   22118595.0684  116233989.928 8  90571958.96645
     -2361.928       -1840.464
  22291416.816    22291416.8554   22291419.8724  117142197.147 7  91279651.38045
      2029.492        1581.416
  21997749.234    21997748.5624   21997752.4194  115598961.599 7  90077131.48745
       392.419         305.778
  24156607.807    24156607.2324   24156609.9944  126943827.285 6  98917283.70443
     -4353.628       -3392.446
  22306147.594    22306147.5864   22306149.4734  117219601.182 8  91339970.29146
      -380.069        -296.158
  23719251.832    23719251.4594   23719254.4814  124645505.610 6  97126388.59843
     -3907.735       -3044.996
  22226224.291    22226224.2504   22226226.4214  116799597.609 7  91012691.83045
     -3154.855       -2458.329
  20943889.840    20943888.9984   20943892.2574  110060888.325 8  85761750.09246
      -618.383        -481.862
  24134267.362    24134266.8164   24134268.2884  126826439.023 7  98825819.16543
      3099.885        2415.491
  22898853.517    22898853.6894   22898856.9344  120334304.776 7  93767006.91245
      1831.236        1426.931
  23116637.079    23116637.1384   23116639.0364  121478756.696 7  94658800.94745
      1729.609        1347.744
  23610647.624    23610646.6584   23610650.3074  124074788.386 7  96681672.34344
     -3852.536       -3001.974
 08  4 27 10  3 30.0000000  0 12G 1G 4G 5G11G12G14G17G20G23G30G31G32
  22132128.590    22132128.0074   22132131.6204  116305124.755 7  90627388.67645
     -2380.176       -1854.679
  22279872.960    22279873.1824   22279876.1744  117081534.663 7  91232381.91745
      2014.883        1570.036
  21995571.036    21995570.6184   21995574.1014  115587514.360 7  90068211.55545
       370.908         289.017
  24181478.181    24181478.1164   24181481.2634  127074524.251 6  99019125.48843
     -4359.209       -3396.778
  22308378.182    22308378.1654   22308379.9444  117231322.335 8  91349103.67446
      -401.103        -312.548
  23741592.689    23741592.0024   23741595.6414  124762908.496 6  97217871.37043
     -3918.839       -3053.639
  22244281.039    22244280.8634   22244282.7664  116894484.422 7  91086629.49345
     -3170.672       -2470.644
  20947480.940    20947480.2854   20947483.5854  110079760.811 8  85776455.92446
      -639.584        -498.377
  24116588.518    24116588.5784   24116589.8634  126733538.657 6  98753429.30943
      3093.688        2410.662
  22888449.211    22888449.2924   22888452.2404  120279628.717 7  93724402.22645
      1814.065        1413.562
  23106807.087    23106807.1574   23106809.2584  121427098.541 7  94618547.88845
      1714.487        1335.954
  23632665.863    23632665.0344   23632669.4714  124190496.394 7  96771834.17144
     -3861.064       -3008.587
 08  4 27 10  4  0.0000000  0 12G 1G 4G 5G11G12G14G17G20G23G30G31G32
  22145767.756    22145767.2514   22145770.9724  116376799.209 7  90683238.92845
     -2398.286       -1868.802
  22268411.786    22268411.5524   22268414.7294  117021304.571 7  91185449.41545
      2000.259        1558.641
  21993514.077    21993513.2304   21993517.0574  115576705.177 7  90059788.83645
       349.478         272.325
  24206379.977    24206379.7134   24206382.2214  127205381.577 6  99121092.19443
     -4364.704       -3401.071
  22310726.892    22310726.8724   22310728.8914  117243665.929 7  91358722.09646
      -422.011        -328.846
  23763995.274    23763995.1514   23763998.5934  124880635.627 6  97309606.71143
     -3929.744       -3062.140
  22262426.138    22262426.1714   22262428.1874  116989838.697 7  91160931.55245
     -3186.413       -2482.921
  20951192.427    20951191.5154   20951194.8514  110099263.528 8  85791652.83846
      -660.759        -514.886
  24098943.980    24098943.6034   24098945.0374  126640816.568 6  98681178.33543
      3087.562        2405.898
  22878141.200    22878141.2314   22878144.2244  120225461.092 7  93682193.72745
      1796.925        1400.197
  23097061.796    23097061.7954   23097063.7644  121375888.210 7  94578643.82145
      1699.329        1324.144
  23654731.757    23654731.2754   23654735.1314  124306450.544 7  96862187.60644
     -3869.401       -3015.121
 08  4 27 10  4 30.0000000  0 12G 1G 4G 5G11G12G14G17G20G23G30G31G32
  22159510.912    22159510.2654   22159513.8134  116449018.884 7  90739514.04745
     -2416.244       -1882.786
  22257034.252    22257034.3964   22257037.4484  116961516.471 7  91138861.29745
      1985.666        1547.270
  21991580.457    21991579.7974   21991583.0294  115566542.623 7  90051869.96945
       328.102         255.667
  24231312.749    24231312.3614   24231315.2094  127336404.350 6  99223187.83743
     -4370.005       -3405.201
  22313195.433    22313195.3784   22313197.4854  117256639.317 8  91368831.25846
      -442.806        -345.043
  23786461.412    23786460.6474   23786463.7794  124998691.982 6  97401598.55043
     -3940.529       -3070.535
  22280661.408    22280661.3354   22280663.1534  117085665.604 7  91235601.95945
     -3201.902       -2494.979
  20955024.739    20955024.1684   20955027.3344  110119403.457 7  85807346.29146
      -681.812        -531.279
  24081335.663    24081335.2104   24081336.4134  126548282.804 6  98609074.15843
      3081.408        2401.098
  22867932.117    22867932.1574   22867935.3234  120171811.249 7  93640388.67145
      1779.802        1386.858
  23087403.848    23087403.9754   23087406.0614  121325134.916 7  94539095.45845
      1684.207        1312.354
  23676845.399    23676844.7374   23676848.5654  124422656.552 7  96952737.44144
     -3877.510       -3021.392
 08  4 27 10  5  0.0000000  0 12G 1G 4G 5G11G12G14G17G20G23G30G31G32
  22173357.790    22173357.5924   22173361.1704  116521786.982 7  90796216.44445
     -2434.795       -1897.236
  22245742.712    22245742.7354   22245745.6844  116902177.910 7  91092623.48145
      1970.364        1535.353
  21989770.426    21989769.8054   21989773.8364  115557032.908 7  90044459.80545
       305.963         238.414
  24256277.601    24256277.0694   24256279.8924  127467595.522 6  99325414.69643
     -4375.916       -3409.801
  22315785.298    22315785.2844   22315787.3384  117270247.983 7  91379435.40046
      -464.311        -361.801
  23808989.310    23808988.8344   23808992.3324  125117080.226 6  97493849.05443
     -3951.920       -3079.408
  22298987.114    22298987.0774   22298988.9334  117181967.161 7  91310641.96845
     -3218.058       -2507.565
  20958979.624    20958978.9794   20958981.9874  110140185.600 8  85823540.11946
      -703.495        -548.167
  24063764.645    24063763.8744   24063765.4854  126455945.503 6  98537123.06143
      3074.530        2395.739
  22857823.273    22857822.9764   22857826.1524  120118687.376 7  93598993.48145
      1761.899        1372.909
  23077834.171    23077834.3734   23077836.9424  121274847.097 7  94499909.92445
      1668.417        1300.086
  23699007.213    23699006.6254   23699011.0684  124539118.392 7  97043487.14044
     -3886.345       -3028.310
 08  4 27 10  5 30.0000000  0 12G 1G 4G 5G11G12G14G17G20G23G30G31G32
  22187308.958    22187308.2844   22187311.8044  116595098.139 7  90853341.95545
     -2452.810       -1911.287
  22234535.872    22234535.8724   22234539.1244  116843287.314 7  91046734.73545
      1955.489        1523.755
  21988085.040    21988084.1644   21988087.6144  115548173.668 7  90037556.50645
       284.411         221.621
  24281272.718    24281272.7324   24281275.7264  127598948.596 6  99427767.69743
     -4381.208       -3413.917
  22318495.474    22318495.2314   22318497.0854  117284488.893 7  91390532.20646
      -485.307        -378.165
  23831579.762    23831579.2194   23831582.9594  125235793.898 6  97586353.20543
     -3962.587       -3087.732
  22317401.844    22317402.0374   22317403.9074  117278738.312 7  91386048.04645
     -3233.522       -2519.619
  20963055.858    20963055.0974   20963058.2734  110161606.144 8  85840231.41146
      -724.708        -564.709
  24046230.166    24046229.7754   24046230.9994  126363803.079 6  98465323.82843
      3068.088        2390.713
  22847813.647    22847813.7464   22847816.8904  120066088.201 7  93558007.09445
      1744.493        1359.338
  23068353.620    23068353.8224   23068355.7414  121225023.584 7  94461086.45945
      1652.949        1287.989
  23721216.266    23721215.5524   23721219.7204  124655828.434 6  97134429.94744
     -3894.494       -3034.660
 08  4 27 10  6  0.0000000  0 12G 1G 4G 5G11G12G14G17G20G23G30G31G32
  22201360.676    22201360.2134   22201363.8334  116668941.864 7  90910882.58545
     -2470.223       -1924.852
  22223413.403    22223413.3524   22223416.5524  116784838.120 7  91001189.93645
      1941.043        1512.506
  21986521.118    21986520.1764   21986524.1624  115539956.852 7  90031153.78645
       263.282         205.156
  24306297.575    24306297.0414   24306299.9434  127730452.396 6  99530238.12143
     -4385.825       -3417.531
  22321323.615    22321323.6444   22321325.7734  117299353.016 8  91402114.63346
      -505.764        -394.100
  23854230.160    23854229.6934   23854232.7454  125354821.485 6  97679102.08243
     -3972.693       -3095.605
  22335903.868    22335903.9624   22335905.9984  117375967.498 7  91461811.07645
     -3248.450       -2531.259
  20967251.858    20967251.0314   20967254.2554  110183656.158 8  85857413.23546
      -745.378        -580.811
  24028731.841    24028731.6054   24028732.7614  126271849.142 6  98393671.43943
      3062.049        2386.020
  22837902.943    22837903.0124   22837906.1154  120014007.669 7  93517424.84845
      1727.438        1346.055
  23058959.843    23058959.8264   23058961.5394  121175657.081 7  94422619.14145
      1637.990        1276.348
  23743470.992    23743470.2854   23743474.8064  124772776.120 7  97225557.96044
     -3902.119       -3040.616
 08  4 27 10  6 30.0000000  0 12G 1G 4G 5G11G12G14G17G20G23G30G31G32
  22215515.299    22215514.7824   22215518.3404  116743325.252 7  90968843.75145
     -2488.550       -1939.141
  22212376.928    22212376.9044   22212380.1494  116726841.414 7  90955997.73645
      1925.526        1500.410
  21985082.099    21985081.3864   21985084.5494  115532392.627 7  90025259.58045
       241.125         187.891
  24331351.924    24331351.5734   24331354.4294  127862113.571 6  99632831.17443
     -4391.414       -3421.879
  22324272.652    22324272.6964   22324274.4824  117314849.605 7  91414189.89046
      -527.235        -410.830
  23876941.296    23876941.0064   23876944.2304  125474168.780 6  97772099.99043
     -3983.727       -3104.203
  22354494.493    22354494.3344   22354496.5034  117473661.144 7  91537936.03045
     -3264.321       -2543.635
  20971569.163    20971568.5194   20971571.6984  110206344.470 7  85875092.41046
      -767.037        -597.682
  24011271.852    24011271.5174   24011272.7234  126180095.862 6  98322175.41943
      3054.963        2380.485
  22828092.821    22828093.0494   22828096.3954  119962457.353 7  93477255.80745
      1709.364        1331.958
  23049654.383    23049654.3364   23049656.5574  121126758.962 7  94384516.78645
      1621.964        1263.861
  23765772.336    23765771.4904   23765775.2464  124889968.567 7  97316876.83744
     -3910.562       -3047.198
 08  4 27 10  7  0.0000000  0 12G 1G 4G 5G11G12G14G17G20G23G30G31G32
  22229774.195    22229773.7974   22229777.2784  116818256.921 7  91027232.11045
     -2506.963       -1953.479
  22201429.088    22201429.1334   22201432.3174  116669310.309 7  90911168.33645
      1909.830        1488.176
  21983768.593    21983767.8494   21983771.3794  115525492.597 7  90019882.89545
       218.792         170.486
  24356437.453    24356436.7744   24356440.3144  127993940.700 6  99735553.54943
     -4397.145       -3426.362
  22327343.989    22327344.0224   22327345.8684  117330989.346 8  91426766.31446
      -548.797        -427.634
  23899714.533    23899714.2454   23899717.6604  125593844.072 6  97865353.43043
     -3994.753       -3112.799
  22373175.034    22373174.8654   22373176.8314  117571827.520 7  91614429.23245
     -3280.161       -2555.963
  20976010.291    20976009.3954   20976012.7494  110229681.457 8  85893276.97446
      -788.831        -614.673
  23993852.803    23993851.9644   23993853.4404  126088555.935 7  98250845.64444
      3047.667        2374.802
  22818386.599    22818386.5634   22818389.9014  119911449.806 7  93437509.73245
      1691.085        1317.727
  23040440.873    23040440.7474   23040442.8654  121078342.119 7  94346789.52945
      1605.751        1251.234
  23788121.134    23788120.3504   23788124.3324  125007413.840 7  97408392.65344
     -3919.161       -3053.899
 08  4 27 10  7 30.0000000  0 12G 1G 4G 5G11G12G14G17G20G23G30G31G32
  22244136.885    22244136.5484   22244140.0414  116893734.489 7  91086045.86645
     -2525.137       -1967.641
  22190570.132    22190570.2214   22190573.1804  116612246.034 7  90866702.67745
      1894.196        1475.998
  21982582.217    21982581.5444   21982585.1324  115519257.465 7  90015024.42245
       196.622         153.212
  24381554.518    24381554.6734   24381557.0134  128125930.472 6  99838402.66543
     -4402.478       -3430.503
  22330537.332    22330537.4004   22330539.2424  117347771.652 8  91439843.44646
      -570.265        -444.360
  23922549.928    23922549.3864   23922552.4814  125713843.913 6  97958859.82843
     -4005.498       -3121.158
  22391945.157    22391944.9324   22391946.8844  117670463.851 7  91691288.65645
     -3295.817       -2568.170
  20980574.552    20980573.6624   20980576.9694  110253666.652 8  85911966.74446
      -810.454        -631.519
  23976474.100    23976473.7984   23976475.2984  125997232.000 7  98179684.18844
      3040.384        2369.134
  22808784.021    22808784.1564   22808787.2274  119860987.198 7  93398188.24245
      1672.824        1303.501
  23031318.712    23031318.8074   23031321.2034  121030407.733 7  94309438.17445
      1589.634        1238.672
  23810517.604    23810516.7574   23810521.6784  125125109.012 7  97500103.15744
     -3927.415       -3060.287
 08  4 27 10  8  0.0000000  0 12G 1G 4G 5G11G12G14G17G20G23G30G31G32
  22258602.591    22258602.0814   22258605.6064  116969751.379 7  91145279.83245
     -2542.980       -1981.548
  22179799.731    22179799.6594   22179802.6254  116555646.491 7  90822599.16045
      1878.789        1463.993
  21981520.789    21981520.0424   21981524.1024  115513683.241 7  90010680.88645
       174.678         136.115
  24406700.830    24406700.5434   24406703.7464  128258076.102 6  99941373.24643
     -4407.515       -3434.431
  22333852.353    22333852.4224   22333854.2274  117365192.129 7  91453417.83246
      -591.434        -460.855
  23945445.729    23945445.2274   23945448.7474  125834160.618 6  98052613.07743
     -4015.901       -3129.272
  22410803.160    22410803.0094   22410805.0364  117769562.744 7  91768508.30445
     -3311.092       -2580.066
  20985260.995    20985260.3564   20985263.7304  110278294.675 8  85931157.23146
      -831.729        -648.087
  23959136.325    23959135.9424   23959137.4144  125906121.861 6  98108689.33644
      3033.301        2363.613
  22799284.477    22799284.5024   22799287.4454  119811067.488 7  93359289.84945
      1654.791        1289.438
  23022288.413    23022288.6204   23022290.6924  120982953.441 7  94272460.79545
      1573.690        1226.255
  23832961.007    23832960.1424   23832964.3394  125243046.548 7  97592002.05844
     -3935.425       -3066.562
 08  4 27 10  8 30.0000000  0 12G 1G 4G 5G11G12G14G17G20G23G30G31G32
  22273172.318    22273171.9294   22273175.3614  117046315.941 7  91204940.46445
     -2561.114       -1995.659
  22169120.086    22169120.0974   22169123.0014  116499524.105 7  90778867.44345
      1862.866        1451.579
  21980588.631    21980587.8164   21980591.6174  115508781.369 7  90006861.23545
       152.280         118.666
  24431878.489    24431878.4854   24431880.8724  128390385.607 6 100044471.51943
     -4412.910       -3438.622
  22337291.216    22337291.0244   22337292.7614  117383261.306 7  91467497.69946
      -612.985        -477.655
  23968402.881    23968402.4144   23968405.6934  125954802.415 6  98146619.60443
     -4026.671       -3137.667
  22429750.577    22429750.7084   22429752.8334  117869132.813 7  91846095.21745
     -3326.699       -2592.227
  20990072.168    20990071.4944   20990074.8444  110303575.910 7  85950856.60846
      -853.518        -665.101
  23941841.627    23941841.1144   23941842.8114  125815238.636 6  98037871.28944
      3025.744        2357.712
  22789890.686    22789890.8384   22789893.5394  119761703.403 7  93320824.34945
      1636.301        1275.044
  23013352.265    23013352.3204   23013354.7244  120935991.626 7  94235867.00245
      1557.280        1213.470
  23855451.406    23855451.2624   23855455.2004  125361236.697 7  97684098.37044
     -3943.721       -3073.029
 08  4 27 10  9  0.0000000  0 12G 1G 4G 5G11G12G14G17G20G23G30G31G32
  22287843.644    22287843.1904   22287846.6354  117123414.287 7  91265017.14345
     -2578.362       -2009.118
  22158529.067    22158529.1134   22158532.0514  116443868.626 7  90735499.54145
      1847.798        1439.840
  21979781.183    21979780.2174   21979784.3524  115504540.506 7  90003556.73745
       130.793         101.916
  24457084.858    24457084.3544   24457087.3644  128522844.083 6 100147685.86243
     -4417.319       -3442.070
  22340850.422    22340850.4654   22340852.2694  117401966.782 8  91482073.43846
      -633.675        -493.780
  23991418.998    23991419.1744   23991422.0364  126075753.711 6  98240867.29143
     -4036.400       -3145.244
  22448785.328    22448785.2284   22448787.3954  117969158.783 7  91924037.21445
     -3341.300       -2603.596
  20995005.085    20995004.2704   20995007.9324  110329497.684 8  85971055.19646
      -874.299        -681.267
  23924588.276    23924587.8004   23924589.5704  125724572.280 6  97967222.21644
      3018.993        2352.450
  22780601.036    22780601.2034   22780603.7294  119712885.375 7  93282784.33745
      1618.590        1261.233
  23004507.322    23004507.6264   23004510.1074  120889512.493 7  94199649.45345
      1541.667        1201.296
  23877987.601    23877986.7024   23877990.4534  125479663.584 7  97776379.12844
     -3951.022       -3078.721
 08  4 27 10  9 30.0000000  0 12G 1G 4G 5G11G12G14G17G20G23G30G31G32
  22302614.482    22302613.9964   22302617.5354  117201035.939 7  91325501.55245
     -2596.441       -2023.203
  22148025.808    22148025.8814   22148028.9524  116388674.213 7  90692490.91745
      1831.793        1427.372
  21979099.206    21979098.3744   21979101.5774  115500953.261 7  90000761.52645
       108.331          84.412
  24482317.341    24482316.7824   24482320.1554  128655441.168 6 100251008.21143
     -4422.473       -3446.070
  22344529.267    22344529.2374   22344531.4024  117421300.308 8  91497138.53446
      -655.260        -510.594
  24014493.125    24014492.1624   24014495.1114  126197004.277 6  98335348.25643
     -4046.956       -3153.470
  22467904.434    22467904.5824   22467906.6864  118069630.595 7  92002326.76945
     -3356.816       -2615.704
  21000058.075    21000057.3904   21000060.8804  110356052.603 8  85991747.53446
      -896.006        -698.183
  23907375.152    23907374.7834   23907376.3114  125634117.097 6  97896737.69044
      3011.254        2346.443
  22771413.994    22771414.1884   22771416.6944  119664607.499 7  93245165.22645
      1599.892        1246.673
  22995753.687    22995753.5834   22995755.5704  120843510.287 7  94163803.69145
      1525.123        1188.407
  23900566.337    23900565.7184   23900570.0724  125598316.616 7  97868835.96644
     -3959.171       -3085.068
 08  4 27 10 10  0.0000000  0 12G 1G 4G 5G11G12G14G17G20G23G30G31G32
  22317483.267    22317482.7604   22317486.3354  117279171.401 7  91386386.32745
     -2613.078       -2036.161
  22137609.614    22137609.5884   22137612.4994  116333935.434 7  90649837.33545
      1816.978        1415.832
  21978539.036    21978538.4744   21978542.4164  115498012.875 7  89998470.34345
        87.195          67.942
  24507573.974    24507574.0204   24507576.9554  128788166.904 6 100354430.83343
     -4426.362       -3449.119
  22348326.587    22348326.7124   22348328.5504  117441254.403 8  91512687.16646
      -675.507        -526.368
  24037620.883    24037620.0784   24037623.4864  126318542.965 6  98430053.67743
     -4056.080       -3160.579
  22487106.437    22487106.6024   22487108.7094  118170538.319 7  92080956.17045
     -3370.881       -2626.664
  21005230.088    21005229.3284   21005232.9344  110383231.331 8  86012925.69946
      -916.406        -714.076
  23890201.680    23890201.1134   23890202.5054  125543868.609 6  97826414.23844
      3004.750        2341.359
  22762328.596    22762328.8564   22762331.7984  119616864.439 7  93207962.91145
      1582.479        1233.104
  22987089.336    22987089.4704   22987091.8524  120797978.924 7  94128324.75245
      1509.805        1176.472
  23923186.598    23923186.1344   23923190.1814  125717186.321 7  97961461.65644
     -3965.929       -3090.323
 08  4 27 10 10 30.0000000  0 12G 1G 4G 5G11G12G14G17G20G23G30G31G32
  22332451.182    22332450.6704   22332454.0594  117357827.804 8  91447677.01545
     -2630.635       -2049.844
  22127281.846    22127281.9684   22127284.6504  116279663.301 7  90607547.39445
      1801.176        1403.514
  21978104.959    21978104.4364   21978107.5514  115495729.287 7  89996690.95045
        65.043          50.684
  24532856.422    24532856.3024   24532859.6994  128921027.463 6 100457958.48443
     -4431.010       -3452.737
  22352243.932    22352243.7874   22352245.5534  117461838.101 8  91528726.39946
      -696.702        -542.888
  24060805.127    24060804.5474   24060807.6234  126440376.379 6  98524988.78243
     -4066.084       -3168.382
  22506392.751    22506392.7424   22506394.8764  118271888.029 7  92159929.98745
     -3385.740       -2638.228
  21010522.488    21010521.7434   21010525.4274  110411042.797 8  86034596.85346
      -937.670        -730.641
  23873069.054    23873069.0684   23873070.2754  125453838.375 7  97756260.85544
      2997.265        2335.534
  22753347.493    22753347.4314   22753350.4044  119569667.413 7  93171186.05045
      1563.997        1218.698
  22978516.956    22978517.0374   22978518.7584  120752929.599 7  94093221.39945
      1493.480        1163.752
  23945849.477    23945848.9674   23945852.7454  125836279.241 6  98054261.17944
     -3973.499       -3096.212
 08  4 27 10 11  0.0000000  0 12G 1G 4G 5G11G12G14G17G20G23G30G31G32
  22347518.226    22347517.6054   22347521.3804  117437005.875 7  91509374.21645
     -2647.972       -2063.356
  22117043.876    22117044.0034   22117046.7424  116225862.640 7  90565624.78745
      1785.400        1391.218
  21977795.773    21977795.0404   21977798.7444  115494105.755 7  89995425.87645
        43.016          33.518
  24558164.802    24558165.0374   24558167.3834  129054023.553 6 100561591.73243
     -4435.482       -3456.207
  22356280.904    22356280.9064   22356282.7414  117483053.673 8  91545258.01846
      -717.802        -559.320
  24084044.788    24084044.4404   24084047.8784  126562504.333 6  98620153.45243
     -4075.904       -3176.029
  22525763.218    22525763.0594   22525765.3084  118373680.072 7  92239248.44745
     -3400.461       -2649.698
  21015935.790    21015934.9704   21015938.4934  110439489.682 8  86056763.33346
      -958.820        -747.134
  23855979.401    23855979.1014   23855980.6964  125364031.388 6  97686281.41644
      2989.756        2329.677
  22744470.986    22744470.9274   22744473.8364  119523021.637 7  93134838.73345
      1545.593        1204.353
  22970036.883    22970037.1004   22970038.8984  120708367.278 7  94058497.57945
      1477.182        1151.047
  23968554.724    23968554.1424   23968558.9684  125955595.818 6  98147234.89944
     -3981.006       -3102.080
 08  4 27 10 11 30.0000000  0 12G 1G 4G 5G11G12G14G17G20G23G30G31G32
  22362685.330    22362684.7204   22362688.2334  117516708.977 7  91571480.52945
     -2665.485       -2077.004
  22106896.917    22106897.1584   22106900.1264  116172540.956 7  90524075.45245
      1769.423        1378.769
  21977614.009    21977613.2074   21977616.6044  115493148.467 7  89994679.94145
        20.843          16.239
  24583499.694    24583499.4204   24583502.7894  129187158.207 6 100665332.96043
     -4440.055       -3459.790
  22360439.164    22360439.1964   22360441.2684  117504906.619 8  91562286.28346
      -738.981        -575.833
  24107340.898    24107341.0284   24107344.2094  126684929.537 6  98715549.72143
     -4085.702       -3183.659
  22545218.374    22545218.3664   22545220.8434  118475916.437 7  92318912.79145
     -3415.267       -2661.238
  21021470.892    21021470.0844   21021473.6784  110468576.792 8  86079428.64146
      -980.170        -763.762
  23838933.620    23838933.4954   23838934.7254  125274455.770 7  97616482.26944
      2982.026        2323.648
  22735700.910    22735700.9624   22735703.9314  119476934.747 7  93098926.91545
      1526.960        1189.842
  22961650.846    22961650.8204   22961652.9854  120664298.907 7  94024158.61445
      1460.775        1138.264
  23991303.338    23991302.8964   23991306.7974  126075139.093 6  98240385.21744
     -3988.477       -3107.918
 08  4 27 10 12  0.0000000  0 12G 1G 4G 5G11G12G14G17G20G23G30G31G32
  22377949.629    22377949.1124   22377952.8014  117596924.695 7  91633986.41245
     -2682.044       -2089.908
  22096839.958    22096839.7484   22096842.6304  116119689.674 7  90482892.66445
      1754.186        1366.902
  21977555.976    21977555.5154   21977559.0584  115492847.714 7  89994445.65545
        -0.586          -0.458
  24608857.915    24608857.4274   24608861.4254  129320418.362 6 100769171.98043
     -4443.773       -3462.673
  22364717.076    22364717.0034   22364718.9954  117527386.090 7  91579802.74646
      -759.438        -591.768
  24130692.536    24130691.9404   24130695.6054  126807638.380 6  98811167.02843
     -4094.709       -3190.683
  22564755.640    22564755.7264   22564758.0954  118578585.286 7  92398914.33645
     -3429.219       -2672.135
  21027126.030    21027125.0144   21027128.5884  110498292.851 7  86102583.87346
     -1000.656        -779.727
  23821930.775    23821930.4774   23821931.5414  125185103.362 6  97546857.05144
      2974.995        2318.184
  22727035.551    22727035.5904   22727038.6164  119431397.994 7  93063443.77245
      1509.007        1175.853
  22953357.461    22953357.6124   22953359.3944  120620716.181 7  93990198.14745
      1444.986        1125.962
  24014092.809    24014092.1234   24014096.6294  126194896.996 7  98333703.04444
     -3995.157       -3113.110
 08  4 27 10 12 30.0000000  0 12G 1G 4G 5G11G12G14G17G20G23G30G31G32
  22393310.456    22393309.8784   22393313.5434  117677645.898 7  91696886.03645
     -2699.213       -2103.279
  22086871.447    22086871.5164   22086874.5114  116067306.251 7  90442074.38645
      1738.131        1354.391
  21977623.258    21977622.7144   21977626.3244  115493199.542 7  89994719.82745
       -22.746         -17.722
  24634239.136    24634238.9684   24634241.7714  129453796.905 6 100873103.24743
     -4448.091       -3466.029
  22369113.115    22369113.0364   22369114.9404  117550487.409 8  91597803.80446
      -780.520        -608.197
  24154095.992    24154095.2354   24154098.4334  126930623.579 6  98906999.63743
     -4104.196       -3198.066
  22584373.619    22584373.4124   22584376.0574  118681680.495 7  92479248.83845
     -3443.677       -2683.385
  21032899.542    21032898.6834   21032902.3804  110528632.774 7  86126225.08746
     -1021.888        -796.275
  23804969.882    23804969.6364   23804970.5594  125095972.879 7  97477404.76444
      2967.208        2312.109
  22718474.649    22718474.7814   22718477.5754  119386409.934 7  93028388.17745
      1490.342        1161.308
  22945155.927    22945155.9764   22945157.8444  120577616.459 7  93956613.92345
      1428.472        1113.099
  24036920.617    24036920.2924   24036925.3124  126314862.134 6  98427182.32144
     -4002.370       -3118.729
 08  4 27 10 13  0.0000000  0 12G 1G 4G 5G11G12G14G17G20G23G30G31G32
  22408767.614    22408767.1224   22408770.7184  117758874.808 7  91760181.31845
     -2716.172       -2116.490
  22076993.446    22076993.5194   22076996.4384  116015396.772 7  90401625.43945
      1722.275        1342.034
  21977814.840    21977814.3104   21977817.8304  115494208.565 7  89995506.11645
       -44.695         -34.824
  24659643.098    24659642.9104   24659646.2184  129587295.813 6 100977128.30042
     -4452.057       -3469.132
  22373627.839    22373627.8664   22373629.9974  117574214.365 8  91616292.36446
      -801.456        -624.512
  24177551.548    24177550.9954   24177554.9164  127053886.585 6  99003048.76143
     -4113.457       -3205.277
  22604072.986    22604072.8774   22604075.4834  118785200.833 7  92559913.84745
     -3457.868       -2694.431
  21038792.532    21038791.6014   21038795.2294  110559601.070 7  86150356.35846
     -1042.860        -812.635
  23788052.331    23788051.8644   23788052.9424  125007070.291 7  97408130.08244
      2959.456        2306.063
  22710019.079    22710019.4154   22710022.0294  119341976.697 7  92993764.92245
      1471.730        1146.808
  22937047.298    22937047.2984   22937049.2644  120535006.031 7  93923411.04345
      1412.052        1100.298
  24059789.553    24059788.6444   24059793.2574  126435036.558 6  98520824.76344
     -4009.442       -3124.244
 08  4 27 10 13 30.0000000  0 12G 1G 4G 5G11G12G14G17G20G23G30G31G32
  22424322.110    22424321.6464   22424325.1804  117840614.009 7  91823874.26145
     -2733.145       -2129.721
  22067207.194    22067207.0404   22067209.7594  115963968.165 7  90361551.21545
      1706.247        1329.541
  21978133.021    21978132.4534   21978136.2834  115495880.219 7  89996808.73045
       -66.782         -52.039
  24685070.903    24685070.3994   24685073.7624  129720917.224 6 101081248.83543
     -4456.000       -3472.206
  22378262.915    22378262.8154   22378264.9004  117598571.370 8  91635271.84946
      -822.408        -640.836
  24201061.207    24201060.7784   24201064.1294  127177428.592 6  99099315.16043
     -4122.672       -3212.458
  22623853.805    22623853.9034   22623856.4814  118889149.729 7  92640912.83445
     -3472.078       -2705.508
  21044805.460    21044804.6634   21044808.2804  110591201.287 8  86174980.19546
     -1063.855        -828.979
  23771179.179    23771179.0644   23771179.8584  124918402.714 7  97339038.50844
      2951.676        2300.006
  22701670.439    22701670.7524   22701673.3034  119298104.694 7  92959578.98745
      1453.011        1132.220
  22929033.335    22929033.2844   22929035.1624  120492891.266 7  93890594.38745
      1395.548        1087.443
  24082698.008    24082697.3764   24082702.1644  126555422.554 6  98614632.18844
     -4016.369       -3129.646
 08  4 27 10 14  0.0000000  0 12G 1G 4G 5G11G12G14G17G20G23G30G31G32
  22439973.020    22439972.5184   22439975.8824  117922859.769 7  91887961.87045
     -2749.882       -2142.763
  22057512.183    22057512.0934   22057514.9614  115913020.598 7  90321851.76345
      1690.286        1317.101
  21978577.114    21978576.4374   21978580.0464  115498213.580 7  89998626.96545
       -88.765         -69.167
  24710520.320    24710520.3164   24710523.4854  129854656.894 6 101185461.50143
     -4459.887       -3475.239
  22383017.365    22383017.4504   22383019.6184  117623556.714 7  91654740.94346
      -843.248        -657.078
  24224622.778    24224622.2144   24224625.9984  127301246.054 6  99195796.27843
     -4131.739       -3219.536
  22643715.662    22643715.5434   22643718.2694  118993523.289 7  92722242.79045
     -3486.107       -2716.450
  21050938.571    21050937.7324   21050941.4804  110623430.205 8  86200093.45946
     -1084.705        -845.191
  23754351.312    23754351.0404   23754351.9584  124829971.751 7  97270131.31344
      2943.808        2293.876
  22693429.121    22693429.1314   22693431.9624  119254795.087 7  92925831.28145
      1434.296        1117.631
  22921113.584    22921113.6444   22921115.0804  120451272.728 7  93858164.38745
      1379.076        1074.611
  24105646.121    24105645.4084   24105650.2214  126676016.059 6  98708601.23544
     -4023.141       -3134.914
 08  4 27 10 14 30.0000000  0 12G 1G 4G 5G11G12G14G17G20G23G30G31G32
  22455719.597    22455718.9344   22455722.2364  118005607.602 7  91952440.73345
     -2766.478       -2155.702
  22047908.804    22047908.5394   22047911.4144  115862553.932 7  90282527.09345
      1674.300        1304.647
  21979146.860    21979146.0494   21979149.6734  115501206.652 7  90000959.23145
      -110.621         -86.200
  24735991.900    24735991.6934   24735995.2024  129988510.253 6 101289762.79043
     -4463.545       -3478.082
  22387891.049    22387891.0344   22387893.1784  117649167.747 8  91674697.61746
      -864.013        -673.261
  24248236.180    24248235.1904   24248238.8534  127425333.500 6  99292487.81043
     -4140.619       -3226.466
  22663657.132    22663657.1834   22663659.7484  119098316.413 7  92803899.66845
     -3499.955       -2727.229
  21057190.807    21057190.1524   21057193.7634  110656285.950 8  86225695.17146
     -1105.567        -861.495
  23737568.623    23737567.9294   23737569.1444  124741777.274 7  97201408.41544
      2935.929        2287.731
  22685294.398    22685294.6504   22685297.4694  119212047.522 7  92892521.48245
      1415.615        1103.081
  22913287.947    22913288.0274   22913289.7144  120410149.600 7  93826120.31245
      1362.566        1061.731
  24128632.979    24128632.2574   24128636.8424  126796812.475 6  98802728.39144
     -4029.775       -3140.085
 08  4 27 10 15  0.0000000  0 12G 1G 4G 5G11G12G14G17G20G23G30G31G32
  22471560.020    22471559.5274   22471563.0214  118088851.137 7  92017305.83145
     -2782.987       -2168.559
  22038396.174    22038396.1844   22038398.9914  115812566.016 7  90243575.50545
      1658.273        1292.159
  21979841.211    21979840.6274   21979844.0934  115504855.959 7  90003802.85045
      -132.590        -103.320
  24761483.805    24761483.6694   24761487.2444  130122470.778 6 101394147.56243
     -4467.071       -3480.834
  22392882.665    22392882.7504   22392885.0664  117675399.767 7  91695138.15846
      -884.727        -689.397
  24271898.512    24271898.0844   24271901.8834  127549683.574 5  99389383.94643
     -4149.307       -3233.221
  22683677.454    22683677.3574   22683680.0514  119203521.844 7  92885877.62045
     -3513.668       -2737.918
  21063561.355    21063560.7804   21063564.1894  110689764.139 7  86251782.24146
     -1126.257        -877.606
  23720830.001    23720829.9364   23720830.9284  124653817.688 7  97132868.50644
      2928.075        2281.619
  22677266.241    22677266.5004   22677269.3504  119169860.037 7  92859648.12145
      1396.954        1088.537
  22905556.186    22905556.4474   22905558.4754  120369520.314 7  93794461.20445
      1346.119        1048.927
  24151657.153    24151656.4854   24151661.2554  126917805.092 6  98897008.26743
     -4036.298       -3145.156
 08  4 27 10 15 30.0000000  0 12G 1G 4G 5G11G12G14G17G20G23G30G31G32
  22487495.051    22487494.0304   22487497.4004  118172586.920 7  92082554.42245
     -2799.236       -2181.211
  22028975.026    22028974.9744   22028977.9334  115763057.566 7  90204997.52245
      1642.417        1279.802
  21980660.158    21980659.5374   21980663.1684  115509160.832 7  90007157.30845
      -154.274        -120.212
  24786995.059    24786994.8124   24786998.4314  130256535.270 6 101498613.39043
     -4470.346       -3483.382
  22397992.508    22397992.5304   22397994.6734  117702251.502 7  91716061.60346
      -905.248        -705.384
  24295611.313    24295611.0694   24295614.4304  127674292.773 6  99486482.01843
     -4157.789       -3239.837
  22703775.248    22703775.2524   22703777.9314  119309136.864 7  92968175.03445
     -3527.099       -2748.390
  21070050.192    21070049.3654   21070052.8994  110723862.123 8  86278352.07946
     -1146.771        -893.585
  23704136.842    23704136.8034   23704137.4384  124566094.226 7  97064512.58444
      2920.296        2275.553
  22669345.123    22669345.2394   22669347.9024  119128233.461 7  92827211.86145
      1378.336        1074.026
  22897918.754    22897918.8834   22897920.8204  120329384.673 7  93763186.57145
      1329.750        1036.170
  24174717.646    24174716.7704   24174721.9254  127038990.658 6  98991438.48143
     -4042.593       -3150.062
 08  4 27 10 16  0.0000000  0 11G 1G 4G 5G12G14G17G20G23G30G31G32
  22503520.643    22503519.8614   22503523.4934  118256803.905 7  92148178.02645
     -2815.323       -2193.760
  22019643.783    22019643.6794   22019646.5534  115714021.187 7  90166787.32545
      1626.586        1267.469
  21981602.787    21981602.0904   21981605.4214  115514112.591 7  90011015.84645
      -175.924        -137.093
  22403218.420    22403218.4964   22403220.4744  117729713.405 8  91737460.49146
      -925.633        -721.276
  24319370.527    24319370.1444   24319373.5184  127799148.838 6  99583772.43143
     -4166.185       -3246.379
  22723948.567    22723948.7114   22723951.2824  119415149.722 7  93050782.65845
     -3540.454       -2758.813
  21076654.999    21076654.1854   21076657.6584  110758570.427 8  86305397.51046
     -1167.180        -909.501
  23687487.706    23687487.3884   23687487.9664  124478600.610 7  96996335.76444
      2912.527        2269.501
  22661529.213    22661529.3764   22661532.1634  119087160.823 7  92795207.23645
      1359.764        1059.557
  22890373.975    22890374.1254   22890375.8624  120289736.021 7  93732291.47245
      1313.418        1023.436
  24197813.388    24197812.6824   24197817.4494  127160358.154 6  99086010.58844
     -4048.652       -3154.805
 08  4 27 10 16 30.0000000  0 11G 1G 4G 5G12G14G17G20G23G30G31G32
  22519638.616    22519637.9764   22519641.2394  118341503.838 7  92214177.93945
     -2831.245       -2206.161
  22010403.321    22010403.4524   22010406.3844  115665463.211 7  90128949.95545
      1610.737        1255.119
  21982668.706    21982668.1654   21982671.7834  115519715.824 7  90015382.00545
      -197.520        -153.907
  22408561.129    22408560.9884   22408563.1304  117757789.138 7  91759337.69846
      -945.962        -737.114
  24343177.212    24343176.3544   24343180.0194  127924253.149 5  99681256.24643
     -4174.132       -3252.565
  22744198.114    22744198.1034   22744200.7634  119521560.967 7  93133700.49245
     -3553.529       -2768.973
  21083376.506    21083375.6944   21083379.1624  110793892.732 8  86332921.50946
     -1187.499        -925.314
  23670882.973    23670882.7954   23670883.8734  124391343.552 7  96928343.27644
      2904.712        2263.413
  22653820.084    22653820.0084   22653822.9794  119046648.335 7  92763639.09845
      1341.165        1045.062
  22882922.895    22882922.9774   22882924.8764  120250580.376 7  93701780.58345
      1297.066        1010.706
  24220943.042    24220942.9304   24220947.9334  127281909.166 6  99180725.66843
     -4054.624       -3159.444
 08  4 27 10 17  0.0000000  0 11G 1G 4G 5G12G14G17G20G23G30G31G32
  22535847.521    22535846.8444   22535850.2934  118426683.397 7  92280551.63945
     -2847.212       -2218.613
  22001254.232    22001254.2164   22001257.1174  115617384.325 7  90091485.90445
      1594.739        1242.647
  21983859.037    21983858.4654   21983861.8454  115525969.581 7  90020255.06545
      -219.189        -170.793
  22414020.284    22414020.2274   22414022.1424  117786476.954 8  91781691.86546
      -966.383        -753.025
  24367030.266    24367029.8404   24367032.7764  128049601.460 6  99778930.21343
     -4182.318       -3258.953
  22764522.671    22764522.6394   22764525.2284  119628366.630 7  93216925.56345
     -3566.668       -2779.224
  21090214.483    21090213.6774   21090217.2244  110829826.273 8  86360921.52146
     -1207.907        -941.227
  23654323.959    23654323.6244   23654324.1574  124304324.133 7  96860535.98144
      2896.756        2257.205
  22646217.652    22646217.5254   22646220.2444  119006696.964 7  92732508.18045
      1322.418        1030.453
  22875565.687    22875565.7614   22875567.5834  120211918.214 7  93671654.20445
      1280.561         997.841
  24244108.304    24244107.5724   24244111.8004  127403639.862 6  99275580.72143
     -4060.561       -3164.069
 08  4 27 10 17 30.0000000  0 11G 1G 4G 5G12G14G17G20G23G30G31G32
  22552150.264    22552149.7434   22552153.1074  118512354.751 7  92347308.54545
     -2864.025       -2231.706
  21992199.499    21992199.5364   21992202.4264  115569800.853 7  90054407.87645
      1577.724        1229.396
  21985175.663    21985174.9874   21985178.5534  115532888.964 7  90025646.81245
      -241.911        -188.502
  22419598.678    22419598.4734   22419600.4264  117815790.884 8  91804533.88046
      -987.704        -769.636
  24390932.203    24390931.7934   24390935.0424  128175205.852 6  99876803.77143
     -4191.191       -3265.862
  22784924.733    22784924.5484   22784927.0734  119735579.132 7  93300467.71445
     -3580.639       -2790.110
  21097171.644    21097170.7624   21097174.3264  110866385.747 8  86389409.42046
     -1229.213        -957.837
  23637813.139    23637812.6074   23637813.4304  124217559.535 7  96792927.21644
      2887.747        2250.194
  22638724.802    22638724.9054   22638727.6114  118967323.224 7  92701827.37845
      1302.677        1015.068
  22868305.491    22868305.5334   22868307.8144  120173765.931 7  93641925.21745
      1263.108         984.239
  24267310.101    24267309.1344   24267313.8644  127525562.569 6  99370585.23044
     -4067.410       -3169.407
 08  4 27 10 18  0.0000000  0 11G 1G 4G 5G12G14G17G20G23G30G31G32
  22568546.345    22568545.4834   22568548.9864  118598516.380 7  92414447.50045
     -2880.189       -2244.306
  21983239.604    21983239.4804   21983242.2624  115522715.304 7  90017717.79845
      1561.157        1216.485
  21986619.504    21986618.8244   21986622.1034  115540474.854 7  90031557.92145
      -263.991        -205.710
  22425295.787    22425295.9754   22425297.7724  117845731.024 8  91827863.85646
     -1008.452        -785.806
  24414881.993    24414881.5094   24414885.0624  128301063.667 6  99974874.71643
     -4199.512       -3272.340
  22805403.469    22805403.4224   22805406.0954  119843196.663 7  93384325.55745
     -3594.005       -2800.530
  21104247.615    21104246.7024   21104250.3224  110903570.777 8  86418384.91046
     -1249.957        -974.004
  23621351.512    23621351.0284   23621351.8754  124131053.029 7  96725519.56744
      2879.214        2243.551
  22631342.475    22631342.6914   22631345.6144  118928529.568 7  92671598.55245
      1283.402        1000.056
  22861142.854    22861142.9534   22861145.0784  120136123.929 7  93612593.00745
      1246.224         971.137
  24290546.825    24290545.9064   24290550.6724  127647676.098 6  99465738.72343
     -4073.580       -3174.212
 08  4 27 10 18 30.0000000  0 11G 1G 4G 5G12G14G17G20G23G30G31G32
  22585033.317    22585032.5014   22585036.0084  118685155.594 7  92481958.55045
     -2895.774       -2256.448
  21974372.468    21974372.5754   21974375.4684  115476119.408 7  89981409.30345
      1545.139        1203.986
  21988187.563    21988186.9224   21988190.6974  115548717.256 7  90037980.57445
      -285.540        -222.501
  22431110.615    22431110.4454   22431112.4674  117876286.912 7  91851673.65846
     -1028.634        -801.537
  24438877.976    24438877.1974   24438880.4864  128427162.145 6 100073133.31943
     -4207.086       -3278.252
  22825956.900    22825956.7474   22825959.2854  119951206.498 7  93468489.37945
     -3606.701       -2810.434
  21111440.200    21111439.3784   21111443.0504  110941369.482 8  86447838.46646
     -1270.064        -989.673
  23604937.369    23604937.0144   23604937.9214  124044796.760 7  96658306.93044
      2871.174        2237.273
  22624069.454    22624069.5744   22624072.3684  118890308.518 7  92641815.94745
      1264.614         985.407
  22854076.102    22854076.3234   22854078.4304  120098987.825 7  93583656.04245
      1229.568         958.099
  24313818.033    24313818.0824   24313822.3664  127769967.268 6  99561030.46644
     -4079.130       -3178.537
 08  4 27 10 19  0.0000000  0 11G 1G 4G 5G12G14G17G20G23G30G31G32
  22601609.896    22601609.2454   22601612.7964  118772267.638 7  92549838.04445
     -2911.527       -2268.716
  21965598.763    21965598.7844   21965601.6874  115430012.376 7  89945481.74645
      1528.759        1191.247
  21989880.761    21989880.2294   21989883.4934  115557613.915 7  90044913.04745
      -307.433        -239.564
  22437041.792    22437041.7364   22437043.5124  117907455.108 8  91875960.58746
     -1049.090        -817.471
  24462918.026    24462917.5474   24462920.8254  128553495.619 6 100171575.00543
     -4214.963       -3284.393
  22846583.560    22846583.7084   22846586.2104  120059602.724 7  93552954.18945
     -3619.589       -2820.460
  21118749.410    21118748.5284   21118752.0634  110979779.472 8  86477768.36446
     -1290.445       -1005.538
  23588570.854    23588570.5154   23588571.3034  123958790.521 7  96591289.09744
      2862.722        2230.688
  22616904.909    22616905.0614   22616907.8164  118852659.059 7  92612478.72445
      1245.489         970.508
  22847105.117    22847104.9844   22847106.5544  120062354.579 7  93555110.94345
      1212.762         945.015
  24337122.807    24337121.5574   24337125.8374  127892431.882 6  99656457.48943
     -4084.957       -3183.087
 08  4 27 10 19 30.0000000  0 11G 1G 4G 5G12G14G17G20G23G30G31G32
  22618273.873    22618273.4274   22618277.1074  118859838.448 7  92618075.04845
     -2926.521       -2280.399
  21956916.046    21956915.9944   21956918.9554  115384384.147 7  89909927.30945
      1513.074        1179.030
  21991695.703    21991694.9574   21991698.7384  115567153.275 7  90052346.31245
      -328.586        -256.039
  22443087.057    22443087.0924   22443088.7524  117939223.307 8  91900715.06246
     -1068.826        -832.852
  24487001.152    24487000.2034   24487003.2364  128680049.383 6 100270188.34243
     -4222.034       -3289.906
  22867281.448    22867281.3884   22867283.9894  120168370.698 7  93637708.59845
     -3631.673       -2829.885
  21126172.330    21126171.6914   21126175.3494  111018787.673 8  86508164.27446
     -1310.137       -1020.893
  23572250.264    23572249.9244   23572250.6874  123873025.438 7  96524459.21544
      2854.867        2224.568
  22609847.146    22609847.2354   22609850.1854  118815571.064 7  92583578.99745
      1227.018         956.117
  22840227.013    22840227.0314   22840229.6464  120026213.675 7  93526949.18145
      1196.590         932.407
  24360456.541    24360456.0424   24360460.7224  128015055.064 6  99752008.06844
     -4089.955       -3186.969
 08  4 27 10 20  0.0000000  0 11G 1G 4G 5G12G14G17G20G23G30G31G32
  22635025.215    22635024.5924   22635028.2314  118947865.919 7  92686667.82745
     -2942.043       -2292.501
  21948324.697    21948324.6314   21948327.6124  115339237.284 7  89874748.02345
      1496.656        1166.222
  21993633.870    21993633.1044   21993636.5754  115577335.993 7  90060280.91045
      -350.331        -272.984
  22449246.425    22449246.3864   22449248.3124  117971591.281 8  91925936.85846
     -1089.114        -848.658
  24511124.753    24511124.1124   24511126.8784  128806820.980 6 100368971.40544
     -4229.522       -3295.725
  22888049.491    22888049.5294   22888051.8914  120277508.332 7  93722750.95845
     -3644.220       -2839.652
  21133709.182    21133708.5124   21133712.0484  111058394.099 8  86539026.55846
     -1330.348       -1036.635
  23555975.838    23555975.5574   23555976.5674  123787504.466 7  96457819.52544
      2846.420        2217.987
  22602896.912    22602897.0464   22602899.8224  118779047.105 7  92555118.79445
      1207.855         941.186
  22833443.844    22833443.9284   22833446.3584  119990567.788 7  93499173.15045
      1179.761         919.295
  24383821.554    24383821.0604   24383824.3564  128137835.198 7  99847680.83843
     -4095.433       -3191.260
 08  4 27 10 20 30.0000000  0 11G 1G 4G 5G12G14G17G20G23G30G31G32
  22651864.088    22651863.6664   22651867.5344  119036356.553 7  92755621.58845
     -2957.150       -2304.274
  21939827.185    21939827.0574   21939829.8844  115294581.703 7  89839951.51245
      1480.577        1153.694
  21995695.329    21995694.5804   21995698.2564  115588170.796 7  90068723.63345
      -371.803        -289.721
  22455521.387    22455521.3784   22455523.1894  118004566.883 8  91951632.12546
     -1109.066        -864.207
  24535290.630    24535290.1914   24535293.6674  128933816.178 6 100467928.71243
     -4236.625       -3301.267
  22908889.128    22908889.2394   22908891.5994  120387021.460 7  93808085.95045
     -3656.433       -2849.171
  21141361.312    21141360.4734   21141364.0294  111098605.816 8  86570360.43646
     -1350.243       -1052.145
  23539750.171    23539749.7624   23539750.9274  123702238.028 7  96391378.15544
      2838.156        2211.550
  22596056.013    22596055.7384   22596059.0614  118743097.571 7  92527106.20445
      1188.935         926.438
  22826757.537    22826757.5054   22826759.3814  119955426.613 7  93471790.24145
      1163.176         906.376
  24407215.674    24407215.2654   24407220.7294  128260778.682 6  99943481.07243
     -4100.494       -3195.189
 08  4 27 10 21  0.0000000  0 11G 1G 4G 5G12G14G17G20G23G30G31G32
  22668788.503    22668788.1704   22668791.7424  119125294.720 7  92824924.06845
     -2972.271       -2316.060
  21931420.546    21931420.7724   21931423.5224  115250406.238 7  89805529.08945
      1464.274        1140.991
  21997878.853    21997878.1474   21997881.7474  115599644.626 7  90077664.27345
      -393.340        -306.498
  22461909.606    22461909.4914   22461911.3094  118038136.471 7  91977790.23446
     -1129.085        -879.805
  24559497.006    24559496.6184   24559499.1864  129061018.488 6 100567047.37344
     -4243.696       -3306.779
  22929797.440    22929797.2824   22929799.7314  120496893.875 7  93893700.80145
     -3668.569       -2858.639
  21149125.808    21149124.9984   21149128.5764  111139408.712 8  86602154.88746
     -1370.149       -1067.661
  23523571.120    23523570.6054   23523571.7194  123617215.883 7  96325127.23144
      2829.755        2205.004
  22589321.899    22589322.0854   22589324.9154  118707711.288 7  92499532.46045
      1169.895         911.602
  22820164.320    22820164.3144   22820166.4844  119920779.549 7  93444792.60045
      1146.434         893.320
  24430640.298    24430639.9374   24430643.5044  128383869.628 7 100039396.02544
     -4105.584       -3199.162
 08  4 27 10 21 30.0000000  0 11G 1G 4G 5G12G14G17G20G23G30G31G32
  22685799.437    22685798.9904   22685802.5374  119214687.775 7  92894581.01245
     -2987.364       -2327.823
  21923107.912    21923107.8904   21923110.6964  115206722.338 7  89771489.71945
      1447.911        1128.239
  22000185.404    22000184.6864   22000188.5134  115611767.491 7  90087110.67445
      -414.932        -323.321
  22468412.522    22468412.3364   22468414.1014  118072309.068 8  92004418.23046
     -1149.153        -895.446
  24583743.320    24583742.8204   24583745.6394  129188435.596 6 100666333.50444
     -4250.801       -3312.312
  22950775.088    22950775.0504   22950777.4494  120607133.189 7  93979601.60845
     -3680.771       -2868.133
  21157004.632    21157003.7874   21157007.3474  111180812.037 8  86634417.28846
     -1390.153       -1083.240
  23507440.833    23507440.4284   23507441.4954  123532450.340 7  96259076.18844
      2821.161        2198.306
  22582697.536    22582697.6954   22582700.4194  118672899.572 7  92472406.46145
      1150.750         896.683
  22813666.691    22813666.8164   22813668.9654  119886637.426 7  93418188.39945
      1129.598         880.208
  24454092.448    24454091.7564   24454096.7334  128507115.772 6 100135431.91943
     -4110.850       -3203.255
 08  4 27 10 22  0.0000000  0 11G 1G 4G 5G12G14G17G20G23G30G31G32
  22702897.149    22702896.5704   22702900.1274  119304536.108 7  92964592.70745
     -3002.533       -2339.633
  21914889.364    21914889.3564   21914892.2954  115163534.577 7  89737837.00245
      1431.286        1115.287
  22002616.697    22002615.8404   22002619.4114  115624542.151 7  90097064.95745
      -436.729        -340.313
  22475030.250    22475030.2314   22475032.0664  118107086.371 8  92031517.42846
     -1169.351        -911.183
  24608030.696    24608030.4194   24608033.3694  129316066.760 6 100765786.35644
     -4257.905       -3317.843
  22971822.712    22971822.6914   22971825.0424  120717738.641 7  94065787.52845
     -3692.966       -2877.631
  21164997.903    21164997.0454   21165000.5764  111222817.081 7  86667148.48646
     -1410.152       -1098.791
  23491360.233    23491359.8364   23491361.0274  123447946.756 7  96193229.23244
      2812.357        2191.442
  22576183.665    22576183.6734   22576186.6014  118638667.432 7  92445732.09345
      1131.363         881.577
  22807266.713    22807266.8884   22807269.1804  119853004.631 7  93391980.95445
      1112.553         866.927
  24477576.123    24477575.3324   24477579.9174  128630517.278 6 100231588.79444
     -4115.943       -3207.199
 08  4 27 10 22 30.0000000  0 11G 1G 4G 5G12G14G17G20G23G30G31G32
  22720079.736    22720079.3664   22720083.2394  119394833.368 7  93034954.17645
     -3017.373       -2351.202
  21906764.741    21906764.8044   21906767.9384  115120840.737 7  89704569.11845
      1414.845        1102.474
  22005170.570    22005169.7484   22005173.8724  115637964.783 7  90107524.15145
      -458.216        -357.051
  22481762.342    22481762.2814   22481764.2344  118142464.188 7  92059084.56546
     -1189.260        -926.696
  24632357.604    24632357.2304   24632360.1444  129443905.752 6 100865401.17843
     -4264.738       -3323.174
  22992938.846    22992938.5884   22992941.2314  120828704.181 7  94152254.09445
     -3704.791       -2886.849
  21173104.737    21173104.0684   21173107.6564  111265419.116 8  86700344.81746
     -1430.002       -1114.266
  23475329.190    23475328.9144   23475329.9204  123363703.628 7  96127585.28744
      2803.709        2184.706
  22569779.327    22569779.5984   22569782.1654  118605012.785 7  92419507.71045
      1112.193         866.640
  22800963.601    22800963.7744   22800965.6524  119819878.331 7  93366168.00545
      1095.731         853.815
  24501086.129    24501085.9124   24501090.4624  128754066.810 6 100327860.48843
     -4120.600       -3210.767
 08  4 27 10 23  0.0000000  0 11G 1G 4G 5G12G14G17G20G23G30G31G32
  22737348.618    22737348.1934   22737351.7264  119485580.940 7  93105666.59045
     -3032.581       -2363.048
  21898735.507    21898735.4444   21898738.5954  115078646.201 7  89671690.27645
      1397.947        1089.314
  22007849.162    22007848.4364   22007851.8244  115652039.008 7  90118491.04645
      -480.196        -374.179
  22488609.512    22488609.2894   22488611.1574  118178445.306 7  92087121.83746
     -1209.565        -942.513
  24656724.357    24656723.7754   24656726.6594  129571953.041 6 100965178.34844
     -4271.883       -3328.745
  23014123.425    23014123.4364   23014125.9514  120940030.389 7  94239001.57645
     -3717.023       -2896.365
  21181325.943    21181325.1254   21181328.5404  111308620.938 8  86734008.56346
     -1450.278       -1130.112
  23459348.851    23459348.5084   23459349.9234  123279727.101 7  96062149.10444
      2794.510        2177.540
  22563486.295    22563486.2764   22563488.8584  118571941.048 7  92393737.55645
      1092.464         851.272
  22794757.710    22794757.7544   22794759.3174  119787265.163 7  93340755.13946
      1078.344         840.273
  24524627.371    24524626.6924   24524631.0964  128877767.819 6 100424250.40444
     -4126.115       -3215.172
 08  4 27 10 23 30.0000000  0 11G 1G 4G 5G12G14G17G20G23G30G31G32
  22754703.155    22754702.7434   22754706.3304  119576778.829 7  93176729.87345
     -3047.294       -2374.515
  21890802.169    21890802.0644   21890804.9864  115036955.490 7  89639204.09145
      1381.392        1076.403
  22010651.765    22010651.0054   22010654.8784  115666767.611 7  90129967.89845
      -501.751        -390.973
  22495571.418    22495571.4414   22495573.2574  118215031.436 8  92115630.52946
     -1229.484        -958.039
  24681130.487    24681129.9084   24681132.7634  129700208.069 6 101065117.32144
     -4278.446       -3333.860
  23035377.001    23035376.8024   23035379.5814  121051717.150 7  94326029.97145
     -3728.741       -2905.504
  21189661.197    21189660.7004   21189664.1054  111352423.231 8  86768139.99146
     -1469.934       -1145.397
  23443420.352    23443420.0904   23443421.4164  123196021.695 7  95996923.99544
      2785.736        2170.708
  22557304.252    22557304.5054   22557307.2634  118539456.549 7  92368424.95245
      1073.140         836.215
  22788649.464    22788649.6634   22788651.9554  119755168.908 7  93315745.26445
      1061.402         827.064
  24548194.300    24548193.9584   24548198.5894  129001621.060 6 100520759.63743
     -4130.840       -3218.848
 08  4 27 10 24  0.0000000  0 11G 1G 4G 5G12G14G17G20G23G30G31G32
  22772140.439    22772140.0564   22772143.6354  119668412.325 7  93248132.58045
     -3061.728       -2385.754
  21882962.061    21882962.2014   21882965.2774  114995757.593 7  89607101.91845
      1365.010        1063.640
  22013576.653    22013576.0804   22013579.5804  115682138.000 7  90141944.84445
      -523.059        -407.577
  22502645.978    22502646.2054   22502648.0024  118252209.340 8  92144600.33746
     -1249.127        -973.345
  24705572.877    24705572.6864   24705575.6874  129828655.424 6 101165206.12043
     -4284.762       -3338.768
  23056695.878    23056695.8974   23056698.7624  121163749.420 7  94413327.69245
     -3740.169       -2914.416
  21198108.792    21198107.9714   21198111.4324  111396813.718 8  86802729.91446
     -1489.481       -1160.632
  23427541.610    23427541.2734   23427542.5224  123112577.996 7  95931902.86944
      2777.044        2163.932
  22551232.222    22551232.6444   22551235.3974  118507548.627 7  92343561.64945
      1053.950         821.253
  22782637.885    22782637.8814   22782639.6964  119723577.809 7  93291128.81545
      1044.537         813.914
  24571789.492    24571789.0534   24571793.5994  129125610.232 6 100617374.88844
     -4135.247       -3222.281
 08  4 27 10 24 30.0000000  0 11G 1G 4G 5G12G14G17G20G23G30G31G32
  22789659.971    22789659.4784   22789662.9774  119760476.838 7  93319871.04545
     -3075.959       -2396.847
  21875216.239    21875216.2814   21875219.2984  114955052.130 7  89575383.34645
      1348.653        1050.902
  22016623.480    22016622.7594   22016626.1484  115698148.352 7  90154420.45445
      -544.331        -424.156
  22509832.907    22509832.8534   22509834.7624  118289976.164 8  92174029.03846
     -1268.721        -988.614
  24730051.610    24730050.9744   24730054.1894  129957291.123 6 101265441.77143
     -4290.940       -3343.595
  23078080.088    23078080.0274   23078082.6124  121276122.586 7  94500891.07545
     -3751.413       -2923.175
  21206667.065    21206666.3064   21206669.8194  111441789.465 8  86837776.12046
     -1508.872       -1175.733
  23411712.842    23411712.5704   23411713.5194  123029397.053 7  95867086.58944
      2768.332        2157.137
  22545270.353    22545270.6324   22545273.1864  118476217.008 7  92319147.44745
      1034.771         806.313
  22776722.514    22776722.4924   22776724.7294  119692492.313 7  93266906.50846
      1027.774         800.859
  24595408.398    24595407.5314   24595412.7284  129249731.087 6 100714092.43343
     -4139.434       -3225.524
 08  4 27 10 25  0.0000000  0 11G 1G 4G 5G12G14G17G20G23G30G31G32
  22807262.460    22807261.6274   22807265.1524  119852976.362 7  93391948.53945
     -3090.457       -2408.150
  21867565.584    21867565.5564   21867568.6564  114914847.407 8  89544055.01745
      1331.872        1037.823
  22019792.911    22019792.3074   22019795.9924  115714804.654 7  90167399.38545
      -565.894        -440.958
  22517132.701    22517132.7954   22517134.7214  118328337.535 7  92203921.04246
     -1288.524       -1004.045
  24754566.414    24754566.0024   24754568.8174  130086118.029 6 101365826.50044
     -4297.293       -3348.541
  23099529.460    23099529.5264   23099532.1494  121388840.279 7  94588723.08345
     -3762.901       -2932.131
  21215338.252    21215337.2894   21215340.7054  111487354.261 7  86873280.93346
     -1528.629       -1191.150
  23395935.511    23395935.1454   23395936.5244  122946486.731 7  95802481.03644
      2759.219        2150.058
  22539419.261    22539419.3714   22539422.0934  118445469.679 7  92295188.49045
      1015.227         791.090
  22770904.793    22770904.8304   22770906.5574  119661919.560 7  93243083.60445
      1010.589         787.484
  24619054.329    24619053.7804   24619057.7294  129373987.634 6 100810915.82743
     -4144.042       -3229.135
 08  4 27 10 25 30.0000000  0 11G 1G 4G 5G12G14G17G20G23G30G31G32
  22824946.445    22824945.8144   22824949.1864  119945907.367 7  93464362.34545
     -3104.835       -2419.351
  21860010.040    21860010.1744   21860013.1214  114875143.732 7  89513117.09645
      1315.153        1024.794
  22023085.043    22023084.5924   22023088.0334  115732105.667 7  90180880.71745
      -587.391        -457.707
  22524545.331    22524545.2944   22524547.2244  118367290.965 7  92234274.38846
     -1308.259       -1019.422
  24779116.553    24779116.2574   24779119.1964  130215131.777 6 101466356.72443
     -4303.481       -3353.349
  23121043.635    23121043.7994   23121046.1664  121501897.791 7  94676819.83745
     -3774.135       -2940.886
  21224120.519    21224119.7514   21224123.0944  111533507.384 7  86909244.59946
     -1548.166       -1206.369
  23380209.905    23380209.6424   23380210.9194  122863849.254 7  95738088.41144
      2750.073        2142.907
  22533679.842    22533679.7544   22533682.3044  118415307.212 7  92271685.28145
       995.678         775.852
  22765184.331    22765184.5264   22765186.6434  119631859.731 7  93219660.12946
       993.472         774.130
  24642723.463    24642722.7194   24642728.6954  129498376.389 6 100907842.01043
     -4148.447       -3232.545
 08  4 27 10 26  0.0000000  0 11G 1G 4G 5G12G14G17G20G23G30G31G32
  22842712.603    22842711.5764   22842715.1954  120039267.422 7  93537110.43045
     -3119.137       -2430.496
  21852550.673    21852550.5304   21852553.5304  114835943.172 7  89482571.23045
      1298.273        1011.645
  22026500.347    22026499.6894   22026502.9534  115750051.706 7  90194864.63945
      -608.950        -474.509
  22532070.510    22532070.5344   22532072.4774  118406835.959 7  92265088.65946
     -1328.036       -1034.837
  24803702.565    24803701.9644   24803704.9244  130344330.178 6 101567030.78244
     -4309.651       -3358.160
  23142622.314    23142622.2664   23142624.8354  121615293.034 7  94765179.68445
     -3785.417       -2949.676
  21233014.838    21233013.9284   21233017.3274  111580247.163 8  86945665.34646
     -1567.803       -1221.682
  23364536.841    23364536.6504   23364537.5794  122781486.837 7  95673910.06044
      2740.820        2135.697
  22528051.488    22528051.6364   22528054.3204  118385731.921 7  92248639.66545
       976.055         760.561
  22759562.414    22759562.5214   22759564.6404  119602315.637 7  93196638.74146
       976.227         760.701
  24666419.942    24666419.2584   24666423.1734  129622895.425 6 101004869.80443
     -4152.754       -3235.922
 08  4 27 10 26 30.0000000  0 11G 1G 4G 5G12G14G17G20G23G30G31G32
  22860559.174    22860558.7674   22860562.5154  120133054.373 7  93610191.10645
     -3133.158       -2441.422
  21845187.058    21845187.0004   21845189.8954  114797247.572 7  89452418.84445
      1281.603         998.654
  22030037.934    22030037.2074   22030041.0184  115768642.907 7  90209351.30145
      -630.266        -491.118
  22539708.255    22539708.1704   22539710.0334  118446972.330 8  92296363.75846
     -1347.539       -1050.033
  24828322.949    24828322.4174   24828325.5584  130473710.728 6 101667846.79544
     -4315.513       -3362.744
  23164264.351    23164264.4534   23164266.9814  121729023.619 7  94853800.83845
     -3796.380       -2958.213
  21242020.126    21242019.5744   21242022.8374  111627572.364 8  86982542.25146
     -1587.089       -1236.691
  23348916.613    23348916.1574   23348917.3894  122699402.161 7  95609948.00444
      2731.675        2128.576
  22522535.314    22522535.5014   22522538.2024  118356745.028 7  92226052.49145
       956.596         745.399
  22754038.956    22754039.1704   22754040.9504  119573287.995 8  93174019.58446
       959.183         747.412
  24690138.332    24690138.2014   24690143.6814  129747543.341 6 101101998.19343
     -4156.856       -3239.109
 08  4 27 10 27  0.0000000  0 11G 1G 4G 5G12G14G17G20G23G30G31G32
  22878486.155    22878485.7654   22878489.3824  120227262.185 7  93683599.78245
     -3147.260       -2452.411
  21837919.254    21837919.2564   21837922.0014  114759054.656 8  89422658.11245
      1264.686         985.468
  22033698.052    22033697.2204   22033700.4524  115787875.271 7  90224337.55845
      -651.795        -507.887
  22547457.554    22547457.3194   22547459.3484  118487694.746 7  92328095.51746
     -1367.197       -1065.346
  24852976.095    24852975.8714   24852979.0984  130603266.625 6 101768799.41444
     -4321.451       -3367.362
  23185969.180    23185969.1574   23185971.7154  121843082.689 7  94942678.06145
     -3807.422       -2966.824
  21251136.396    21251135.6234   21251138.8744  111675478.529 8  87019871.88046
     -1606.559       -1251.870
  23333349.155    23333348.9284   23333349.8664  122617594.133 7  95546201.52844
      2722.260        2121.239
  22517130.933    22517131.0414   22517134.0144  118328344.725 7  92203922.38245
       936.844         730.006
  22748612.929    22748613.1744   22748615.4654  119544775.324 7  93151801.94245
       941.799         733.875
  24713882.185    24713881.6674   24713886.0074  129872312.920 6 101199221.23944
     -4161.047       -3242.378
 08  4 27 10 27 30.0000000  0 10G 1G 4G 5G12G17G20G23G30G31G32
  22896494.314    22896493.6794   22896497.4174  120321894.219 7  93757338.92945
     -3161.505       -2463.502
  21830748.497    21830748.5274   21830751.2904  114721372.409 8  89393295.33145
      1247.458         972.043
  22037480.413    22037479.7524   22037483.7104  115807754.695 7  90239828.02845
      -673.518        -524.827
  22555319.173    22555319.1484   22555321.1564  118529008.907 7  92360288.35846
     -1387.067       -1080.831
  23207737.230    23207737.0344   23207739.4574  121957473.697 7  95031813.92845
     -3818.609       -2975.538
  21260364.090    21260363.3734   21260366.6604  111723969.965 8  87057657.31746
     -1626.223       -1267.181
  23317835.932    23317835.4874   23317836.3964  122536071.363 7  95482677.32644
      2712.585        2113.706
  22511839.764    22511839.9294   22511842.6434  118300538.962 7  92182255.55845
       916.859         714.431
  22743286.298    22743286.3794   22743288.7294  119516784.852 7  93129991.10245
       924.183         720.133
  24737647.874    24737647.1384   24737652.6124  129997208.711 6 101296542.65843
     -4165.322       -3245.705
 08  4 27 10 28  0.0000000  0 10G 1G 4G 5G12G17G20G23G30G31G32
  22914582.418    22914581.9574   22914586.0074  120416948.665 7  93831407.13745
     -3175.427       -2474.353
  21823675.486    21823675.3154   21823678.1634  114684203.067 7  89364332.23245
      1230.509         958.832
  22041386.745    22041386.2494   22041389.6864  115828281.661 7  90255823.06945
      -694.931        -541.508
  22563293.386    22563293.4424   22563295.4764  118570914.286 7  92392941.88346
     -1406.574       -1096.036
  23229567.894    23229567.6814   23229570.1604  122072194.116 7  95121206.35345
     -3829.400       -2983.943
  21269703.278    21269702.3834   21269705.6634  111773046.858 8  87095898.99546
     -1645.578       -1282.275
  23302377.558    23302377.0554   23302378.1654  122454837.010 7  95419377.84844
      2703.039        2106.260
  22506662.189    22506662.2354   22506664.8384  118273329.973 7  92161053.77145
       897.074         699.018
  22738059.658    22738059.9244   22738062.4604  119489319.100 7  93108589.32745
       906.833         706.616
  24761439.508    24761438.8034   24761443.1624  130122228.900 6 101393960.99443
     -4169.321       -3248.826
 08  4 27 10 28 30.0000000  0 10G 1G 4G 5G12G17G20G23G30G31G32
  22932750.768    22932750.0744   22932753.8154  120512421.354 7  93905801.35845
     -3189.363       -2485.218
  21816699.903    21816699.6484   21816702.4624  114647545.828 7  89335768.16545
      1213.344         945.464
  22045415.681    22045415.1064   22045418.6174  115849453.875 7  90272320.91345
      -716.474        -558.290
  22571379.967    22571379.7504   22571381.7194  118613407.756 7  92426053.67146
     -1426.226       -1111.349
  23251460.180    23251460.2174   23251462.6874  122187239.818 7  95210852.39345
     -3840.260       -2992.422
  21279152.956    21279152.2414   21279155.4604  111822705.484 8  87134593.92546
     -1665.021       -1297.444
  23286974.029    23286973.5244   23286974.6334  122373891.742 7  95356303.66944
      2693.294        2098.668
  22501598.025    22501597.9764   22501600.5244  118246717.203 7  92140316.55445
       877.147         683.489
  22732933.109    22732933.3094   22732935.2744  119462376.788 7  93087595.37045
       889.329         692.980
  24785252.591    24785251.9964   24785256.6344  130247368.337 6 101491471.83643
     -4173.339       -3251.945
 08  4 27 10 29  0.0000000  0 10G 1G 4G 5G12G17G20G23G30G31G32
  22950998.253    22950997.5434   22951001.3114  120608311.990 7  93980521.34645
     -3203.276       -2496.061
  21809822.298    21809822.1904   21809825.1034  114611404.798 7  89307606.33145
      1196.116         932.037
  22049568.125    22049567.3234   22049570.8004  115871273.190 7  90289322.96445
      -738.040        -575.099
  22579578.113    22579578.1274   22579580.2764  118656490.078 7  92459624.16446
     -1445.876       -1126.655
  23273414.175    23273414.2504   23273416.8314  122302610.135 7  95300751.50545
     -3851.048       -3000.833
  21288713.762    21288712.8634   21288716.1514  111872947.210 8  87173743.44546
     -1684.338       -1312.453
  23271626.484    23271626.0424   23271627.0824  122293239.962 7  95293458.14044
      2683.493        2091.033
  22496647.715    22496647.8494   22496650.6804  118220704.651 7  92120047.05445
       857.079         667.851
  22727906.702    22727906.5634   22727908.2714  119435961.980 7  93067012.55746
       871.686         679.234
  24809088.875    24809088.4404   24809093.0564  130372628.576 6 101589077.21543
     -4177.272       -3255.009
 08  4 27 10 29 30.0000000  0 10G 1G 4G 5G12G17G20G23G30G31G32
  22969325.325    22969324.6064   22969328.6144  120704621.938 7  94055567.97145
     -3217.440       -2507.103
  21803043.980    21803044.0304   21803046.9704  114575785.628 7  89279851.13445
      1178.446         918.269
  22053844.220    22053843.1754   22053846.6054  115893743.597 7  90306832.37645
      -759.974        -592.189
  22587889.232    22587889.1504   22587891.3354  118700165.287 7  92493656.89846
     -1465.850       -1142.227
  23295430.292    23295430.2914   23295432.8304  122418305.969 7  95390904.27745
     -3862.029       -3009.375
  21298385.813    21298385.0064   21298388.3474  111923774.453 8  87213348.97146
     -1704.123       -1327.903
  23256336.028    23256335.7264   23256336.6054  122212888.285 7  95230846.45044
      2673.233        2083.040
  22491813.003    22491813.0684   22491815.9064  118195297.743 7  92100249.45845
       836.667         651.949
  22722981.103    22722981.0684   22722983.3314  119410080.126 7  93046845.05746
       853.713         665.230
  24832948.131    24832947.5944   24832952.9314  130498010.363 6 101686777.21943
     -4181.502       -3258.302
 08  4 27 10 30  0.0000000  0 10G 1G 4G 5G12G17G20G23G30G31G32
  22987732.171    22987731.7404   22987735.3374  120801350.418 7  94130940.76645
     -3231.512       -2518.062
  21796365.775    21796365.8534   21796368.7254  114540691.480 7  89252505.07045
      1160.769         904.495
  22058244.238    22058243.3794   22058247.0204  115916866.138 7  90324849.93645
      -781.876        -609.256
  22596313.176    22596313.0314   22596315.2654  118744433.240 7  92528151.44246
     -1485.743       -1157.724
  23317508.016    23317508.0514   23317510.5424  122534325.757 7  95481309.36945
     -3872.990       -3017.914
  21308169.457    21308168.6014   21308171.8654  111975187.854 8  87253411.44946
     -1723.773       -1343.191
  23241103.564    23241103.1784   23241104.0014  122132840.761 7  95168471.76644
      2662.859        2074.957
  22487094.150    22487094.2214   22487096.8334  118170499.615 7  92080926.25645
       816.152         635.963
  22718157.999    22718158.0444   22718159.7944  119384733.675 7  93027094.49946
       835.649         651.160
  24856830.500    24856830.1364   24856835.1744  130623513.263 6 101784571.47343
     -4185.723       -3261.617
 08  4 27 10 30 30.0000000  0 10G 1G 4G 5G12G17G20G23G30G31G32
  23006219.445    23006219.1114   23006222.9004  120898502.389 7  94206643.57845
     -3245.283       -2528.789
  21789789.312    21789789.3674   21789792.0774  114506131.297 7  89225575.01845
      1143.213         890.810
  22062769.476    22062768.7844   22062772.4484  115940648.225 7  90343381.43445
      -803.547        -626.140
  22604850.916    22604850.9554   22604853.0744  118789300.303 7  92563112.82646
     -1505.371       -1173.016
  23339648.362    23339648.5644   23339651.0994  122650674.941 7  95571971.17445
     -3883.598       -3026.182
  21318065.685    21318064.7944   21318068.0914  112027193.472 8  87293935.40746
     -1743.237       -1358.378
  23225930.834    23225930.4544   23225931.3494  122053107.730 7  95106342.16544
      2652.672        2067.021
  22482492.650    22482492.6884   22482495.7544  118146319.478 7  92062084.55745
       795.847         620.140
  22713438.426    22713438.4214   22713439.9054  119359931.869 7  93007768.61746
       817.798         637.236
  24880737.809    24880736.8384   24880741.2834  130749142.436 6 101882464.21043
     -4189.537       -3264.558
 08  4 27 10 31  0.0000000  0 10G 1G 4G 5G12G17G20G23G30G31G32
  23024785.461    23024785.0644   23024788.4464  120996065.749 7  94282666.89945
     -3259.076       -2539.535
  21783312.907    21783312.9574   21783315.6834  114472097.420 8  89199055.11345
      1125.543         877.053
  22067419.020    22067418.3174   22067421.6334  115965080.073 7  90362419.24745
      -825.380        -643.158
  22613500.984    22613500.9004   22613503.1154  118834756.226 7  92598533.06246
     -1525.133       -1188.416
  23361849.304    23361849.4174   23361851.7414  122767340.698 7  95662879.56645
     -3894.212       -3034.448
  21328072.617    21328071.7494   21328075.1704  112079780.359 8  87334912.09346
     -1762.734       -1373.565
  23210816.997    23210816.3774   23210817.2024  121973681.922 7  95044451.89644
      2642.243        2058.895
  22478007.546    22478007.6624   22478010.4864  118122749.584 7  92043718.38145
       775.344         604.161
  22708820.925    22708820.7924   22708822.5004  119335666.435 7  92988860.49146
       799.759         623.194
  24904665.846    24904665.3534   24904670.2804  130874885.874 6 101980445.70443
     -4193.471       -3267.638
 08  4 27 10 31 30.0000000  0 10G 1G 4G 5G12G17G20G23G30G31G32
  23043427.120    23043426.7314   23043429.9814  121094028.026 7  94359001.04945
     -3272.553       -2550.041
  21776934.961    21776935.1064   21776937.6854  114438581.133 8  89172938.54045
      1108.038         863.395
  22072189.793    22072189.0764   22072192.7074  115990151.026 7  90381955.04545
      -846.872        -659.892
  22622260.721    22622260.7884   22622262.9354  118880789.875 8  92634403.52046
     -1544.571       -1203.560
  23384107.823    23384107.8684   23384110.4784  122884310.150 7  95754024.61145
     -3904.502       -3042.471
  21338188.112    21338187.3384   21338190.6384  112132937.429 8  87376333.20046
     -1781.894       -1388.486
  23195759.840    23195759.2224   23195760.0684  121894555.898 7  94982795.17344
      2631.974        2050.894
  22473636.654    22473636.9684   22473639.5414  118099780.807 7  92025820.60045
       755.083         588.378
  22704303.297    22704303.4314   22704305.3544  119311928.964 7  92970363.73146
       781.970         609.338
  24928613.978    24928613.2674   24928618.2554  131000732.369 6 102078507.87343
     -4197.124       -3270.475
 08  4 27 10 32  0.0000000  0 10G 1G 4G 5G12G17G20G23G30G31G32
  23062148.010    23062147.4314   23062151.0354  121192406.572 7  94435659.56145
     -3286.390       -2560.821
  21770659.695    21770659.6804   21770662.2964  114405604.028 8  89147242.22245
      1090.056         849.390
  22077086.180    22077085.4334   22077088.6484  116015880.767 7  90402004.21745
      -868.836        -677.011
  22631134.107    22631134.1544   22631136.1954  118927419.910 7  92670738.70446
     -1564.463       -1219.065
  23406427.543    23406427.3624   23406430.0144  123001600.603 7  95845419.82045
     -3915.231       -3050.831
  21348415.593    21348414.8254   21348418.0964  112186682.927 8  87418212.64846
     -1801.577       -1403.854
  23180763.803    23180763.6064   23180764.4374  121815752.208 7  94921389.58944
      2621.171        2042.478
  22469384.280    22469384.5314   22469387.1124  118077434.673 7  92008408.04645
       734.264         572.148
  22699890.826    22699890.8884   22699892.7194  119288740.952 7  92952295.34746
       763.563         594.975
  24952584.401    24952583.4154   24952588.2034  131126699.599 6 102176664.41143
     -4201.114       -3273.594
 08  4 27 10 32 30.0000000  0 10G 1G 4G 5G12G17G20G23G30G31G32
  23080949.586    23080948.9334   23080952.4124  121291208.840 7  94512648.16345
     -3300.513       -2571.821
  21764489.016    21764489.0924   21764491.4744  114373177.251 7  89121974.59945
      1071.642         835.044
  22082109.335    22082108.5664   22082112.1534  116042278.790 7  90422574.10145
      -891.172        -694.415
  22640122.561    22640122.4984   22640124.5814  118974655.021 7  92707545.36246
     -1584.673       -1234.804
  23428809.483    23428809.4954   23428812.0174  123119219.200 7  95937070.70445
     -3926.120       -3059.313
  21358756.742    21358755.8594   21358759.0354  112241026.583 8  87460558.64146
     -1821.484       -1419.348
  23165831.711    23165831.3574   23165832.0374  121737283.113 7  94860244.74945
      2609.980        2033.744
  22465252.801    22465252.7874   22465255.6834  118055722.910 7  91991489.83745
       713.041         555.611
  22695584.883    22695584.9484   22695586.6784  119266113.129 8  92934663.35946
       744.815         580.365
  24976579.142    24976578.5724   24976583.6414  131252794.357 6 102274920.25243
     -4205.333       -3276.879
 08  4 27 10 33  0.0000000  0 10G 1G 4G 5G12G17G20G23G30G31G32
  23099831.566    23099830.7894   23099834.2404  121390430.932 7  94589963.86845
     -3314.435       -2582.671
  21758423.095    21758423.2434   21758425.6554  114341300.990 8  89097135.93446
      1053.296         820.754
  22087259.720    22087259.0714   22087262.2154  116069343.339 7  90443663.40845
      -913.343        -711.695
  22649225.481    22649225.6314   22649227.7414  119022492.601 7  92744821.43146
     -1604.678       -1250.397
  23451252.923    23451253.2064   23451255.6454  123237161.703 7  96028973.94644
     -3936.846       -3067.675
  21369210.882    21369210.2174   21369213.1814  112295964.256 8  87503367.30146
     -1841.208       -1434.709
  23150963.529    23150963.0614   23150964.0924  121659150.003 7  94799361.92745
      2598.749        2025.009
  22461241.826    22461241.9524   22461244.8474  118034645.297 7  91975065.73145
       691.931         539.165
  22691385.387    22691385.5114   22691387.5884  119244045.342 7  92917467.63546
       726.193         565.872
  25000598.387    25000597.5684   25000602.3384  131379012.097 6 102373271.32143
     -4209.380       -3280.014
 08  4 27 10 33 30.0000000  0 10G 1G 4G 5G12G17G20G23G30G31G32
  23118790.813    23118790.2874   23118794.1094  121490065.293 7  94667600.88445
     -3328.057       -2593.287
  21752461.150    21752461.2674   21752463.9034  114309971.725 7  89072723.53146
      1035.120         806.589
  22092535.392    22092534.7144   22092537.9974  116097068.716 7  90465267.64645
      -935.254        -728.773
  22658442.335    22658442.3544   22658444.5614  119070926.533 7  92782562.20446
     -1624.474       -1265.832
  23473757.184    23473757.1474   23473759.7644  123355420.269 7  96121123.42144
     -3947.299       -3075.813
  21379777.256    21379776.4474   21379779.3134  112351489.636 8  87546633.80346
     -1860.706       -1449.900
  23136158.846    23136158.3024   23136159.3754  121581350.160 7  94738738.60745
      2587.651        2016.349
  22457350.863    22457351.0104   22457353.6114  118014198.412 7  91959133.11845
       670.951         522.817
  22687292.133    22687292.2934   22687294.1274  119222534.354 7  92900705.90946
       707.663         551.421
  25024638.910    25024638.1034   25024642.6814  131505348.610 6 102471715.83343
     -4213.191       -3283.016
 08  4 27 10 34  0.0000000  0  9G 1G 4G 5G12G17G20G23G30G31
  23137829.588    23137829.1094   23137833.1254  121590114.707 7  94745561.34145
     -3341.888       -2604.063
  21746605.004    21746604.9844   21746607.7724  114279196.277 7  89048742.66246
      1016.593         792.152
  22097938.430    22097937.6214   22097940.6844  116125459.866 7  90487390.66445
      -957.484        -746.097
  22667773.300    22667773.0694   22667775.3694  119119960.975 7  92820770.89546
     -1644.521       -1281.443
  23496321.304    23496321.4474   23496324.3194  123473997.248 7  96213520.93144
     -3957.892       -3084.069
  21390456.188    21390455.2954   21390458.2474  112407606.946 8  87590361.56146
     -1880.440       -1465.276
  23121418.752    23121418.4624   23121419.5564  121503891.595 7  94678381.24245
      2576.238        2007.465
  22453581.465    22453581.4564   22453584.1404  117994388.800 8  91943697.09745
       649.657         506.224
  22683305.754    22683305.9384   22683307.4544  119201586.419 7  92884382.94146
       688.840         536.763
 08  4 27 10 34 30.0000000  0  9G 1G 4G 5G12G17G20G23G30G31
  23156946.479    23156946.0264   23156949.9954  121690574.963 7  94823841.96945
     -3355.425       -2614.630
  21740853.947    21740853.9384   21740856.5904  114248974.408 8  89025193.17746
       998.224         777.831
  22103466.756    22103466.0064   22103469.5184  116154514.466 7  90510030.67445
      -979.464        -763.221
  22677217.955    22677217.8334   22677219.8784  119169592.846 7  92859445.11346
     -1664.285       -1296.852
  23518945.734    23518945.8454   23518948.4864  123592888.566 6  96306163.48344
     -3968.274       -3092.167
  21401246.841    21401246.0054   21401248.9974  112464313.101 8  87634548.16246
     -1899.946       -1480.476
  23106743.808    23106743.6014   23106744.6534  121426774.864 7  94618290.24445
      2564.850        1998.573
  22449932.736    22449932.7594   22449935.5224  117975216.057 7  91928757.32245
       628.536         489.768
  22679426.623    22679426.6914   22679428.6974  119181200.561 7  92868497.81846
       670.170         522.200
 08  4 27 10 35  0.0000000  0  9G 1G 4G 5G12G17G20G23G30G31
  23176140.832    23176140.3024   23176144.2584  121791441.456 7  94902439.32745
     -3368.942       -2625.150
  21735208.172    21735208.1854   21735210.8774  114219305.206 7  89002074.29446
       979.755         763.443
  22109121.551    22109120.8564   22109123.9404  116184229.681 7  90533185.40445
     -1001.454        -780.354
  22686775.701    22686775.5264   22686777.5794  119219818.814 7  92898582.28046
     -1684.046       -1312.246
  23541628.898    23541628.8044   23541631.5114  123712088.917 7  96399046.89044
     -3978.434       -3100.075
  21412149.046    21412148.3214   21412151.4044  112521604.354 8  87679190.65546
     -1919.411       -1495.642
  23092134.285    23092133.7054   23092134.9594  121350000.539 7  94558466.21445
      2553.449        1989.695
  22446405.629    22446405.4924   22446407.8494  117956679.486 7  91914313.22645
       607.287         473.209
  22675654.350    22675654.3944   22675655.8634  119161376.445 7  92853050.40446
       651.476         507.649
 08  4 27 10 35 30.0000000  0  9G 1G 4G 5G12G17G20G23G30G31
  23195413.025    23195412.5514   23195416.5574  121892717.161 7  94981355.38845
     -3382.449       -2635.667
  21729668.916    21729668.8484   21729671.5874  114190196.232 8  88979391.98546
       961.127         748.934
  22114902.505    22114901.8014   22114905.5064  116214611.064 7  90556859.24945
     -1023.604        -797.614
  22696447.327    22696447.1324   22696449.1224  119270643.520 7  92938185.96846
     -1703.931       -1327.741
  23564371.171    23564371.1954   23564373.9944  123831601.445 7  96492173.58744
     -3988.683       -3108.062
  21423163.508    21423162.6984   21423165.7794  112579485.442 8  87724292.80546
     -1938.973       -1510.889
  23077591.470    23077591.1074   23077591.8944  121273576.890 7  94498915.35045
      2541.784        1980.614
  22443000.301    22443000.3914   22443003.3504  117938786.457 7  91900370.63645
       585.893         456.539
  22671989.982    22671990.0674   22671992.1204  119142121.239 7  92838046.34346
       632.568         492.900
 08  4 27 10 36  0.0000000  0  9G 1G 4G 5G12G17G20G23G30G31
  23214761.294    23214760.6514   23214764.6754  121994391.736 7  95060582.21745
     -3395.687       -2645.981
  21724235.077    21724235.0024   21724237.7484  114161640.977 8  88957141.15546
       942.688         734.562
  22120809.175    22120808.4884   22120811.8434  116245650.116 7  90581045.56245
     -1045.509        -814.682
  22706231.132    22706230.9164   22706232.8654  119322057.649 7  92978248.92646
     -1723.525       -1343.006
  23587170.842    23587171.0574   23587173.6954  123951415.650 6  96585535.45644
     -3998.698       -3115.876
  21434288.127    21434287.5494   21434290.6104  112637947.057 8  87769847.35946
     -1958.278       -1525.938
  23063114.282    23063113.7174   23063114.4654  121197498.806 7  94439633.78945
      2530.256        1971.638
  22439716.873    22439716.6954   22439719.6204  117921529.989 7  91886924.06345
       564.681         440.011
  22668432.905    22668432.7964   22668434.6564  119123427.893 8  92823480.13346
       613.854         478.330
 08  4 27 10 36 30.0000000  0  9G 1G 4G 5G12G17G20G23G30G31
  23234184.579    23234184.2454   23234188.4764  122096464.570 7  95140119.43545
     -3408.841       -2656.238
  21718907.073    21718907.0264   21718909.7904  114133642.420 7  88935324.11445
       924.179         720.139
  22126840.806    22126840.0404   22126843.6134  116277347.820 7  90605745.11245
     -1067.353        -831.700
  22716127.104    22716126.9484   22716128.9744  119374061.663 7  93018771.53846
     -1743.065       -1358.234
  23610028.088    23610028.0074   23610030.5634  124071529.640 6  96679130.78844
     -4008.569       -3123.561
  21445523.513    21445522.7884   21445525.9064  112696988.878 8  87815854.00046
     -1977.515       -1540.924
  23048703.165    23048703.0584   23048704.0514  121121769.695 7  94380624.03645
      2518.687        1962.618
  22436554.932    22436554.9424   22436557.3104  117904913.238 7  91873975.97945
       543.444         423.461
  22664983.070    22664983.1874   22664985.0284  119105299.377 7  92809353.89646
       595.087         463.712
 08  4 27 10 37  0.0000000  0  9G 1G 4G 5G12G17G20G23G30G31
  23253684.006    23253683.5824   23253687.5384  122198933.068 7  95219965.06345
     -3422.215       -2666.659
  21713685.382    21713685.2594   21713688.2454  114106202.148 8  88913942.05646
       905.364         705.478
  22132998.023    22132997.4494   22133000.8604  116309703.668 7  90630957.47045
     -1089.495        -848.956
  22726135.205    22726135.0974   22726137.0444  119426654.541 7  93059753.00146
     -1762.907       -1373.694
  23632942.054    23632941.6754   23632944.3454  124191941.208 6  96772957.97744
     -4018.631       -3131.404
  21456868.923    21456868.2964   21456871.4194  112756609.875 8  87862311.95146
     -1996.970       -1556.076
  23034359.753    23034359.2474   23034360.1684  121046392.995 7  94321888.96045
      2506.656        1953.237
  22433514.503    22433514.5714   22433517.1964  117888937.539 7  91861527.38945
       521.815         406.612
  22661641.096    22661641.1954   22661643.1224  119087737.177 8  92795669.03146
       575.962         448.806
 08  4 27 10 37 30.0000000  0  9G 1G 4G 5G12G17G20G23G30G31
  23273253.058    23273252.5764   23273256.8304  122301769.918 7  95300097.59445
     -3434.285       -2676.065
  21708565.337    21708565.3874   21708568.3464  114079297.079 8  88892977.06846
       887.626         691.649
  22139275.435    22139274.6934   22139278.2654  116342692.625 7  90656663.18745
     -1110.430        -865.270
  22736250.589    22736250.4224   22736252.2584  119479810.186 7  93101172.98246
     -1781.506       -1388.183
  23655906.571    23655906.7154   23655909.2854  124312623.002 6  96866995.63444
     -4027.458       -3138.279
  21468319.903    21468319.0544   21468322.0464  112816783.973 8  87909200.89346
     -2015.258       -1570.325
  23020078.686    23020078.2724   23020079.0444  120971346.384 7  94263411.10945
      2495.812        1944.787
  22430591.948    22430592.0094   22430594.6754  117873579.793 7  91849560.33245
       501.326         390.643
  22658402.331    22658402.3794   22658404.2324  119070717.864 8  92782407.24646
       557.952         434.763
 08  4 27 10 38  0.0000000  0  9G 1G 4G 5G12G17G20G23G30G31
  22993103.719    22993103.1684   22993107.0864  120829573.235 7  94152931.38245
     -3447.046       -2686.013
  21403758.022    21403758.2204   21403761.2594  112477524.234 8  87644842.28346
       869.129         677.247
  21845884.850    21845884.0364   21845887.4824  114800911.677 7  89455275.44445
     -1132.119        -882.172
  22446683.567    22446683.5274   22446685.4484  117958125.872 7  91915444.94346
     -1800.767       -1403.197
  23379134.132    23379134.1334   23379136.9694  122858172.851 6  95733657.66844
     -4036.918       -3145.652
  21180087.061    21180086.0074   21180088.9534  111302107.998 8  86728933.69046
     -2034.242       -1585.126
  22706071.419    22706071.0394   22706071.8444  119321226.923 7  92977603.82245
      2484.003        1935.588
  22127997.860    22127997.8664   22128000.5454  116283437.363 8  90610488.32945
       480.131         374.123
  22355477.489    22355477.7954   22355479.8974  117478838.889 8  91541982.09646
       539.221         420.170
 08  4 27 10 38 30.0000000  0  9G 1G 4G 5G12G17G20G23G30G31
  23012819.691    23012819.2804   23012823.2544  120933182.432 7  94233665.80345
     -3460.148       -2696.217
  21398850.904    21398850.9284   21398854.0134  112451736.468 7  87624747.87946
       850.103         662.419
  21852411.081    21852410.3724   21852413.4474  114835207.293 7  89481999.30345
     -1154.210        -899.379
  22457020.163    22457020.2314   22457022.1394  118012446.072 7  91957772.37846
     -1820.509       -1418.577
  23402208.630    23402208.5444   23402211.4064  122979429.701 6  95828143.41544
     -4046.771       -3153.317
  21191755.200    21191754.5164   21191757.4484  111363426.408 8  86776714.25046
     -2053.603       -1600.204
  22691925.749    22691925.2964   22691926.2084  119246891.168 7  92919679.87145
      2471.750        1926.033
  22125319.170    22125319.3674   22125321.9894  116269361.735 8  90599520.34945
       458.336         357.148
  22352454.660    22352454.6654   22352456.4444  117462951.246 7  91529602.07746
       519.976         405.180
 08  4 27 10 39  0.0000000  0  9G 1G 4G 5G12G17G20G23G30G31
  23032608.926    23032608.3094   23032612.4094  121037174.341 7  94314698.38045
     -3472.915       -2706.159
  21394050.410    21394050.4644   21394053.5994  112426509.598 8  87605090.45246
       831.378         647.829
  21859061.497    21859060.7624   21859064.1494  114870155.883 7  89509231.98445
     -1175.978        -916.347
  22467467.361    22467467.4604   22467469.4244  118067347.066 7  92000552.37446
     -1839.862       -1433.654
  23425337.383    23425336.9744   23425340.1624  123100970.017 6  95922849.95444
     -4056.221       -3160.695
  21203532.192    21203531.5324   21203534.5804  111425315.120 8  86824939.14246
     -2072.572       -1614.985
  22677848.654    22677848.2524   22677849.2244  119172914.996 7  92862036.08445
      2459.685        1916.638
  22122763.316    22122763.3804   22122766.0554  116255929.528 7  90589053.71545
       436.849         340.407
  22349539.343    22349539.4174   22349541.3714  117447632.290 7  91517665.24946
       501.028         390.418
 08  4 27 10 39 30.0000000  0  9G 1G 4G 5G12G17G20G23G30G31
  23052472.321    23052471.8364   23052475.9714  121141558.391 7  94396036.65345
     -3485.831       -2716.246
  21389359.343    21389359.4054   21389362.3114  112401856.995 8  87585880.66546
       812.339         632.992
  21865838.207    21865837.5524   21865840.9984  114905768.148 7  89536981.81245
     -1197.981        -933.495
  22478027.189    22478027.2404   22478029.0914  118122838.990 7  92043792.84046
     -1859.405       -1448.894
  23448521.315    23448521.2464   23448524.2804  123222803.593 6  96017785.15444
     -4065.831       -3168.180
  21215419.827    21215419.1164   21215422.2274  111487784.306 8  86873616.27446
     -2091.871       -1630.029
  22663842.505    22663842.0544   22663843.2084  119099312.321 7  92804683.20145
      2447.312        1907.019
  22120332.042    22120332.1434   22120334.7774  116243153.530 7  90579098.43045
       415.043         323.408
  22346734.687    22346734.7694   22346736.7834  117432894.191 7  91506181.02746
       481.726         375.372
 08  4 27 10 40  0.0000000  0  9G 1G 4G 5G12G17G20G23G30G31
  23072408.339    23072407.6974   23072411.7374  121246322.673 7  94477671.27545
     -3498.459       -2726.073
  21384775.820    21384775.8994   21384778.8634  112377770.671 7  87567112.16346
       793.429         618.255
  21872739.624    21872738.7564   21872742.1364  114942033.983 7  89565240.90045
     -1219.750        -950.453
  22488697.400    22488697.3944   22488699.2154  118178911.064 7  92087485.35546
     -1878.725       -1463.941
  23471759.071    23471759.0534   23471761.8054  123344917.318 6  96112938.46944
     -4075.080       -3175.378
  21227415.761    21227414.9944   21227418.0794  111550823.173 8  86922737.50646
     -2110.804       -1644.787
  22649906.057    22649905.7854   22649906.9644  119026076.838 7  92747616.53645
      2435.070        1897.451
  22118024.265    22118024.3494   22118026.7884  116231025.747 8  90569648.22745
       393.417         306.558
  22344039.174    22344039.3144   22344041.0914  117418728.694 8  91495143.03446
       462.610         360.472
 08  4 27 10 40 30.0000000  0  9G 1G 4G 5G12G17G20G23G30G31
  23092421.893    23092421.4464   23092425.5544  121351495.380 7  94559624.08245
     -3512.257       -2736.823
  21380306.342    21380306.1124   21380309.2384  112354282.898 8  87548810.09846
       773.201         602.502
  21879770.544    21879769.9084   21879773.4584  114978983.733 7  89594032.91145
     -1242.779        -968.400
  22499483.695    22499483.5324   22499485.5484  118235592.849 7  92131652.97146
     -1899.284       -1479.970
  23495055.252    23495055.5124   23495058.1134  123467340.144 6  96208332.87044
     -4085.640       -3183.615
  21239525.582    21239524.7654   21239527.8984  111614460.930 8  86972325.31546
     -2130.997       -1660.517
  22636046.270    22636045.8414   22636047.1334  118953241.774 7  92690861.89345
      2421.368        1886.776
  22115845.866    22115845.7124   22115848.4194  116219578.152 8  90560728.05245
       370.482         288.683
  22341459.099    22341458.8854   22341460.5044  117405167.772 8  91484576.08746
       442.155         344.531
 08  4 27 10 41  0.0000000  0  9G 1G 4G 5G12G17G20G23G30G31
  23112508.799    23112508.0974   23112512.1504  121457051.263 7  94641875.41745
     -3524.922       -2746.689
  21375946.342    21375946.3344   21375949.3194  112331372.230 8  87530957.73446
       754.033         587.553
  21886927.586    21886926.8774   21886930.4634  115016593.872 7  89623339.52645
     -1264.752        -985.518
  22510381.123    22510381.2434   22510383.1184  118292860.388 7  92176277.02146
     -1918.721       -1495.106
  23518405.626    23518405.5444   23518408.4574  123590046.219 6  96303947.92044
     -4094.906       -3190.836
  21251744.923    21251744.1884   21251747.1884  111678673.307 8  87022360.82946
     -2150.013       -1675.333
  22622258.523    22622258.1774   22622259.1244  118880787.385 7  92634404.06245
      2408.706        1876.925
  22113792.590    22113792.7914   22113795.2484  116208789.225 7  90552321.12445
       348.586         271.629
  22338989.049    22338989.1674   22338990.9464  117392189.984 8  91474463.57846
       422.842         329.492
 08  4 27 10 41 30.0000000  0  9G 1G 4G 5G12G17G20G23G30G31
  23132667.012    23132666.3594   23132670.2834  121562982.361 7  94724419.16145
     -3537.335       -2756.367
  21371695.822    21371695.7384   21371698.6234  112309033.872 8  87513551.09346
       734.997         572.729
  21894209.038    21894208.4324   21894211.6864  115054858.017 7  89653155.74945
     -1286.427       -1002.420
  22521388.968    22521388.9584   22521390.9094  118350706.593 7  92221351.96646
     -1937.910       -1510.058
  23541807.958    23541808.2044   23541810.7994  123713027.279 6  96399777.46644
     -4103.978       -3197.916
  21264072.181    21264071.3894   21264074.5734  111743453.617 8  87072839.02446
     -2168.885       -1690.042
  22608542.621    22608542.4454   22608543.3424  118808710.232 7  92578240.08745
      2396.213        1867.176
  22111863.749    22111863.9264   22111866.9674  116198654.313 7  90544423.81345
       326.858         254.689
  22336629.592    22336629.5724   22336631.5214  117379790.840 8  91464801.90146
       403.557         314.456
 08  4 27 10 42  0.0000000  0  9G 1G 4G 5G12G17G20G23G30G31
  23152895.207    23152894.7614   23152899.0164  121669285.876 7  94807253.10045
     -3549.495       -2765.851
  21367554.147    21367554.1094   21367557.0234  112287269.501 8  87496591.73446
       716.019         557.943
  21901614.656    21901614.0074   21901617.5074  115093775.166 7  89683480.78345
     -1307.978       -1019.201
  22532506.814    22532506.7104   22532508.5664  118409130.101 7  92266876.77046
     -1956.939       -1524.891
  23565262.594    23565262.2754   23565265.0244  123836280.674 6  96495819.17044
     -4112.881       -3204.849
  21276507.143    21276506.5234   21276509.5164  111808799.478 7  87123757.70146
     -2187.417       -1704.470
  22594898.894    22594898.6724   22594899.7154  118737012.895 7  92522372.13345
      2383.668        1857.396
  22110059.779    22110059.9334   22110062.9494  116189174.548 7  90537036.99945
       305.176         237.801
  22334380.550    22334380.5324   22334382.1924  117367971.001 8  91455591.56846
       384.449         299.568
 08  4 27 10 42 30.0000000  0  9G 1G 4G 5G12G17G20G23G30G31
  23173197.178    23173196.4134   23173200.4334  121775969.627 7  94890383.21945
     -3562.447       -2775.925
  21363524.027    21363523.9474   21363527.0284  112266091.156 8  87480089.17346
       696.160         542.462
  21909146.812    21909145.8804   21909149.2334  115133355.069 7  89714322.26545
     -1330.342       -1036.628
  22543735.833    22543735.7424   22543737.7224  118468139.499 8  92312858.13846
     -1976.755       -1540.328
  23588769.992    23588769.9124   23588772.7064  123959813.621 6  96592078.51844
     -4122.408       -3212.269
  21289051.686    21289050.9094   21289054.0024  111874720.408 8  87175124.62046
     -2206.833       -1719.581
  22581330.172    22581329.8144   22581330.7474  118665708.133 7  92466810.10145
      2370.243        1846.940
  22108382.770    22108382.9614   22108385.7874  116180361.427 7  90530169.66545
       282.660         220.253
  22332243.818    22332243.7904   22332245.5364  117356742.720 7  91446842.41646
       364.418         283.962
 08  4 27 10 43  0.0000000  0  9G 1G 4G 5G12G17G20G23G30G31
  23193570.121    23193569.5494   23193573.2014  121883032.401 7  94973808.81345
     -3574.746       -2785.526
  21359605.708    21359605.7724   21359608.4744  112245500.563 7  87464044.59546
       676.862         527.424
  21916804.378    21916803.7034   21916807.0164  115173597.658 7  89745680.15945
     -1352.150       -1053.623
  22555076.243    22555076.1864   22555078.2544  118527734.264 7  92359295.62146
     -1995.904       -1555.245
  23612330.269    23612330.2234   23612332.9374  124083624.200 6  96688554.29244
     -4131.329       -3219.211
  21301705.122    21301704.2614   21301707.2074  111941215.951 8  87226939.68646
     -2225.746       -1734.362
  22567836.586    22567836.1384   22567837.2314  118594799.436 7  92411556.58345
      2357.284        1836.842
  22106833.004    22106832.9224   22106835.8754  116172216.729 7  90523823.15445
       260.675         203.124
  22330219.694    22330219.6724   22330221.2744  117346107.078 7  91438555.06246
       344.958         268.799
 08  4 27 10 43 30.0000000  0  9G 1G 4G 5G12G17G20G23G30G31
  23214012.282    23214011.5104   23214015.3784  121990455.520 7  95057515.22045
     -3586.937       -2795.012
  21355796.610    21355796.5454   21355799.3204  112225483.004 8  87448446.50746
       657.488         512.339
  21924585.296    21924584.4794   21924587.9944  115214486.073 7  89777541.28545
     -1373.916       -1070.589
  22566524.873    22566524.8464   22566526.7664  118587897.160 7  92406175.81146
     -2015.077       -1570.192
  23635940.023    23635939.7964   23635942.7024  124207694.231 6  96785232.28244
     -4140.187       -3226.121
  21314464.270    21314463.5464   21314466.5654  112008267.748 8  87279188.01646
     -2244.514       -1748.973
  22554415.563    22554415.5054   22554416.6894  118524273.456 7  92356601.19945
      2344.233        1826.675
  22105407.377    22105407.4354   22105410.2534  116164725.452 7  90517985.82445
       238.615         185.937
  22328305.448    22328305.6014   22328307.4324  117336048.953 8  91430717.55946
       325.410         253.568
 08  4 27 10 44  0.0000000  0  9G 1G 4G 5G12G17G20G23G30G31
  23234523.019    23234522.4354   23234526.5904  122098241.086 7  95141503.94045
     -3599.061       -2804.465
  21352097.667    21352097.5514   21352100.3374  112206044.636 8  87433299.64946
       638.072         497.193
  21932489.547    21932488.9834   21932492.4574  115256024.311 7  89809908.76145
     -1395.612       -1087.492
  22578082.062    22578082.2014   22578084.0904  118648631.424 7  92453501.22346
     -2034.158       -1585.061
  23659599.549    23659599.2424   23659602.1514  124332025.472 6  96882113.70044
     -4148.892       -3232.908
  21327330.260    21327329.4514   21327332.5194  112075878.457 8  87331871.59446
     -2263.216       -1763.556
  22541069.381    22541069.1934   22541070.3544  118454137.705 7  92301949.96145
      2331.163        1816.481
  22104107.390    22104107.4594   22104110.5314  116157893.889 7  90512662.54145
       216.513         168.712
  22326502.743    22326502.9204   22326504.5764  117326574.711 7  91423335.02146
       305.882         238.350
 08  4 27 10 44 30.0000000  0  9G 1G 4G 5G12G17G20G23G30G31
  23255102.458    23255102.0204   23255105.8554  122206387.357 7  95225773.76645
     -3610.858       -2813.654
  21348509.323    21348509.2274   21348511.7764  112187187.553 8  87418605.91046
       618.862         482.225
  21940517.782    21940517.1764   21940520.3854  115298212.013 7  89842782.31945
     -1417.071       -1104.208
  22589748.055    22589748.0144   22589750.0754  118709936.037 7  92501271.05146
     -2052.979       -1599.722
  23683308.318    23683308.2294   23683311.0514  124456616.003 6  96979197.17944
     -4157.295       -3239.444
  21340302.457    21340301.6804   21340304.6624  112144048.201 7  87384990.90846
     -2281.611       -1777.884
  22527797.638    22527797.5424   22527798.6754  118384395.198 7  92247605.12545
      2318.151        1806.351
  22102932.999    22102933.0784   22102936.1774  116151723.549 7  90507854.53245
       194.657         151.677
  22324810.991    22324811.1974   22324812.6644  117317685.832 8  91416408.69546
       286.531         223.273
 08  4 27 10 45  0.0000000  0  9G 1G 4G 5G12G17G20G23G30G31
  23275750.747    23275750.3604   23275754.4634  122314895.585 7  95310325.69445
     -3622.808       -2822.971
  21345032.346    21345032.3684   21345034.9044  112168916.537 8  87404368.82446
       599.384         467.050
  21948669.750    21948669.1184   21948672.4954  115341051.956 7  89876164.09945
     -1438.712       -1121.065
  22601522.972    22601522.9674   22601524.8954  118771813.360 7  92549487.14146
     -2071.961       -1614.516
  23707066.451    23707066.6004   23707069.2854  124581466.665 6  97076483.39144
     -4165.819       -3246.097
  21353381.344    21353380.5274   21353383.6074  112212778.510 8  87438547.10646
     -2300.152       -1792.327
  22514602.367    22514601.8544   22514603.1134  118315052.505 7  92193571.96145
      2304.900        1796.020
  22101886.037    22101886.0544   22101888.4594  116146219.080 7  90503565.36945
       172.506         134.423
  22323231.666    22323231.8104   22323233.5794  117309386.951 7  91409942.09746
       266.937         207.990
 08  4 27 10 45 30.0000000  0  9G 1G 4G 5G12G17G20G23G30G31
  23296468.208    23296467.7504   23296471.4784  122423765.906 7  95395159.79645
     -3634.927       -2832.412
  21341667.602    21341667.5934   21341670.1424  112151235.280 8  87390591.26446
       579.621         451.659
  21956946.653    21956945.8204   21956949.2064  115384545.830 7  89910055.43945
     -1460.612       -1138.138
  22613407.129    22613407.1494   22613409.0134  118834264.488 7  92598150.36246
     -2091.183       -1629.492
  23730874.510    23730874.2464   23730877.2084  124706577.352 6  97173972.24144
     -4174.562       -3252.903
  21366567.153    21366566.2344   21366569.4874  112282070.602 8  87492540.96446
     -2318.991       -1807.005
  22501484.029    22501483.3684   22501484.3914  118246114.742 7  92139854.36945
      2291.236        1785.374
  22100965.706    22100965.6394   22100968.5324  116141384.138 8  90499797.87845
       150.063         116.932
  22321765.756    22321765.6364   22321767.3604  117301681.447 7  91403937.77546
       247.005         192.467
 08  4 27 10 46  0.0000000  0  9G 1G 4G 5G12G17G20G23G30G31
  23317252.210    23317251.9424   23317255.6434  122532987.842 7  95480267.83145
     -3646.487       -2841.425
  21338413.919    21338414.0244   21338416.5624  112134137.433 8  87377268.29246
       560.237         436.547
  21965345.999    21965345.1494   21965348.5924  115428685.007 7  89944449.60645
     -1481.937       -1154.761
  22625398.540    22625398.4044   22625400.4294  118897280.081 7  92647253.42646
     -2109.843       -1644.037
  23754729.541    23754729.7024   23754732.4774  124831937.805 6  97271655.70744
     -4182.699       -3259.247
  21379858.054    21379857.3284   21379860.3804  112351914.457 8  87546964.69346
     -2337.221       -1821.214
  22488441.405    22488440.9654   22488441.9974  118177576.622 7  92086448.18645
      2277.996        1775.052
  22100171.768    22100171.8124   22100174.3274  116137211.736 8  90496546.68645
       128.121          99.829
  22320411.322    22320411.1434   22320412.7124  117294562.498 8  91398390.34146
       227.547         177.318
 08  4 27 10 46 30.0000000  0  9G 1G 4G 5G12G17G20G23G30G31
  23338103.353    23338102.7954   23338106.4374  122642559.002 7  95565647.94845
     -3658.236       -2850.575
  21335271.548    21335271.6234   21335274.2134  112117623.962 8  87364400.62546
       540.640         421.281
  21973867.997    21973867.2464   21973870.5734  115473468.507 7  89979345.84445
     -1503.563       -1171.610
  22637497.027    22637497.0474   22637499.0704  118960858.781 7  92696795.29146
     -2128.698       -1658.725
  23778631.957    23778632.0884   23778634.9744  124957545.182 6  97369531.44044
     -4191.066       -3265.757
  21393253.668    21393252.9524   21393256.0444  112422309.156 7  87601817.75346
     -2355.682       -1835.597
  22475475.307    22475475.0124   22475475.9834  118109440.493 7  92033355.11845
      2264.416        1764.488
  22099503.914    22099503.9464   22099506.7064  116133703.157 7  90493812.73445
       105.826          82.467
  22319168.144    22319168.3274   22319170.2094  117288031.299 8  91393300.92946
       207.838         161.956
 08  4 27 10 47  0.0000000  0  9G 1G 4G 5G12G17G20G23G30G31
  23359021.253    23359020.6424   23359024.4144  122752483.321 7  95651303.28545
     -3669.958       -2859.715
  21332241.713    21332241.8134   21332244.4934  112101702.536 8  87351994.24946
       520.876         405.879
  21982513.450    21982512.7244   21982516.2954  115518901.553 7  90014748.22745
     -1525.207       -1188.474
  22649703.688    22649703.5654   22649705.7604  119025004.986 7  92746779.35246
     -2147.612       -1673.468
  23802582.172    23802582.0694   23802584.9994  125083403.143 6  97467602.47944
     -4199.354       -3272.219
  21406754.958    21406754.2694   21406757.2134  112493258.910 8  87657103.29546
     -2374.153       -1849.988
  22462587.642    22462587.3304   22462588.3374  118041715.316 7  91980582.24445
      2250.678        1753.773
  22098964.038    22098964.1154   22098966.6934  116130865.374 7  90491601.50245
        83.439          65.015
  22318038.737    22318038.6894   22318040.3634  117282095.350 7  91388675.54246
       187.939         146.444
 08  4 27 10 47 30.0000000  0  9G 1G 4G 5G12G17G20G23G30G31
  23380005.332    23380004.4894   23380008.6904  122862756.572 7  95737230.58145
     -3681.588       -2868.773
  21329324.724    21329324.7154   21329327.3694  112086372.660 8  87340048.81146
       501.145         390.508
  21991282.238    21991281.4654   21991284.8404  115564981.374 7  90050654.56945
     -1546.753       -1205.263
  22662017.484    22662017.6304   22662019.6244  119089715.476 7  92797203.10245
     -2166.397       -1688.097
  23826579.005    23826579.2964   23826581.7124  125209507.490 6  97565865.56244
     -4207.568       -3278.630
  21420361.392    21420360.5594   21420363.7484  112564760.023 8  87712818.28646
     -2392.574       -1864.339
  22449778.491    22449778.0594   22449779.1264  117974402.198 7  91928130.50245
      2236.878        1743.020
  22098551.399    22098551.4834   22098553.8384  116128697.231 7  90489912.06745
        61.096          47.603
  22317022.084    22317022.0674   22317023.9554  117276753.466 8  91384513.11846
       168.139         131.018
 08  4 27 10 48  0.0000000  0  9G 1G 4G 5G12G17G20G23G30G31
  23401055.001    23401054.4384   23401058.1894  122973372.415 7  95823424.73545
     -3693.067       -2877.706
  21326519.817    21326519.7364   21326522.3774  112071631.450 8  87328561.89146
       481.352         375.107
  22000173.209    22000172.4454   22000175.6704  115611703.578 7  90087061.49145
     -1568.306       -1222.055
  22674437.995    22674438.0374   22674440.1344  119154985.488 7  92848062.86045
     -2185.196       -1702.748
  23850621.612    23850621.8324   23850624.1074  125335851.859 6  97664315.74144
     -4215.633       -3284.901
  21434071.463    21434070.7914   21434073.8794  112636808.494 8  87768960.10846
     -2410.920       -1878.647
  22437047.470    22437047.0244   22437048.0284  117907499.614 7  91875998.58445
      2222.969        1732.183
  22098265.497    22098265.5924   22098268.3374  116127196.299 8  90488742.53545
        38.686          30.150
  22316118.072    22316118.1414   22316120.1654  117272002.980 7  91380811.34346
       148.271         115.541
 08  4 27 10 48 30.0000000  0  9G 1G 4G 5G12G17G20G23G30G31
  23422169.822    23422169.2524   23422173.1434  123084332.599 7  95909887.24845
     -3704.379       -2886.532
  21323827.659    21323827.7074   21323830.5004  112057485.038 8  87317538.62946
       461.601         359.681
  22009186.856    22009186.1544   22009189.4104  115659070.814 7  90123971.02745
     -1589.646       -1238.682
  22686965.455    22686965.3354   22686967.3734  119220816.934 7  92899360.11946
     -2203.719       -1717.183
  23874709.689    23874710.1524   23874712.6714  125462437.377 7  97762953.73044
     -4223.510       -3291.047
  21447886.099    21447885.4674   21447888.6104  112709405.315 8  87825529.07646
     -2429.023       -1892.747
  22424395.604    22424395.4454   22424396.2234  117841014.653 7  91824192.22145
      2209.162        1721.417
  22098107.995    22098108.0794   22098110.7994  116126367.217 7  90488096.50846
        16.402          12.781
  22315327.631    22315327.7064   22315329.6604  117267849.034 7  91377574.45746
       128.489         100.130
 08  4 27 10 49  0.0000000  0  9G 1G 4G 5G12G17G20G23G30G31
  23443349.053    23443348.8164   23443352.4454  123195632.318 7  95996614.31244
     -3715.505       -2895.195
  21321248.633    21321248.5184   21321251.3884  112043931.863 8  87306977.81246
       442.014         344.430
  22018322.605    22018322.0594   22018325.3254  115707080.007 7  90161380.78645
     -1610.858       -1255.215
  22699598.711    22699598.7784   22699600.8504  119287206.329 7  92951092.11045
     -2222.156       -1731.550
  23898843.880    23898843.7264   23898846.0854  125589259.440 6  97861776.09144
     -4231.195       -3297.033
  21461804.743    21461803.8444   21461807.1064  112782546.656 8  87882522.14146
     -2446.955       -1906.686
  22411823.701    22411823.2024   22411823.8904  117774947.572 7  91772711.47145
      2195.340        1710.653
  22098077.340    22098077.4024   22098080.5134  116126208.974 7  90487973.21345
        -5.803          -4.523
  22314650.500    22314650.4874   22314652.4424  117264289.987 8  91374801.15046
       108.823          84.801
 08  4 27 10 49 30.0000000  0  9G 1G 4G 5G12G17G20G23G30G31
  23464592.156    23464591.6164   23464595.6664  123307264.368 7  96083600.33745
     -3726.695       -2903.919
  21318781.586    21318781.6304   21318784.4574  112030968.360 8  87296876.48546
       422.174         328.957
  22027579.393    22027578.8394   22027582.1494  115755725.233 7  90199286.17045
     -1632.196       -1271.844
  22712337.407    22712337.1504   22712339.1784  119354146.979 7  93003253.64945
     -2240.641       -1745.951
  23923020.814    23923020.6964   23923023.3024  125716310.482 6  97960776.84744
     -4238.803       -3302.964
  21475825.397    21475824.7394   21475828.1664  112856226.119 8  87939934.43646
     -2465.024       -1920.802
  22399330.741    22399330.1674   22399330.8494  117709296.032 7  91721554.43945
      2181.342        1699.733
  22098174.867    22098174.7574   22098177.3884  116126717.411 8  90488369.40746
       -28.152         -21.936
  22314085.621    22314085.7514   22314087.6984  117261321.680 8  91372488.15946
        88.993          69.347
 08  4 27 10 50  0.0000000  0  9G 1G 4G 5G12G17G20G23G30G31
  23485897.924    23485897.4834   23485901.1704  123419226.819 7  96170843.83245
     -3737.575       -2912.397
  21316427.080    21316427.1284   21316430.2324  112018595.846 8  87287235.55046
       402.529         313.660
  22036957.453    22036956.5884   22036960.1324  115805005.859 7  90237686.67345
     -1653.281       -1288.277
  22725180.277    22725180.2384   22725182.3564  119421637.856 7  93055843.94345
     -2258.876       -1760.164
  23947240.953    23947240.9164   23947243.4474  125843588.852 7  98059954.96744
     -4246.432       -3308.914
  21489948.477    21489947.8444   21489951.1624  112930443.451 7  87997766.16745
     -2482.883       -1934.707
  22386917.149    22386916.7454   22386917.3414  117644063.078 7  91670723.56845
      2167.378        1688.861
  22098398.240    22098398.3844   22098401.2914  116127893.906 7  90489286.15345
       -50.403         -39.278
  22313633.669    22313633.6844   22313635.4774  117258945.541 7  91370636.55046
        69.315          54.024
 08  4 27 10 50 30.0000000  0  9G 1G 4G 5G12G17G20G23G30G31
  23507266.291    23507265.8914   23507269.8384  123531520.015 7  96258345.05745
     -3748.323       -2920.767
  21314185.923    21314185.9604   21314188.7414  112006818.354 8  87278058.31546
       382.895         298.365
  22046456.197    22046455.4124   22046459.1094  115854923.499 7  90276583.53945
     -1674.275       -1304.629
  22738128.535    22738128.2584   22738130.3634  119489680.094 7  93108863.86345
     -2276.997       -1774.285
  23971503.991    23971504.0694   23971506.7294  125971093.856 7  98159309.53244
     -4253.663       -3314.538
  21504174.149    21504173.3514   21504176.6354  113005199.092 7  88056017.38746
     -2500.542       -1948.466
  22374584.577    22374584.0564   22374584.5564  117579254.081 7  91620222.99445
      2153.451        1678.015
  22098750.222    22098750.1594   22098753.0374  116129742.158 7  90490726.36045
       -72.549         -56.532
  22313294.826    22313294.9084   22313296.9104  117257165.340 8  91369249.34546
        49.639          38.674
 08  4 27 10 51  0.0000000  0  9G 1G 4G 5G12G17G20G23G30G31
  23528697.160    23528696.5684   23528700.3764  123644137.181 7  96346098.55444
     -3759.145       -2929.207
  21312057.497    21312057.5014   21312060.4254  111995632.887 8  87269342.27046
       363.102         282.944
  22056075.462    22056074.6424   22056078.2384  115905473.237 7  90315972.96845
     -1695.376       -1321.070
  22751180.139    22751180.1514   22751182.1834  119558268.235 7  93162309.16145
     -2295.204       -1788.466
  23995809.860    23995809.5754   23995812.3514  126098818.877 7  98258835.30544
     -4261.004       -3320.260
  21518500.910    21518500.1414   21518503.3514  113080487.636 7  88114684.01645
     -2518.356       -1962.365
  22362332.240    22362331.8564   22362332.2194  117514867.832 7  91570051.83345
      2139.272        1666.966
  22099229.060    22099229.2334   22099231.9544  116132258.919 7  90492687.48245
       -94.912         -73.955
  22313068.785    22313068.8284   22313070.8134  117255978.392 8  91368324.62146
        29.861          23.269
 08  4 27 10 51 30.0000000  0  9G 1G 4G 5G12G17G20G23G30G31
  23550189.163    23550188.6374   23550192.2014  123757078.191 7  96434104.51244
     -3770.103       -2937.739
  21310042.352    21310042.3794   21310045.2394  111985042.490 8  87261089.86946
       343.019         267.294
  22065815.156    22065814.4034   22065818.1484  115956655.691 7  90355855.42445
     -1716.694       -1337.687
  22764335.893    22764335.8404   22764337.9674  119627401.973 7  93216179.60245
     -2313.616       -1802.817
  24020156.496    24020156.6324   24020159.5114  126226763.793 6  98358532.57944
     -4268.543       -3326.136
  21532928.756    21532928.2524   21532931.5764  113156308.717 8  88173765.51745
     -2536.271       -1976.318
  22350161.149    22350160.6764   22350161.5124  117450908.415 7  91520213.29945
      2124.765        1655.667
  22099835.361    22099835.5684   22099838.5114  116135446.508 7  90495171.31946
      -117.494         -91.551
  22312956.086    22312956.2044   22312958.1314  117255386.597 7  91367863.55546
         9.734           7.584
 08  4 27 10 52  0.0000000  0  9G 1G 4G 5G12G17G20G23G30G31
  23571743.277    23571742.7344   23571746.5434  123870345.857 7  96522364.97844
     -3780.784       -2946.062
  21308141.574    21308141.6174   21308144.6114  111975053.948 8  87253306.52946
       323.158         251.824
  22075676.090    22075675.2364   22075678.9094  116008475.029 7  90396234.14145
     -1737.710       -1354.060
  22777596.190    22777596.2374   22777598.3954  119697085.780 7  93270478.66245
     -2331.734       -1816.938
  24044546.012    24044546.0134   24044548.8704  126354931.251 6  98458403.27544
     -4275.674       -3331.686
  21547459.366    21547458.5164   21547461.7024  113232665.846 7  88233264.62345
     -2553.937       -1990.081
  22338072.925    22338072.4134   22338073.1574  117387383.932 7  91470713.58945
      2110.387        1644.452
  22100571.349    22100571.4364   22100573.8384  116139311.153 8  90498182.73046
      -139.895        -109.007
  22312958.232    22312958.1844   22312960.0554  117255396.571 7  91367871.39346
       -10.126          -7.879
 08  4 27 10 52 30.0000000  0  9G 1G 4G 5G12G17G20G23G30G31
  23593358.417    23593357.8214   23593361.8494  123983934.475 7  96610875.61944
     -3791.753       -2954.620
  21306354.872    21306354.9054   21306357.8784  111965665.031 8  87245990.61046
       302.792         235.929
  22085657.142    22085656.5914   22085660.1594  116060926.809 7  90437105.67245
     -1759.094       -1370.730
  22790960.162    22790960.2014   22790962.5074  119767314.444 7  93325202.30345
     -2350.156       -1831.289
  24068976.713    24068976.7084   24068979.4844  126483315.424 7  98558442.91444
     -4283.224       -3337.576
  21562090.697    21562089.8744   21562093.1464  113309553.877 8  88293177.33145
     -2571.918       -2004.089
  22326067.084    22326066.8344   22326067.4554  117324294.058 7  91421552.65745
      2095.587        1632.924
  22101434.838    22101434.9514   22101437.6234  116143850.307 8  90501719.72145
      -162.709        -126.786
  22313073.990    22313074.0524   22313075.8824  117256004.977 8  91368345.32146
       -30.417         -23.704
 08  4 27 10 53  0.0000000  0  9G 1G 4G 5G12G17G20G23G30G31
  23615035.747    23615035.2824   23615039.3194  124097849.760 7  96699640.68944
     -3802.679       -2963.119
  21304684.119    21304684.1154   21304687.0354  111956884.731 8  87239148.81546
       282.429         220.083
  22095760.242    22095759.3584   22095762.9854  116114018.259 7  90478475.63245
     -1780.468       -1387.383
  22804429.490    22804429.2904   22804431.4364  119838094.810 7  93380355.82545
     -2368.633       -1845.687
  24093449.933    24093449.6614   24093452.5764  126611921.601 6  98658655.40144
     -4290.662       -3343.368
  21576824.208    21576823.4904   21576826.8204  113386979.900 7  88353509.25945
     -2589.896       -2018.097
  22314146.218    22314145.9104   22314146.5104  117261649.414 7  91372738.73145
      2080.595        1621.238
  22102428.786    22102428.8374   22102431.5644  116149073.480 8  90505789.73445
      -185.587        -144.613
  22313305.566    22313305.6394   22313307.4174  117257222.064 7  91369293.77946
       -50.832         -39.618
 08  4 27 10 53 30.0000000  0  9G 1G 4G 5G12G17G20G23G30G31
  23636775.218    23636774.7864   23636778.5344  124212090.315 7  96788659.12644
     -3813.472       -2971.532
  21303129.564    21303129.4614   21303132.5124  111948715.370 8  87232783.07146
       262.051         204.194
  22105984.954    22105984.2664   22105987.8384  116167749.178 7  90520343.88645
     -1801.761       -1403.967
  22818003.226    22818003.1594   22818005.1814  119909425.764 7  93435938.37245
     -2386.936       -1859.951
  24117964.933    24117964.8624   24117967.6354  126740748.156 7  98759039.46244
     -4297.954       -3349.043
  21591660.408    21591659.5394   21591662.7964  113464942.903 7  88414259.52346
     -2607.790       -2032.054
  22302310.837    22302310.4004   22302311.0974  117199453.603 7  91324274.49645
      2065.618        1609.578
  22103552.971    22103553.0494   22103555.8794  116154982.005 7  90510393.78545
      -208.460        -162.434
  22313653.313    22313653.4064   22313655.1254  117259049.292 8  91370717.64246
       -71.174         -55.463
 08  4 27 10 54  0.0000000  0  9G 1G 4G 5G12G17G20G23G30G31
  23658576.730    23658576.1434   23658579.9774  124326656.790 7  96877931.57144
     -3824.078       -2979.798
  21301691.941    21301691.9174   21301694.8744  111941160.687 8  87226896.24346
       241.819         188.435
  22116331.749    22116330.8824   22116334.3484  116222121.132 7  90562711.63545
     -1822.833       -1420.392
  22831682.168    22831681.9974   22831684.0904  119981308.578 7  93491950.96645
     -2405.069       -1874.083
  24142521.955    24142522.1004   24142524.8344  126869796.079 6  98859596.11644
     -4305.033       -3354.572
  21606598.975    21606598.0884   21606601.4694  113543443.429 8  88475428.27346
     -2625.408       -2045.749
  22290561.954    22290561.2984   22290562.1244  117137711.988 7  91276164.09745
      2050.638        1597.896
  22104808.278    22104808.2434   22104811.1694  116161579.212 7  90515534.46345
      -231.168        -180.131
  22314117.672    22314117.7574   22314119.4914  117261489.830 8  91372619.36846
       -91.362         -71.192
 08  4 27 10 54 30.0000000  0  9G 1G 4G 5G12G17G20G23G30G31
  23680438.292    23680437.6694   23680441.6544  124441540.748 7  96967451.50644
     -3834.875       -2988.222
  21300370.497    21300370.4204   21300373.2974  111934215.721 8  87221484.53246
       221.200         172.356
  22126798.787    22126798.0804   22126801.5054  116277126.877 7  90605573.25145
     -1844.204       -1437.048
  22845464.439    22845464.5124   22845466.4724  120053735.498 7  93548387.52945
     -2423.406       -1888.376
  24167119.485    24167119.3094   24167122.3034  126999057.403 7  98960319.39244
     -4312.331       -3360.271
  21621637.938    21621637.1904   21621640.6214  113622475.528 7  88537011.82746
     -2643.347       -2059.762
  22278898.666    22278898.2524   22278898.7984  117076421.350 7  91228405.23345
      2035.341        1585.982
  22106193.881    22106194.0094   22106196.7484  116168859.545 7  90521207.47345
      -254.185        -198.071
  22314697.734    22314697.9154   22314699.7094  117264538.490 8  91374994.94246
      -111.914         -87.209
 08  4 27 10 55  0.0000000  0  9G 1G 4G 5G12G17G20G23G30G31
  23702362.375    23702361.9104   23702366.0034  124556752.723 7  97057227.01344
     -3845.937       -2996.844
  21299167.362    21299167.4504   21299170.4614  111927894.664 8  87216559.07546
       200.251         156.034
  22137389.052    22137388.2874   22137391.5864  116332778.134 7  90648937.85845
     -1865.832       -1453.895
  22859352.869    22859352.5934   22859354.4054  120126717.894 7  93605256.91045
     -2442.020       -1902.875
  24191759.190    24191759.2854   24191762.3774  127128541.372 7  99061216.03744
     -4319.877       -3366.133
  21636780.405    21636779.6514   21636782.9444  113702049.167 7  88599017.26745
     -2661.498       -2073.902
  22267323.987    22267323.7764   22267324.4594  117015596.977 7  91181009.64545
      2019.662        1573.751
  22107711.624    22107711.6734   22107714.6594  116176837.028 8  90527423.72845
      -277.569        -216.291
  22315396.291    22315396.4764   22315398.1384  117268208.821 8  91377854.86246
      -132.780        -103.472
 08  4 27 10 55 30.0000000  0  9G 1G 4G 5G12G17G20G23G30G31
  23724347.001    23724346.4014   23724350.0764  124672281.051 7  97147248.99544
     -3856.163       -3004.790
  21298081.765    21298081.7594   21298084.6064  111922188.994 8  87212113.09046
       179.942         140.210
  22148099.933    22148099.1334   22148102.4834  116389064.420 7  90692797.29545
     -1886.714       -1470.170
  22873344.449    22873344.2494   22873346.2684  120200244.862 7  93662550.64345
     -2459.919       -1916.818
  24216439.304    24216439.4644   24216442.5094  127258236.238 7  99162276.97244
     -4326.628       -3371.407
  21652023.907    21652022.9754   21652026.3064  113782153.230 8  88661435.92045
     -2678.902       -2087.446
  22255837.255    22255836.7304   22255837.3464  116955232.188 8  91133972.16545
      2004.505        1561.954
  22109361.019    22109361.1494   22109363.6214  116185502.438 7  90534176.00045
      -300.292        -233.990
  22316211.334    22316211.4814   22316213.2644  117272492.292 8  91381192.69946
      -152.968        -119.201
 08  4 27 10 56  0.0000000  0  9G 1G 4G 5G12G17G20G23G30G31
  23746390.954    23746390.5064   23746393.8254  124788122.727 7  97237515.18944
     -3866.777       -3013.067
  21297113.171    21297113.0944   21297116.2164  111917099.552 8  87208147.33946
       159.175         124.039
  22158931.404    22158930.6184   22158933.8394  116445983.995 7  90737150.21645
     -1908.043       -1486.786
  22887439.211    22887439.1974   22887441.1024  120274313.948 7  93720266.81445
     -2478.200       -1931.063
  24241158.930    24241159.4114   24241162.1894  127388139.362 7  99263500.23044
     -4333.729       -3376.930
  21667367.636    21667366.8214   21667370.1424  113862786.072 7  88724266.80345
     -2696.777       -2101.406
  22244438.079    22244437.7054   22244438.2354  116895329.374 7  91087294.60245
      1988.822        1549.732
  22111140.768    22111140.8364   22111143.6674  116194856.263 7  90541464.70445
      -323.463        -252.047
  22317143.226    22317143.3524   22317144.9644  117277389.682 8  91385008.92546
      -173.668        -135.325
 08  4 27 10 56 30.0000000  0  9G 1G 4G 5G12G17G20G23G30G31
  23768493.686    23768493.3804   23768497.0144  124904274.958 7  97328023.46044
     -3876.761       -3020.840
  21296261.776    21296261.7474   21296264.8574  111912626.291 8  87204661.75346
       138.916         108.243
  22169882.800    22169882.1424   22169885.3624  116503534.829 7  90781995.02245
     -1928.740       -1502.921
  22901636.889    22901636.9064   22901638.8454  120348923.081 7  93778403.79845
     -2495.841       -1944.808
  24265918.049    24265917.9634   24265920.8794  127518247.353 7  99364883.05144
     -4340.182       -3381.950
  21682811.327    21682810.7364   21682814.0594  113943944.917 7  88787507.67146
     -2713.912       -2114.750
  22233127.301    22233126.7124   22233127.3534  116835890.107 7  91040978.30345
      1973.672        1537.917
  22113051.818    22113051.7174   22113054.5504  116204898.347 7  90549289.71945
      -346.096        -269.685
  22318192.142    22318192.0804   22318193.7954  117282900.570 8  91389303.13546
      -193.829        -151.038
 08  4 27 10 57  0.0000000  0  9G 1G 4G 5G12G17G20G23G30G31
  23790653.543    23790653.0584   23790656.7584  125020725.560 7  97418764.20744
     -3886.778       -3028.644
  21295526.232    21295526.2034   21295529.0994  111908760.644 8  87201649.61146
       118.602          92.425
  22180952.538    22180951.5014   22180955.1874  116561706.140 7  90827323.33045
     -1949.523       -1519.116
  22915935.114    22915935.0634   22915936.9434  120424060.753 7  93836952.61245
     -2513.498       -1958.572
  24290713.304    24290713.4244   24290716.3394  127648547.784 6  99466415.70544
     -4346.661       -3387.007
  21698353.410    21698352.6544   21698355.7384  114025618.127 7  88851149.20245
     -2731.140       -2128.159
  22221903.119    22221902.7414   22221903.4024  116776907.710 7  90995017.99745
      1958.282        1525.935
  22115092.641    22115092.4954   22115094.6444  116215619.848 7  90557644.12546
      -368.848        -287.413
  22319355.784    22319355.7544   22319357.4474  117289015.749 8  91394068.19346
      -214.078        -166.816
 08  4 27 10 57 30.0000000  0  9G 1G 4G 5G12G17G20G23G30G31
  23812870.894    23812870.1264   23812873.5304  125137476.432 7  97509738.90444
     -3896.642       -3036.339
  21294907.068    21294907.1324   21294910.0414  111905507.899 8  87199115.01246
        98.240          76.553
  22192140.791    22192140.0404   22192143.4974  116620500.653 7  90873137.23545
     -1970.192       -1535.212
  22930334.509    22930334.3424   22930336.3824  120499729.269 7  93895915.09145
     -2531.121       -1972.302
  24315545.904    24315546.0914   24315548.8574  127779041.941 7  99568098.92444
     -4353.022       -3391.936
  21713993.610    21713992.7734   21713995.9994  114107807.964 7  88915193.27746
     -2748.238       -2141.482
  22210767.324    22210766.9704   22210767.5464  116718388.742 7  90949418.71745
      1942.879        1513.936
  22117261.887    22117261.9874   22117265.1144  116227025.028 7  90566531.28945
      -391.582        -305.129
  22320635.456    22320635.2974   22320637.0864  117295740.538 8  91399308.33546
      -234.308        -182.577
 08  4 27 10 58  0.0000000  0  9G 1G 4G 5G12G17G20G23G30G31
  23835144.145    23835143.4074   23835146.6164  125254523.092 7  97600944.11144
     -3906.363       -3043.909
  21294404.393    21294404.3984   21294407.4574  111902866.702 8  87197056.97846
        77.919          60.720
  22203446.827    22203446.2754   22203449.4464  116679914.960 7  90919434.09845
     -1990.754       -1551.232
  22944834.162    22944834.0894   22944835.9414  120575924.832 7  93955288.25245
     -2548.564       -1985.892
  24340414.639    24340414.4514   24340417.7384  127909727.572 7  99669932.03444
     -4359.251       -3396.834
  21729731.351    21729730.5904   21729733.7764  114190510.750 7  88979636.99845
     -2765.227       -2154.721
  22199719.822    22199719.3014   22199720.0694  116660334.095 8  90904181.44945
      1927.450        1501.903
  22119562.980    22119563.1474   22119565.2864  116239112.590 8  90575950.17846
      -414.252        -322.794
  22322030.506    22322030.6654   22322032.3274  117303073.157 8  91405022.12046
      -254.478        -198.296
 08  4 27 10 58 30.0000000  0  9G 1G 4G 5G12G17G20G23G30G31
  23857471.886    23857471.5624   23857475.5934  125371859.628 7  97692375.19044
     -3915.986       -3051.415
  21294017.888    21294017.8304   21294020.8194  111900834.234 8  87195473.17046
        57.591          44.877
  22214870.165    22214869.5464   22214872.7024  116739944.237 7  90966210.15845
     -2011.183       -1567.154
  22959432.919    22959432.8644   22959434.7024  120652642.423 7  94015068.18745
     -2565.943       -1999.434
  24365318.294    24365318.1554   24365321.1724  128040596.989 7  99771908.35044
     -4365.334       -3401.560
  21745565.869    21745565.0574   21745568.2334  114273721.229 7  89044476.26645
     -2782.109       -2167.876
  22188760.252    22188759.7784   22188760.6464  116602742.198 7  90859304.67745
      1912.004        1489.875
  22121991.734    22121991.8164   22121994.6634  116251879.608 7  90585898.50545
      -436.876        -340.420
  22323541.151    22323541.1724   22323542.7444  117311010.428 8  91411207.02346
      -274.635        -213.996
 08  4 27 10 59  0.0000000  0  9G 1G 4G 5G12G17G20G23G30G31
  23879857.328    23879856.6534   23879860.6934  125489493.798 6  97784038.14144
     -3925.973       -3059.204
  21293749.185    21293749.0884   21293752.1074  111899422.121 8  87194372.80446
        36.786          28.662
  22226411.959    22226411.2654   22226414.5714  116800597.238 7  91013472.23345
     -2032.054       -1583.414
  22974132.604    22974132.6264   22974134.4024  120729889.844 7  94075260.99045
     -2583.687       -2013.264
  24390258.040    24390258.0534   24390261.1534  128171657.980 7  99874033.85544
     -4371.785       -3406.580
  21761498.505    21761497.6854   21761500.8534  114357447.770 8  89109717.72045
     -2799.385       -2181.331
  22177891.431    22177890.8964   22177891.8014  116545625.926 7  90814798.53745
      1895.987        1477.391
  22124552.588    22124552.7714   22124555.5694  116265336.517 8  90596384.42645
      -459.979        -358.425
  22325168.703    22325168.6824   22325170.4404  117319563.536 7  91417871.77046
      -295.309        -230.107
 08  4 27 10 59 30.0000000  0 10G 1G 4G 5G12G13G17G20G23G30G31
  23902298.684    23902297.8724   23902301.8614  125607423.258 6  97875931.12744
     -3935.903       -3066.935
  21293598.742    21293598.6384   21293601.7304  111898630.870 8  87193756.06046
        15.978          12.459
  22238072.157    22238071.5314   22238075.2364  116861872.755 7  91061219.38445
     -2052.914       -1599.670
  22988933.009    22988932.8784   22988934.7484  120807665.999 7  94135865.76545
     -2601.358       -2027.030
  24568825.774    24568825.7974   24568828.9224  129110061.216 6 100605258.89543
      3386.103        2638.520
  24415234.243    24415234.0114   24415237.3504  128302908.288 7  99976306.80744
     -4378.161       -3411.549
  21777529.181    21777528.3264   21777531.6384  114441688.504 8  89175359.66345
     -2816.591       -2194.737
  22167113.454    22167113.0254   22167113.9624  116488988.135 7  90770665.23845
      1879.901        1464.854
  22127245.047    22127245.0694   22127247.5574  116279483.646 8  90607408.16445
      -483.124        -376.463
  22326913.316    22326913.4214   22326915.2514  117328733.075 8  91425016.87546
      -315.967        -246.212
 08  4 27 11  0  0.0000000  0 10G 1G 4G 5G12G13G17G20G23G30G31
  23924796.252    23924795.4694   23924799.7744  125725649.293 6  97968055.26744
     -3945.724       -3074.586
  21293567.242    21293567.3514   21293570.2584  111898465.317 8  87193627.04546
        -4.836          -3.763
  22249851.436    22249850.6354   22249854.2004  116923772.664 7  91109453.07845
     -2073.643       -1615.827
  23003834.329    23003834.1604   23003836.0474  120885972.499 7  94196883.80745
     -2618.982       -2040.762
  24549509.103    24549509.1894   24549512.3894  129008551.850 6 100526160.75343
      3381.295        2634.784
  24440246.389    24440246.5614   24440249.4844  128434348.778 7 100078728.00844
     -4384.413       -3416.428
  21793657.862    21793657.0314   21793660.5044  114526444.748 7  89241403.18045
     -2833.735       -2208.101
  22156427.810    22156427.3494   22156428.1584  116432834.673 7  90726909.35645
      1863.756        1452.284
  22130068.551    22130068.6704   22130071.8144  116294324.963 7  90618972.82945
      -506.221        -394.463
  22328776.331    22328776.3504   22328778.1914  117338522.804 7  91432645.28646
      -336.596        -262.283
 08  4 27 11  0 30.0000000  0 10G 1G 4G 5G12G13G17G20G23G30G31
  23947350.952    23947350.3584   23947354.4844  125844175.477 6  98060413.25744
     -3956.088       -3082.664
  21293656.152    21293656.0884   21293659.0244  111898932.169 8  87193990.88446
       -26.333         -20.519
  22261750.145    22261749.4894   22261753.2884  116986301.702 7  91158177.00345
     -2095.031       -1632.490
  23018837.146    23018837.0784   23018839.0024  120964813.343 7  94258318.22145
     -2637.164       -2054.934
  24530221.362    24530221.5394   24530225.2194  128907195.214 6 100447181.61043
      3375.736        2630.436
  24465295.349    24465295.6104   24465298.6124  128565982.743 7 100181299.80744
     -4391.245       -3421.746
  21809885.318    21809884.6764   21809888.0534  114611722.074 7  89307853.13145
     -2851.494       -2221.938
  22145836.033    22145835.5094   22145836.3124  116377174.110 7  90683537.52645
      1846.858        1439.108
  22133026.553    22133026.5874   22133029.3944  116309866.749 7  90631083.32345
      -529.982        -412.978
  22330758.622    22330758.5864   22330760.3464  117348939.599 7  91440762.35146
      -357.909        -278.892
 08  4 27 11  1  0.0000000  0 10G 1G 4G 5G12G13G17G20G23G30G31
  23969963.297    23969962.0894   23969966.7944  125963001.733 6  98153005.06244
     -3965.804       -3090.240
  21293865.863    21293865.9424   21293868.9884  111900033.791 7  87194849.12146
       -47.201         -36.765
  22273769.128    22273768.3794   22273771.9494  117049460.468 7  91207391.61945
     -2115.712       -1648.606
  23033941.786    23033941.6564   23033943.5784  121044188.906 7  94320169.29445
     -2654.680       -2068.580
  24510963.988    24510963.8764   24510967.1054  128805996.222 6 100368325.30843
      3370.689        2626.516
  24490381.619    24490381.6494   24490384.8474  128697810.330 7 100284022.50044
     -4397.373       -3426.520
  21826212.388    21826211.4704   21826214.6484  114697519.837 7  89374708.60245
     -2868.534       -2235.231
  22135338.574    22135338.4794   22135339.0924  116322011.048 7  90640553.36245
      1830.526        1426.380
  22136117.786    22136117.9074   22136120.6374  116326111.818 7  90643741.81645
      -553.148        -431.026
  22332860.548    22332860.5694   22332862.4534  117359985.462 7  91449369.46646
      -378.643        -295.047
 08  4 27 11  1 30.0000000  0 10G 1G 4G 5G12G13G17G20G23G30G31
  23992631.050    23992630.8274   23992635.1024  126082125.357 6  98245828.67244
     -3975.582       -3097.850
  21294196.692    21294196.6534   21294199.6564  111901771.218 8  87196202.79546
       -68.450         -53.336
  22285907.270    22285906.5184   22285910.0384  117113247.031 7  91257095.43145
     -2136.542       -1664.839
  23049147.654    23049147.6194   23049149.5114  121124096.638 7  94382435.07045
     -2672.318       -2082.326
  24491736.742    24491736.8174   24491740.1554  128704957.418 6 100289593.82643
      3365.354        2622.351
  24515504.034    24515503.7514   24515507.1444  128829828.663 7 100386893.96544
     -4403.619       -3431.386
  21842637.467    21842636.7434   21842639.8884  114783835.668 7  89441967.83245
     -2885.684       -2248.588
  22124936.633    22124936.4314   22124936.9264  116267347.710 7  90597958.56045
      1813.882        1413.417
  22139342.815    22139342.9654   22139345.5834  116343059.953 7  90656948.14045
      -576.560        -449.259
  22335082.211    22335082.3304   22335084.0074  117371661.200 8  91458467.49646
      -399.560        -311.341
 08  4 27 11  2  0.0000000  0 10G 1G 4G 5G12G13G17G20G23G30G31
  24015355.384    24015355.0654   24015359.2814  126201542.706 6  98338881.18444
     -3985.541       -3105.605
  21294648.162    21294648.1454   21294651.1924  111904144.342 8  87198052.12746
       -89.786         -69.967
  22298164.394    22298163.7804   22298167.1394  117177658.816 7  91307286.42945
     -2157.566       -1681.218
  23064454.335    23064454.3254   23064456.1774  121204533.695 7  94445113.29645
     -2690.108       -2096.189
  24472540.378    24472540.8294   24472544.1994  128604080.579 6 100210988.56843
      3359.696        2617.943
  24540661.873    24540661.6174   24540664.7884  128962033.975 6 100489911.13244
     -4409.991       -3436.359
  21859160.918    21859160.0864   21859163.1364  114870666.353 7  89509628.13345
     -2903.020       -2262.089
  22114630.020    22114629.6314   22114630.2554  116213185.324 7  90555754.07145
      1796.924        1400.193
  22142701.866    22142702.0034   22142704.5064  116360710.514 7  90670701.80645
      -600.128        -467.629
  22337423.763    22337423.9174   22337425.5204  117383965.545 7  91468055.25546
      -420.734        -327.844
 08  4 27 11  2 30.0000000  0 10G 1G 4G 5G12G13G17G20G23G30G31
  24038137.472    24038136.6144   24038140.6984  126321258.701 6  98432166.29844
     -3995.184       -3113.132
  21295222.233    21295222.1604   21295225.2374  111907160.644 8  87200402.45046
      -111.001         -86.505
  22310541.753    22310541.1084   22310544.4314  117242701.739 7  91357969.22445
     -2178.282       -1697.366
  23079862.767    23079862.7294   23079864.6534  121285505.937 7  94508208.54645
     -2707.656       -2109.865
  24453377.038    24453377.0654   24453380.4324  128503375.849 6 100132517.42543
      3354.238        2613.678
  24565856.277    24565856.0984   24565859.3604  129094431.265 7 100593077.76244
     -4416.144       -3441.150
  21875783.221    21875782.6514   21875785.7754  114958017.574 7  89577693.87445
     -2920.050       -2275.359
  22104420.368    22104420.1034   22104420.6664  116159533.904 8  90513947.77645
      1780.123        1387.102
  22146195.768    22146195.6894   22146198.3514  116379071.185 8  90685008.82245
      -623.533        -485.876
  22339886.555    22339886.5264   22339888.2184  117396906.595 8  91478139.07946
      -441.663        -344.150
 08  4 27 11  3  0.0000000  0 10G 1G 4G 5G12G13G17G20G23G30G31
  24060972.743    24060971.7884   24060975.9234  126441257.971 6  98525672.22944
     -4004.642       -3120.508
  21295916.001    21295915.9694   21295919.0984  111910808.306 8  87203244.98346
      -132.123        -102.959
  22323036.219    22323035.5704   22323039.1254  117308360.884 7  91409132.19745
     -2198.871       -1713.403
  23095370.131    23095370.0394   23095371.9104  121366997.971 7  94571708.83845
     -2725.050       -2123.415
  24434244.417    24434244.2724   24434247.3694  128402832.854 6 100054172.30943
      3348.665        2609.346
  24591084.180    24591084.0114   24591087.0624  129227004.554 7 100696381.72044
     -4422.020       -3445.730
  21892501.931    21892501.1944   21892504.3154  115045874.079 8  89646153.33045
     -2936.966       -2288.544
  22094306.266    22094305.8244   22094306.2814  116106382.604 8  90472531.05845
      1763.321        1374.000
  22149822.443    22149822.5704   22149824.8204  116398128.458 8  90699858.64245
      -646.850        -504.040
  22342467.883    22342467.8774   22342469.6104  117410471.450 8  91488709.01146
      -462.560        -360.434
 08  4 27 11  3 30.0000000  0 10G 1G 4G 5G12G13G17G20G23G30G31
  24083860.146    24083859.6754   24083863.9974  126561536.033 6  98619395.45544
     -4013.793       -3127.631
  21296729.972    21296729.8744   21296732.9894  111915085.089 8  87206577.47846
      -152.985        -119.206
  22335647.370    22335646.6434   22335649.9794  117374632.597 7  91460772.49645
     -2219.138       -1729.195
  23110975.861    23110975.7284   23110977.4334  121449005.513 7  94635610.81445
     -2742.084       -2136.685
  24415142.029    24415142.6264   24415145.6354  128302452.535 6  99975953.94443
      3343.345        2605.209
  24616344.373    24616344.4964   24616347.4834  129359749.366 7 100799819.25945
     -4427.580       -3450.057
  21909316.157    21909315.2804   21909318.3464  115134231.973 7  89715003.51745
     -2953.543       -2301.472
  22084287.042    22084286.7404   22084287.3844  116053731.626 7  90431504.22945
      1746.802        1361.152
  22153580.836    22153580.9494   22153583.4084  116417880.536 8  90715249.87245
      -669.887        -521.988
  22345167.483    22345167.5784   22345169.4394  117424658.437 8  91499763.77846
      -483.169        -376.491
 08  4 27 11  4  0.0000000  0 10G 1G 4G 5G12G13G17G20G23G30G31
  24106801.245    24106800.5374   24106804.6804  126682090.946 6  98713334.33744
     -4023.080       -3134.867
  21297663.535    21297663.5434   21297666.8614  111919992.722 8  87210401.69746
      -174.109        -135.670
  22348374.913    22348374.0994   22348377.6294  117441515.888 7  91512889.34045
     -2239.634       -1745.174
  23126679.145    23126678.9754   23126680.8524  121531527.452 7  94699913.61945
     -2759.266       -2150.081
  24396072.290    24396072.4624   24396075.5314  128202237.954 6  99897864.71843
      3337.657        2600.764
  24641637.539    24641637.3044   24641640.3494  129492664.078 7 100903389.11044
     -4433.303       -3454.526
  21926224.945    21926224.4274   21926227.3574  115223090.990 7  89784244.64545
     -2970.282       -2314.513
  22074363.715    22074363.4124   22074363.9054  116001584.075 7  90390869.68945
      1729.783        1347.857
  22157472.319    22157472.3334   22157474.7314  116438328.028 8  90731182.97945
      -693.198        -540.152
  22347985.730    22347985.7874   22347987.6074  117439468.259 8  91511303.85046
      -504.057        -392.772
 08  4 27 11  4 30.0000000  0  9G 1G 4G 5G12G13G20G23G30G31
  24129792.757    24129792.0874   24129795.9544  126802910.944 6  98807479.76844
     -4031.615       -3141.516
  21298715.799    21298715.8054   21298718.9784  111925522.047 8  87214710.29746
      -194.622        -151.651
  22361216.628    22361215.8904   22361219.1224  117508999.615 7  91565474.06045
     -2259.400       -1760.574
  23142478.294    23142478.2324   23142479.9514  121614552.159 7  94764608.19945
     -2775.756       -2162.929
  24377032.091    24377032.4004   24377035.2484  128102182.922 6  99819899.84543
      3332.512        2596.754
  21943227.295    21943226.4134   21943229.4764  115312437.984 7  89853865.78145
     -2986.286       -2326.979
  22064534.768    22064534.3654   22064535.2134  115949933.378 7  90350622.49745
      1713.469        1335.180
  22161493.589    22161493.7574   22161496.1404  116459461.805 7  90747650.85345
      -715.821        -557.787
  22350920.685    22350920.9704   22350922.7594  117454891.876 8  91523322.23746
      -524.263        -408.515
 08  4 27 11  5  0.0000000  0  9G 1G 4G 5G12G13G20G23G30G31
  24152834.526    24152833.4444   24152837.6324  126923995.641 6  98901831.40644
     -4040.413       -3148.369
  21299887.162    21299887.0114   21299890.1284  111931675.966 8  87219505.45546
      -215.452        -167.877
  22374172.782    22374172.0334   22374175.1004  117577084.301 7  91618527.06245
     -2279.385       -1776.140
  23158372.870    23158372.9624   23158374.7664  121698079.662 7  94829694.54545
     -2792.496       -2175.970
  24358023.647    24358023.7084   24358027.1294  128002292.520 6  99742063.21443
      3327.006        2592.465
  21960322.512    21960321.6874   21960324.7684  115402273.888 7  89923867.82645
     -3002.579       -2339.688
  22054801.414    22054801.1134   22054801.9124  115898782.837 7  90310764.66045
      1696.700        1322.108
  22165646.057    22165646.3104   22165648.9024  116481283.713 8  90764654.90645
      -738.770        -575.664
  22353973.173    22353973.1984   22353975.1244  117470931.780 7  91535820.81946
      -544.836        -424.547
 08  4 27 11  5 30.0000000  0  9G 1G 4G 5G12G13G20G23G30G31
  24175924.264    24175923.8794   24175928.1554  127045337.392 6  98996383.39243
     -4048.967       -3155.038
  21301176.184    21301176.1264   21301179.2354  111938449.795 8  87224783.62846
      -236.135        -184.001
  22387241.822    22387241.0934   22387244.3044  117645762.838 7  91672042.79245
     -2299.161       -1791.557
  23174362.247    23174361.9684   23174363.8644  121782103.011 7  94895167.27245
     -2809.011       -2188.842
  24339045.970    24339045.8744   24339049.2714  127902563.862 6  99664352.61343
      3321.568        2588.222
  21977509.268    21977508.5804   21977511.4474  115492591.104 8  89994244.89345
     -3018.567       -2352.132
  22045162.836    22045162.4754   22045163.2144  115848131.090 8  90271295.74345
      1680.082        1309.142
  22169928.976    22169928.9434   22169931.5254  116503788.801 7  90782191.37045
      -761.548        -593.418
  22357141.817    22357141.8744   22357143.6604  117487582.976 8  91548795.79846
      -565.237        -440.453
 08  4 27 11  6  0.0000000  0  9G 1G 4G 5G12G13G20G23G30G31
  24199063.638    24199062.7674   24199067.5114  127166933.580 6  99091133.68843
     -4057.374       -3161.586
  21302583.180    21302583.3404   21302586.3004  111945843.870 8  87230545.18946
      -256.735        -200.050
  22400423.727    22400422.8494   22400425.9404  117715033.352 7  91726019.81045
     -2318.810       -1806.860
  23190445.080    23190445.0354   23190447.0054  121866619.852 7  94961024.54445
     -2825.359       -2201.577
  24320099.346    24320099.3664   24320102.9034  127802999.931 6  99586770.39643
      3316.068        2583.935
  21994787.233    21994786.5444   21994789.5644  115583387.512 8  90064995.34145
     -3034.447       -2364.506
  22035619.479    22035619.0854   22035619.8254  115797979.762 7  90232216.77845
      1663.456        1296.210
  22174340.963    22174341.0904   22174343.9494  116526976.605 7  90800259.80345
      -784.259        -611.114
  22360426.494    22360426.6894   22360428.4664  117504845.409 7  91562247.09746
      -585.552        -456.279
 08  4 27 11  6 30.0000000  0  9G 1G 4G 5G12G13G20G23G30G31
  24222250.255    24222249.5604   24222253.7154  127288779.302 6  99186078.39244
     -4065.812       -3168.165
  21304108.058    21304108.0204   21304111.1344  111953856.724 8  87236789.08146
      -277.557        -216.279
  22413717.249    22413716.3424   22413719.7274  117784891.693 7  91780454.87945
     -2338.562       -1822.257
  23206621.124    23206621.0374   23206623.1094  121951625.403 7  95027262.61845
     -2841.839       -2214.417
  24301184.488    24301184.5184   24301187.9054  127703601.272 6  99509316.96343
      3310.325        2579.480
  22012155.655    22012154.7934   22012157.7204  115674658.453 8  90136115.49445
     -3050.408       -2376.937
  22026171.136    22026170.8054   22026171.5594  115748328.184 8  90193527.06845
      1646.523        1283.016
  22178883.353    22178883.4474   22178885.9184  116550844.966 7  90818858.53145
      -807.119        -628.926
  22363827.482    22363827.4614   22363829.2784  117522716.721 8  91576172.82746
      -606.017        -472.220
 08  4 27 11  7  0.0000000  0  9G 1G 4G 5G12G13G20G23G30G31
  24245483.466    24245482.7834   24245487.8084  127410873.975 6  99281217.12943
     -4073.934       -3174.484
  21305751.081    21305750.9554   21305753.9014  111962489.905 8  87243516.24146
      -298.045        -232.243
  22427122.465    22427121.8214   22427125.0924  117855337.673 7  91835347.84145
     -2357.939       -1837.356
  23222890.045    23222890.0644   23222892.1794  122037119.702 7  95093881.54845
     -2857.878       -2226.923
  24282301.557    24282301.6964   24282304.8464  127604371.788 6  99431995.35343
      3304.868        2575.217
  22029614.172    22029613.3374   22029616.3344  115766403.983 7  90207605.55145
     -3065.996       -2389.093
  22016818.992    22016818.5294   22016819.1054  115699180.764 7  90155230.36845
      1629.831        1269.982
  22183555.227    22183555.0924   22183557.7834  116575395.537 7  90837988.83845
      -829.665        -646.495
  22367344.527    22367344.4564   22367346.2444  117541198.486 8  91590574.18346
      -626.184        -487.937
 08  4 27 11  7 30.0000000  0  9G 1G 4G 5G12G13G20G23G30G31
  24268764.349    24268763.9364   24268768.4654  127533215.674 6  99376548.28143
     -4082.175       -3180.910
  21307512.356    21307512.2244   21307515.1474  111971745.085 8  87250728.07546
      -318.909        -248.501
  22440639.615    22440638.8554   22440642.1784  117926370.432 7  91890698.02945
     -2377.538       -1852.625
  23239251.841    23239251.8794   23239254.0344  122123101.454 7  95160880.31845
     -2874.195       -2239.634
  24263452.045    24263451.9734   24263455.4224  127505315.843 6  99354808.92243
      3298.857        2570.540
  22047162.970    22047162.2524   22047165.1914  115858622.347 8  90279463.72945
     -3081.875       -2401.467
  22007562.800    22007562.3634   22007563.0224  115650541.672 7  90117330.24745
      1612.817        1256.740
  22188356.765    22188356.7374   22188359.7234  116600629.019 7  90857651.28945
      -852.543        -664.320
  22370977.504    22370977.7624   22370979.5934  117560291.876 8  91605452.16346
      -646.686        -503.918
 08  4 27 11  8  0.0000000  0  9G 1G 4G 5G12G13G20G23G30G31
  24292090.092    24292089.8964   24292094.3684  127655792.471 6  99472062.66744
     -4089.966       -3186.990
  21309389.933    21309389.9454   21309392.6934  111981612.733 8  87258417.16146
      -339.273        -264.361
  22454266.081    22454265.5434   22454268.4254  117997978.380 7  91946496.41445
     -2396.659       -1867.522
  23255704.376    23255704.1004   23255706.3044  122209558.673 7  95228249.57545
     -2889.976       -2251.931
  24244634.199    24244634.0574   24244636.9084  127406426.355 6  99277752.22143
      3293.291        2566.208
  22064799.463    22064798.9414   22064801.9054  115951301.663 7  90351680.90445
     -3097.100       -2413.302
  21998402.083    21998401.6664   21998402.1464  115602401.443 8  90079818.40645
      1596.171        1243.775
  22193286.551    22193286.7704   22193289.4364  116626535.401 7  90877838.08345
      -874.929        -681.764
  22374725.604    22374725.6604   22374727.3954  117579987.269 8  91620799.31046
      -666.702        -519.510
 08  4 27 11  8 30.0000000  0  9G 1G 4G 5G12G13G20G23G30G31
  24315462.208    24315461.6234   24315465.7504  127778611.053 6  99567765.44644
     -4097.972       -3193.227
  21311386.390    21311386.1714   21311389.0184  111992102.590 8  87266591.01346
      -360.012        -280.530
  22468003.692    22468003.0454   22468006.1884  118070168.914 7  92002748.77845
     -2416.044       -1882.630
  23272248.103    23272248.1234   23272250.3094  122296498.419 7  95295994.83745
     -2905.995       -2264.406
  24225849.648    24225849.9454   24225852.8184  127307715.440 6  99200834.67443
      3287.377        2561.577
  22082524.851    22082524.1534   22082527.3204  116044451.043 7  90424265.17545
     -3112.676       -2425.451
  21989338.385    21989338.1384   21989338.6444  115554772.845 8  90042705.34945
      1579.121        1230.473
  22198346.141    22198346.2704   22198349.0154  116653123.836 8  90898556.33545
      -897.624        -699.448
  22378589.953    22378589.9854   22378591.5764  117600294.246 7  91636622.96346
      -687.077        -535.386
 08  4 27 11  9  0.0000000  0  9G 1G 4G 5G12G13G20G23G30G31
  24338880.853    24338880.2024   24338884.3154  127901676.742 6  99663660.74944
     -4106.296       -3199.719
  21313502.450    21313502.3264   21313505.1134  112003222.972 8  87275256.33146
      -381.204        -297.043
  22481852.987    22481852.1564   22481855.4674  118142947.831 7  92059459.60045
     -2435.751       -1897.989
  23288885.041    23288885.1724   23288887.2034  122383926.165 7  95364120.34845
     -2922.361       -2277.164
  24207101.542    24207101.6104   24207104.6264  127209193.369 6  99124064.24343
      3280.874        2556.540
  22100340.766    22100340.1554   22100343.3424  116138073.627 7  90497217.61945
     -3128.594       -2437.850
  21980373.826    21980373.5574   21980374.3084  115507664.788 8  90005997.84645
      1561.581        1216.818
  22203536.757    22203536.7924   22203539.7364  116680401.560 7  90919811.72145
      -920.741        -717.458
  22382571.961    22382572.0304   22382573.7754  117621220.054 8  91652928.72446
      -707.836        -551.563
 08  4 27 11  9 30.0000000  0  9G 1G 4G 5G12G13G20G23G30G31
  24362345.784    24362345.3704   24362350.2564  128024989.502 6  99759748.51944
     -4114.479       -3206.084
  21315738.942    21315738.8974   21315741.7264  112014976.475 8  87284414.91346
      -402.298        -313.477
  22495814.683    22495813.8454   22495816.7254  118216315.743 7  92116629.39245
     -2455.305       -1913.232
  23305615.133    23305615.0524   23305617.0814  122471842.363 7  95432626.46145
     -2938.604       -2289.820
  24188390.312    24188390.7124   24188393.6254  127110865.742 6  99047445.35143
      3274.327        2551.428
  22118247.306    22118246.1814   22118249.3154  116232170.660 7  90570539.90445
     -3144.421       -2450.206
  21971509.608    21971509.2824   21971510.0674  115461083.351 7  89969700.68345
      1543.985        1203.101
  22208859.548    22208859.4974   22208861.9534  116708371.135 7  90941606.20845
      -943.808        -735.434
  22386672.362    22386672.4184   22386674.0964  117642767.496 8  91669718.89646
      -728.557        -567.706
 08  4 27 11 10  0.0000000  0  9G 1G 4G 5G12G13G20G23G30G31
  24385858.321    24385857.8354   24385862.1684  128148546.372 6  99856026.47144
     -4122.587       -3212.402
  21318096.034    21318095.9664   21318098.8824  112027363.045 8  87294066.74746
      -423.418        -329.935
  22509887.493    22509886.6824   22509890.1214  118290270.550 7  92174256.51845
     -2474.906       -1928.498
  23322437.329    23322437.2854   23322439.4024  122560244.554 7  95501511.26845
     -2954.830       -2302.467
  24169716.927    24169716.5944   24169719.9584  127012735.164 6  98970980.04643
      3267.670        2546.221
  22136243.316    22136242.4534   22136245.7074  116326738.432 7  90644228.42945
     -3160.187       -2462.507
  21962745.901    21962745.5154   21962746.4514  115415029.452 8  89933814.49145
      1526.337        1189.354
  22214313.213    22214313.3534   22214316.0274  116737031.954 7  90963939.30145
      -966.847        -753.391
  22390890.976    22390891.0304   22390892.5774  117664936.400 8  91686993.41346
      -749.292        -583.864
 08  4 27 11 10 30.0000000  0  9G 1G 4G 5G12G13G20G23G30G31
  24409416.996    24409416.4384   24409421.0774  128272347.552 6  99952494.90044
     -4130.668       -3218.702
  21320574.119    21320574.0364   21320576.9564  112040385.154 8  87304213.77246
      -444.586        -346.423
  22524071.941    22524071.2854   22524074.5884  118364812.236 7  92232340.94044
     -2494.405       -1943.693
  23339352.223    23339352.2714   23339354.4204  122649132.562 7  95570774.64645
     -2970.935       -2315.014
  24151081.734    24151081.8214   24151084.1354  126914806.559 6  98894672.10243
      3260.960        2541.012
  22154328.682    22154327.7944   22154330.9924  116421780.904 7  90718288.15445
     -3175.830       -2474.690
  21954083.349    21954082.9034   21954083.7514  115369507.826 8  89898343.15745
      1508.550        1175.490
  22219899.269    22219899.4704   22219901.8544  116766385.867 8  90986812.47245
      -989.948        -771.385
  22395228.028    22395228.0684   22395229.9334  117687728.376 8  91704753.38046
      -770.050        -600.029
 08  4 27 11 11  0.0000000  0  9G 1G 4G 5G12G13G20G23G30G31
  24433022.643    24433022.2564   24433026.4714  128396395.704 6 100049155.79244
     -4139.196       -3225.342
  21323174.176    21323174.1804   21323177.0064  112054048.535 8  87314860.55246
      -466.298        -363.349
  22538369.166    22538368.4464   22538372.0504  118439944.227 7  92290885.34544
     -2514.411       -1959.276
  23356360.267    23356360.1794   23356362.3614  122738509.519 7  95640419.01145
     -2987.526       -2327.943
  24132486.722    24132486.8504   24132489.3694  126817087.735 6  98818527.57643
      3253.614        2535.274
  22172504.484    22172503.8564   22172507.0374  116517298.194 7  90792717.56845
     -3191.941       -2487.233
  21945523.470    21945523.1234   21945523.8114  115324525.889 8  89863292.40145
      1490.219        1161.204
  22225617.859    22225617.9924   22225620.5854  116796437.695 8  91010229.47045
     -1013.487        -789.731
  22399684.771    22399684.9284   22399686.8034  117711148.727 8  91723002.91246
      -791.349        -616.638
 08  4 27 11 11 30.0000000  0  9G 1G 4G 5G12G13G20G23G30G31
  24456675.101    24456674.8954   24456679.2814  128520691.109 6 100146009.27244
     -4147.049       -3231.465
  21325896.796    21325896.6214   21325899.7494  112068356.503 8  87326009.67346
      -487.446        -379.834
  22552778.816    22552778.0514   22552781.7544  118515667.477 7  92349890.47144
     -2533.726       -1974.331
  23373461.277    23373461.3084   23373463.3244  122828376.241 7  95710445.01645
     -3003.454       -2340.352
  24113932.162    24113932.3424   24113935.5644  126719584.845 6  98742551.35043
      3246.682        2529.866
  22190771.331    22190770.5554   22190773.6474  116613290.665 7  90867516.90745
     -3207.448       -2499.311
  21937067.192    21937066.8924   21937067.6554  115280088.593 7  89828666.01645
      1472.370        1147.303
  22231470.031    22231470.1304   22231472.3824  116827190.019 7  91034192.31245
     -1036.518        -807.675
  22404261.903    22404261.8874   22404263.6644  117735200.757 8  91741744.75346
      -812.048        -632.762
 08  4 27 11 12  0.0000000  0  9G 1G 4G 5G12G13G20G23G30G31
  24480374.544    24480373.7024   24480377.9384  128645229.531 6 100243052.20444
     -4155.164       -3237.801
  21328741.609    21328741.6204   21328744.5744  112083307.176 8  87337659.64646
      -508.915        -396.559
  22567300.060    22567299.4854   22567303.0364  118591977.948 7  92409353.16744
     -2553.356       -1989.626
  23390654.765    23390654.5124   23390656.8654  122918728.532 7  95780849.38245
     -3019.698       -2353.012
  24095419.411    24095419.4274   24095421.8554  126622298.720 6  98666744.02943
      3239.309        2524.140
  22209128.068    22209127.2544   22209130.2684  116709754.583 7  90942683.50645
     -3223.181       -2511.569
  21928714.810    21928714.3694   21928715.1894  115236196.236 8  89794464.22845
      1454.111        1133.074
  22237454.868    22237454.9474   22237457.5864  116858640.523 7  91058699.18645
     -1059.854        -825.861
  22408958.745    22408958.7264   22408960.3934  117759881.691 8  91760976.48246
      -833.053        -649.132
 08  4 27 11 12 30.0000000  0  9G 1G 4G 5G12G13G20G23G30G31
  24504117.467    24504117.2094   24504121.5474  128770003.370 6 100340278.72444
     -4162.831       -3243.768
  21331707.800    21331707.8304   21331710.8354  112098895.107 8  87349806.05746
      -529.993        -412.978
  22581932.371    22581931.4194   22581934.8194  118668868.278 7  92469267.71044
     -2572.465       -2004.524
  23407939.164    23407939.1914   23407941.2064  123009558.823 7  95851626.22245
     -3035.423       -2365.260
  24076947.111    24076947.5384   24076949.7544  126525226.943 6  98591103.74943
      3232.341        2518.702
  22227572.950    22227572.2314   22227575.1814  116806682.979 7  91018212.12145
     -3238.446       -2523.466
  21920465.348    21920464.9614   21920465.8444  115192845.737 8  89760684.67445
      1436.151        1119.075
  22243571.619    22243571.5374   22243574.2774  116890783.674 7  91083745.80545
     -1082.766        -843.713
  22413773.983    22413774.0484   22413775.8454  117785186.705 7  91780694.66446
      -853.703        -665.230
 08  4 27 11 13  0.0000000  0  9G 1G 4G 5G12G13G20G23G30G31
  24527906.432    24527906.0074   24527910.0344  128895011.907 6 100437687.98944
     -4170.813       -3249.976
  21334795.989    21334795.8444   21334798.9914  112115123.032 8  87362451.09146
      -551.606        -429.816
  22596674.363    22596673.6554   22596676.9354  118746338.954 7  92529634.46744
     -2592.000       -2019.744
  23425314.611    23425314.4984   23425316.5904  123100866.808 7  95922775.28245
     -3051.520       -2377.807
  24058516.789    24058516.4514   24058519.3974  126428374.201 6  98515634.06243
      3224.798        2512.827
  22246106.130    22246105.4124   22246108.5504  116904075.682 7  91094102.50445
     -3254.123       -2535.679
  21912319.854    21912319.4554   21912320.4364  115150041.468 7  89727330.74445
      1417.714        1104.705
  22249820.054    22249820.1174   22249823.0624  116923621.158 7  91109333.44145
     -1106.118        -861.907
  22418708.538    22418708.5974   22418710.2434  117811117.859 8  91800900.80646
      -874.770        -681.637
 08  4 27 11 13 30.0000000  0  9G 1G 4G 5G12G13G20G23G30G31
  24551739.494    24551739.0504   24551742.9374  129020255.904 6 100535280.68244
     -4178.619       -3256.059
  21338006.654    21338006.4904   21338009.6934  112131993.996 8  87375597.17446
      -572.985        -446.473
  22611526.982    22611526.3424   22611529.6214  118824390.617 7  92590453.94044
     -2611.225       -2034.717
  23442781.033    23442780.9384   23442782.8254  123192653.468 7  95994297.33945
     -3067.395       -2390.177
  24040129.192    24040128.8964   24040131.9074  126331746.679 6  98440339.89443
      3217.235        2506.925
  22264727.738    22264727.0124   22264730.2444  117001933.582 7  91170355.49845
     -3269.551       -2547.701
  21904279.369    21904278.9864   21904279.8394  115107788.341 8  89694406.27345
      1399.332        1090.390
  22256201.890    22256201.9484   22256204.1894  116957155.282 7  91135463.91745
     -1129.317        -879.982
  22423762.533    22423762.7164   22423764.3494  117837677.673 8  91821596.81646
      -895.697        -697.946
 08  4 27 11 14  0.0000000  0  9G 1G 4G 5G12G13G20G23G30G31
  24575614.239    24575613.5674   24575617.7954  129145719.153 6 100633044.14244
     -4185.840       -3261.689
  21341336.966    21341336.9984   21341340.0154  112149494.832 8  87389234.09946
      -593.926        -462.794
  22626487.492    22626486.6704   22626490.1624  118903007.732 7  92651714.02044
     -2630.074       -2049.406
  23460335.505    23460335.3934   23460337.4434  123284902.710 7  96066179.83445
     -3082.744       -2402.138
  24021782.311    24021781.8734   24021785.0284  126235333.566 6  98365212.91343
      3210.049        2501.331
  22283434.937    22283434.2404   22283437.5744  117100240.490 7  91246958.19045
     -3284.471       -2559.327
  21896341.632    21896341.0794   21896342.0224  115066074.662 8  89661902.11045
      1381.330        1076.360
  22262712.522    22262712.5084   22262715.7984  116991372.018 7  91162126.30345
     -1151.997        -897.659
  22428933.798    22428933.8624   22428935.5374  117864852.458 7  91842772.03946
      -916.153        -713.888
 08  4 27 11 14 30.0000000  0  9G 1G 4G 5G12G13G20G23G30G31
  24599532.984    24599532.4864   24599536.6284  129271410.995 6 100730985.41944
     -4193.362       -3267.541
  21344789.417    21344789.4144   21344792.5344  112167637.755 8  87403371.41946
      -615.246        -479.408
  22641557.084    22641556.3644   22641559.8354  118982200.261 7  92713422.47044
     -2649.098       -2064.228
  23477979.948    23477979.8424   23477981.9364  123377624.628 7  96138430.63245
     -3098.380       -2414.318
  24003479.338    24003479.3894   24003481.7894  126139149.640 6  98290264.36243
      3202.493        2495.463
  22302229.619    22302228.9474   22302232.2614  117199006.419 7  91323918.48145
     -3299.612       -2571.118
  21888509.267    21888508.6714   21888509.4284  115024914.889 8  89629829.56945
      1362.934        1062.031
  22269355.929    22269356.2084   22269358.9384  117026282.987 8  91189329.65145
     -1175.085        -915.653
  22434224.254    22434224.2464   22434225.9464  117892653.943 8  91864435.53346
      -936.958        -730.095
 08  4 27 11 15  0.0000000  0  9G 1G 4G 5G12G13G20G23G30G31
  24623496.325    24623495.8314   24623500.0474  129397339.458 6 100829111.52144
     -4201.296       -3273.750
  21348365.799    21348365.8214   21348368.9774  112186431.919 8  87418016.29346
      -637.066        -496.414
  22656737.609    22656737.0844   22656740.5394  119061975.127 7  92775584.70044
     -2668.621       -2079.446
  23495715.454    23495715.3224   23495717.4204  123470825.436 7  96211054.60545
     -3114.429       -2426.831
  23985221.710    23985221.5674   23985224.6934  126043207.339 6  98215504.23743
      3194.270        2489.024
  22321112.999    22321112.2204   22321115.5114  117298238.708 7  91401242.34045
     -3315.266       -2583.332
  21880784.147    21880783.7214   21880784.6084  114984320.061 8  89598197.23145
      1343.963        1047.240
  22276133.450    22276133.5564   22276136.0024  117061896.869 7  91217080.71045
     -1198.607        -933.983
  22439635.541    22439635.5634   22439637.3194  117921091.010 7  91886594.32146
      -958.254        -746.696
 08  4 27 11 15 30.0000000  0  9G 1G 4G 5G12G13G20G23G30G31
  24647502.819    24647502.3564   24647506.4464  129523494.882 6 100927414.70844
     -4208.130       -3279.073
  21352064.950    21352064.9064   21352068.0204  112205870.034 8  87433162.74646
      -657.923        -512.669
  22672027.476    22672026.7054   22672030.1404  119142323.489 7  92838193.80944
     -2687.002       -2093.768
  23513540.218    23513540.4654   23513542.4254  123564496.997 7  96284045.43445
     -3129.389       -2438.482
  23967009.892    23967009.8274   23967012.4374  125947502.241 6  98140928.82243
      3186.985        2483.353
  22340083.177    22340082.4594   22340085.6604  117397928.125 7  91478922.49145
     -3329.733       -2594.597
  21873165.953    21873165.5284   21873166.3574  114944285.721 8  89567001.64445
      1325.921        1033.186
  22283042.588    22283042.6704   22283045.5804  117098206.302 7  91245373.76545
     -1221.071        -951.488
  22445166.533    22445166.6014   22445168.3104  117950156.689 8  91909242.90846
      -978.515        -762.480
 08  4 27 11 16  0.0000000  0  9G 1G 4G 5G12G13G20G23G30G31
  24671546.944    24671546.8134   24671550.7054  129649849.589 6 101025872.93944
     -4215.847       -3285.069
  21355881.989    21355881.8954   21355885.1254  112225928.231 8  87448792.34246
      -679.661        -529.608
  22687421.339    22687420.6164   22687424.1564  119223218.808 7  92901229.10744
     -2706.367       -2108.856
  23531450.082    23531449.9214   23531452.0184  123658611.988 7  96357381.78845
     -3145.232       -2450.831
  23948838.255    23948838.1364   23948841.5134  125852012.977 6  98066521.66643
      3178.610        2476.846
  22359135.256    22359134.3564   22359137.8924  117498047.767 7  91556937.77945
     -3345.201       -2606.642
  21865650.218    21865649.5474   21865650.3594  114904789.260 8  89536225.24045
      1306.853        1018.321
  22290079.925    22290079.9594   22290082.8094  117135186.195 8  91274189.26746
     -1244.564        -969.790
  22450812.376    22450812.6084   22450814.2604  117979826.396 8  91932362.19846
      -999.788        -779.057
 08  4 27 11 16 30.0000000  0  9G 1G 4G 5G12G13G20G23G30G31
  24695635.415    24695634.3794   24695638.9664  129776432.463 6 101124508.89644
     -4222.822       -3290.510
  21359822.903    21359822.8924   21359825.9434  112246638.251 8  87464930.21046
      -700.751        -546.050
  22702924.778    22702924.1934   22702927.8534  119304689.917 7  92964713.07445
     -2724.899       -2123.304
  23549449.426    23549449.1614   23549451.3314  123753199.176 7  96431086.14945
     -3160.327       -2462.602
  23930714.674    23930715.3614   23930717.5434  125756773.376 6  97992308.97143
      3170.880        2470.813
  22378274.536    22378273.9014   22378277.4134  117598626.819 7  91635311.12645
     -3359.893       -2618.107
  21858242.565    21858242.2654   21858243.1084  114865863.693 8  89505893.66245
      1288.386        1003.923
  22297250.511    22297250.4114   22297253.0334  117172866.854 7  91303550.79645
     -1267.308        -987.518
  22456579.269    22456579.2454   22456580.9234  118010130.492 8  91955975.80946
     -1020.296        -795.038
 08  4 27 11 17  0.0000000  0  9G 1G 4G 5G12G13G20G23G30G31
  24719763.894    24719763.2784   24719767.6484  129903229.436 6 101223311.57644
     -4230.158       -3296.224
  21363885.660    21363885.4924   21363888.6384  112267987.288 8  87481565.70346
      -722.368        -562.886
  22718535.317    22718534.6244   22718538.0794  119386723.072 7  93028635.00344
     -2743.823       -2138.044
  23567535.914    23567535.6874   23567537.8784  123848244.525 7  96505147.45545
     -3175.860       -2474.695
  23912637.419    23912636.9414   23912640.3694  125661774.516 6  97918283.74543
      3162.500        2464.300
  22397499.058    22397498.2044   22397501.7354  117699651.168 7  91714031.48445
     -3374.956       -2629.856
  21850942.230    21850941.7294   21850942.5034  114827499.432 7  89475999.43445
      1269.394         989.143
  22304551.511    22304551.6544   22304554.2834  117211236.358 7  91333449.11945
     -1290.506       -1005.590
  22462464.348    22462464.3414   22462466.2204  118041057.293 7  91980074.60146
     -1041.334        -811.423
 08  4 27 11 17 30.0000000  0  9G 1G 4G 5G12G13G20G23G30G31
  24743935.035    24743934.5664   24743938.8114  130030249.715 6 101322288.39344
     -4237.461       -3301.919
  21368072.168    21368072.0314   21368075.1444  112289987.526 8  87498708.81046
      -743.976        -579.725
  22734254.470    22734253.7544   22734257.2594  119469327.351 7  93093001.96344
     -2762.715       -2152.763
  23585711.124    23585711.0304   23585713.4384  123943757.078 7  96579572.82445
     -3191.285       -2486.718
  23894608.150    23894608.1714   23894611.1264  125567030.734 6  97844457.29543
      3154.118        2457.768
  22416809.653    22416809.0354   22416812.3504  117801129.798 7  91793105.86045
     -3389.932       -2641.507
  21843751.075    21843750.6174   21843751.3854  114789709.605 8  89446552.76145
      1250.277         974.222
  22311986.229    22311986.3214   22311988.9954  117250304.521 8  91363891.84345
     -1313.679       -1023.648
  22468470.192    22468470.1524   22468471.9384  118072617.679 7  92004667.07646
     -1062.334        -827.794
 08  4 27 11 18  0.0000000  0  9G 1G 4G 5G12G13G20G23G30G31
  24768148.132    24768147.4924   24768151.4554  130157487.686 6 101421434.90344
     -4245.085       -3307.865
  21372381.889    21372381.8634   21372385.0364  112312635.152 8  87516356.21846
      -765.931        -596.827
  22750081.159    22750080.4864   22750083.7104  119552497.297 7  93157809.70444
     -2781.911       -2167.726
  23603974.563    23603974.4394   23603976.5584  124039731.077 7  96654357.74345
     -3207.076       -2499.023
  23876627.685    23876627.4194   23876630.7464  125472542.780 6  97770830.66743
      3145.098        2450.732
  22436206.047    22436205.0834   22436208.4974  117903057.011 7  91872529.62545
     -3405.241       -2653.432
  21836669.063    21836668.5314   21836669.5364  114752492.832 8  89417552.53745
      1230.761         959.054
  22319553.337    22319553.2504   22319555.6934  117290067.941 8  91394876.33545
     -1337.245       -1042.012
  22474595.618    22474595.7014   22474597.5074  118104807.942 7  92029750.37946
     -1083.724        -844.461
 08  4 27 11 18 30.0000000  0  9G 1G 4G 5G12G13G20G23G30G31
  24492611.244    24492610.6964   24492614.9714  128709533.378 6 100293158.71444
     -4252.047       -3313.280
  21077024.041    21077024.1804   21077027.1994  110760520.035 8  86306915.95546
      -787.383        -613.556
  22466224.980    22466224.2834   22466227.4954  118060822.278 7  91995465.52244
     -2800.548       -2182.244
  23322534.884    23322534.9524   23322537.1334  122560756.239 7  95501909.78845
     -3222.140       -2510.761
  23558904.813    23558904.6544   23558907.7984  123802897.338 6  96469808.27243
      3136.689        2444.162
  22155896.957    22155896.0784   22155899.4724  116430022.781 7  90724710.65945
     -3419.935       -2664.880
  21529905.729    21529904.9794   21529905.8394  113140438.976 8  88161406.56145
      1211.713         944.201
  22027461.416    22027461.3814   22027463.8884  115755116.124 8  90198809.98145
     -1360.249       -1059.937
  22181050.619    22181050.5094   22181052.3174  116562217.529 8  90827731.89746
     -1104.547        -860.687
 08  4 27 11 19  0.0000000  0  9G 1G 4G 5G12G13G20G23G30G31
  24516907.001    24516906.6514   24516910.9054  128837207.978 6 100392645.35344
     -4259.711       -3319.257
  21081582.118    21081582.0124   21081584.9834  110784472.170 8  86325580.02146
      -809.551        -630.826
  22482267.368    22482266.8004   22482270.0644  118145126.318 7  92061156.98644
     -2819.795       -2197.249
  23340974.104    23340974.2114   23340976.3604  122657655.630 7  95577415.79445
     -3237.927       -2523.065
  23541024.446    23541024.6624   23541027.5804  123708935.443 6  96396590.93843
      3127.357        2436.912
  22175463.916    22175463.4054   22175466.8254  116532850.198 7  90804835.95145
     -3435.296       -2676.859
  21523044.499    21523044.0854   21523044.7274  113104384.606 8  88133312.31245
      1191.759         928.611
  22035294.235    22035294.2634   22035296.5834  115796277.269 8  90230883.59645
     -1383.923       -1078.382
  22187417.409    22187417.4044   22187419.1894  116595675.644 8  90853803.14346
     -1126.099        -877.485
